<?xml version="1.0" encoding="UTF-8" standalone="no" ?>
<gpx xmlns="http://www.topografix.com/GPX/1/1" xmlns:xsi="http://www.w3.org/2001/XMLSchema-instance" xsi:schemaLocation="http://www.topografix.com/GPX/1/1 http://www.topografix.com/GPX/1/1/gpx.xsd" version="1.1" creator="VisuGPX - https://www.visugpx.com">
  <metadata>
    <name>vallée du Scorff et Vallée de l'Ellé</name>
    <desc><![CDATA[3j de rando nature le long du Scorff et de l'Ellé]]></desc>
  </metadata>
  <trk>
    <name><![CDATA[Locunolé - Querrien 31 km]]></name>
    <trkseg>
      <trkpt lat="47.93666" lon="-3.47457">
        <ele>94.54</ele>
        <time>2018-06-01T07:57:34Z</time>
      </trkpt>
      <trkpt lat="47.93666" lon="-3.47457">
        <ele>94.54</ele>
        <time>2018-06-01T07:57:35Z</time>
      </trkpt>
      <trkpt lat="47.93665" lon="-3.47458">
        <ele>94.58</ele>
        <time>2018-06-01T07:58:07Z</time>
      </trkpt>
      <trkpt lat="47.93667" lon="-3.47459">
        <ele>94.98</ele>
        <time>2018-06-01T07:58:35Z</time>
      </trkpt>
      <trkpt lat="47.93664" lon="-3.47459">
        <ele>94.86</ele>
        <time>2018-06-01T07:58:52Z</time>
      </trkpt>
      <trkpt lat="47.93656" lon="-3.47454">
        <ele>94.33</ele>
        <time>2018-06-01T07:59:08Z</time>
      </trkpt>
      <trkpt lat="47.93657" lon="-3.47453">
        <ele>94.58</ele>
        <time>2018-06-01T07:59:24Z</time>
      </trkpt>
      <trkpt lat="47.93655" lon="-3.47458">
        <ele>94.51</ele>
        <time>2018-06-01T07:59:38Z</time>
      </trkpt>
      <trkpt lat="47.93657" lon="-3.47454">
        <ele>94.63</ele>
        <time>2018-06-01T07:59:56Z</time>
      </trkpt>
      <trkpt lat="47.93656" lon="-3.47453">
        <ele>94.65</ele>
        <time>2018-06-01T08:00:23Z</time>
      </trkpt>
      <trkpt lat="47.93655" lon="-3.47452">
        <ele>94.53</ele>
        <time>2018-06-01T08:00:50Z</time>
      </trkpt>
      <trkpt lat="47.93659" lon="-3.47455">
        <ele>94.61</ele>
        <time>2018-06-01T08:01:08Z</time>
      </trkpt>
      <trkpt lat="47.9366" lon="-3.47458">
        <ele>94.44</ele>
        <time>2018-06-01T08:01:25Z</time>
      </trkpt>
      <trkpt lat="47.9366" lon="-3.47455">
        <ele>94.65</ele>
        <time>2018-06-01T08:01:43Z</time>
      </trkpt>
      <trkpt lat="47.9366" lon="-3.47455">
        <ele>94.38</ele>
        <time>2018-06-01T08:02:00Z</time>
      </trkpt>
      <trkpt lat="47.93657" lon="-3.47454">
        <ele>94.43</ele>
        <time>2018-06-01T08:02:12Z</time>
      </trkpt>
      <trkpt lat="47.93656" lon="-3.47453">
        <ele>94.1</ele>
        <time>2018-06-01T08:02:28Z</time>
      </trkpt>
      <trkpt lat="47.93656" lon="-3.47453">
        <ele>94.01</ele>
        <time>2018-06-01T08:02:55Z</time>
      </trkpt>
      <trkpt lat="47.93656" lon="-3.47455">
        <ele>94.06</ele>
        <time>2018-06-01T08:03:08Z</time>
      </trkpt>
      <trkpt lat="47.93656" lon="-3.47456">
        <ele>93.77</ele>
        <time>2018-06-01T08:03:31Z</time>
      </trkpt>
      <trkpt lat="47.93657" lon="-3.47456">
        <ele>93.94</ele>
        <time>2018-06-01T08:03:55Z</time>
      </trkpt>
      <trkpt lat="47.93656" lon="-3.47456">
        <ele>93.81</ele>
        <time>2018-06-01T08:04:25Z</time>
      </trkpt>
      <trkpt lat="47.93655" lon="-3.47457">
        <ele>93.85</ele>
        <time>2018-06-01T08:04:46Z</time>
      </trkpt>
      <trkpt lat="47.93655" lon="-3.47455">
        <ele>94.26</ele>
        <time>2018-06-01T08:05:14Z</time>
      </trkpt>
      <trkpt lat="47.93655" lon="-3.47453">
        <ele>94.22</ele>
        <time>2018-06-01T08:05:42Z</time>
      </trkpt>
      <trkpt lat="47.93654" lon="-3.47452">
        <ele>94.28</ele>
        <time>2018-06-01T08:06:07Z</time>
      </trkpt>
      <trkpt lat="47.93656" lon="-3.47448">
        <ele>94.05</ele>
        <time>2018-06-01T08:06:21Z</time>
      </trkpt>
      <trkpt lat="47.93669" lon="-3.47422">
        <ele>94.39</ele>
        <time>2018-06-01T08:06:40Z</time>
      </trkpt>
      <trkpt lat="47.93684" lon="-3.47394">
        <ele>94.31</ele>
        <time>2018-06-01T08:07:00Z</time>
      </trkpt>
      <trkpt lat="47.93703" lon="-3.47361">
        <ele>93.47</ele>
        <time>2018-06-01T08:07:21Z</time>
      </trkpt>
      <trkpt lat="47.93724" lon="-3.47326">
        <ele>92.09</ele>
        <time>2018-06-01T08:07:43Z</time>
      </trkpt>
      <trkpt lat="47.93752" lon="-3.47285">
        <ele>89.99</ele>
        <time>2018-06-01T08:08:09Z</time>
      </trkpt>
      <trkpt lat="47.93773" lon="-3.47247">
        <ele>87.5</ele>
        <time>2018-06-01T08:08:33Z</time>
      </trkpt>
      <trkpt lat="47.93797" lon="-3.47211">
        <ele>84.82</ele>
        <time>2018-06-01T08:08:56Z</time>
      </trkpt>
      <trkpt lat="47.9382" lon="-3.47193">
        <ele>82.1</ele>
        <time>2018-06-01T08:09:14Z</time>
      </trkpt>
      <trkpt lat="47.93837" lon="-3.47189">
        <ele>82.34</ele>
        <time>2018-06-01T08:09:28Z</time>
      </trkpt>
      <trkpt lat="47.93839" lon="-3.47185">
        <ele>82.33</ele>
        <time>2018-06-01T08:09:32Z</time>
      </trkpt>
      <trkpt lat="47.93842" lon="-3.47181">
        <ele>81.52</ele>
        <time>2018-06-01T08:09:37Z</time>
      </trkpt>
      <trkpt lat="47.9385" lon="-3.47178">
        <ele>79.8</ele>
        <time>2018-06-01T08:09:52Z</time>
      </trkpt>
      <trkpt lat="47.93855" lon="-3.47173">
        <ele>79.84</ele>
        <time>2018-06-01T08:10:15Z</time>
      </trkpt>
      <trkpt lat="47.93854" lon="-3.47175">
        <ele>79.26</ele>
        <time>2018-06-01T08:10:39Z</time>
      </trkpt>
      <trkpt lat="47.93853" lon="-3.47178">
        <ele>79.59</ele>
        <time>2018-06-01T08:11:06Z</time>
      </trkpt>
      <trkpt lat="47.93853" lon="-3.47177">
        <ele>79.44</ele>
        <time>2018-06-01T08:11:34Z</time>
      </trkpt>
      <trkpt lat="47.93863" lon="-3.47172">
        <ele>79.7</ele>
        <time>2018-06-01T08:11:57Z</time>
      </trkpt>
      <trkpt lat="47.93878" lon="-3.47167">
        <ele>76.54</ele>
        <time>2018-06-01T08:12:13Z</time>
      </trkpt>
      <trkpt lat="47.93892" lon="-3.47164">
        <ele>73.46</ele>
        <time>2018-06-01T08:12:25Z</time>
      </trkpt>
      <trkpt lat="47.93919" lon="-3.47156">
        <ele>70.32</ele>
        <time>2018-06-01T08:12:43Z</time>
      </trkpt>
      <trkpt lat="47.93938" lon="-3.47139">
        <ele>67.06</ele>
        <time>2018-06-01T08:12:55Z</time>
      </trkpt>
      <trkpt lat="47.93952" lon="-3.47128">
        <ele>63.89</ele>
        <time>2018-06-01T08:13:06Z</time>
      </trkpt>
      <trkpt lat="47.93968" lon="-3.47118">
        <ele>60.82</ele>
        <time>2018-06-01T08:13:17Z</time>
      </trkpt>
      <trkpt lat="47.93977" lon="-3.47109">
        <ele>57.43</ele>
        <time>2018-06-01T08:13:25Z</time>
      </trkpt>
      <trkpt lat="47.93992" lon="-3.47101">
        <ele>54.27</ele>
        <time>2018-06-01T08:13:37Z</time>
      </trkpt>
      <trkpt lat="47.94007" lon="-3.47102">
        <ele>51.17</ele>
        <time>2018-06-01T08:13:49Z</time>
      </trkpt>
      <trkpt lat="47.94015" lon="-3.47101">
        <ele>48.37</ele>
        <time>2018-06-01T08:14:00Z</time>
      </trkpt>
      <trkpt lat="47.9402" lon="-3.47102">
        <ele>47.29</ele>
        <time>2018-06-01T08:14:04Z</time>
      </trkpt>
      <trkpt lat="47.94041" lon="-3.47109">
        <ele>43.98</ele>
        <time>2018-06-01T08:14:22Z</time>
      </trkpt>
      <trkpt lat="47.94065" lon="-3.47124">
        <ele>41.65</ele>
        <time>2018-06-01T08:14:40Z</time>
      </trkpt>
      <trkpt lat="47.9407" lon="-3.47132">
        <ele>40.45</ele>
        <time>2018-06-01T08:14:47Z</time>
      </trkpt>
      <trkpt lat="47.94073" lon="-3.47137">
        <ele>39.99</ele>
        <time>2018-06-01T08:14:50Z</time>
      </trkpt>
      <trkpt lat="47.94076" lon="-3.47144">
        <ele>39.45</ele>
        <time>2018-06-01T08:14:53Z</time>
      </trkpt>
      <trkpt lat="47.94082" lon="-3.47155">
        <ele>37.96</ele>
        <time>2018-06-01T08:15:03Z</time>
      </trkpt>
      <trkpt lat="47.94087" lon="-3.4716">
        <ele>37.38</ele>
        <time>2018-06-01T08:15:09Z</time>
      </trkpt>
      <trkpt lat="47.94091" lon="-3.47165">
        <ele>37.42</ele>
        <time>2018-06-01T08:15:25Z</time>
      </trkpt>
      <trkpt lat="47.94104" lon="-3.4716">
        <ele>34.63</ele>
        <time>2018-06-01T08:15:42Z</time>
      </trkpt>
      <trkpt lat="47.94105" lon="-3.47159">
        <ele>34.21</ele>
        <time>2018-06-01T08:15:44Z</time>
      </trkpt>
      <trkpt lat="47.94114" lon="-3.47154">
        <ele>31.79</ele>
        <time>2018-06-01T08:16:03Z</time>
      </trkpt>
      <trkpt lat="47.94121" lon="-3.47152">
        <ele>29.15</ele>
        <time>2018-06-01T08:16:19Z</time>
      </trkpt>
      <trkpt lat="47.94124" lon="-3.47155">
        <ele>28.69</ele>
        <time>2018-06-01T08:16:47Z</time>
      </trkpt>
      <trkpt lat="47.94123" lon="-3.4715">
        <ele>28.23</ele>
        <time>2018-06-01T08:17:18Z</time>
      </trkpt>
      <trkpt lat="47.94127" lon="-3.47138">
        <ele>27.88</ele>
        <time>2018-06-01T08:17:26Z</time>
      </trkpt>
      <trkpt lat="47.9413" lon="-3.47136">
        <ele>26.68</ele>
        <time>2018-06-01T08:17:34Z</time>
      </trkpt>
      <trkpt lat="47.94131" lon="-3.47147">
        <ele>24.9</ele>
        <time>2018-06-01T08:17:42Z</time>
      </trkpt>
      <trkpt lat="47.94136" lon="-3.47143">
        <ele>23.14</ele>
        <time>2018-06-01T08:17:55Z</time>
      </trkpt>
      <trkpt lat="47.94136" lon="-3.4714">
        <ele>23.12</ele>
        <time>2018-06-01T08:17:57Z</time>
      </trkpt>
      <trkpt lat="47.94138" lon="-3.47122">
        <ele>22.32</ele>
        <time>2018-06-01T08:18:10Z</time>
      </trkpt>
      <trkpt lat="47.94144" lon="-3.47113">
        <ele>21.15</ele>
        <time>2018-06-01T08:18:25Z</time>
      </trkpt>
      <trkpt lat="47.94148" lon="-3.47107">
        <ele>21.41</ele>
        <time>2018-06-01T08:18:44Z</time>
      </trkpt>
      <trkpt lat="47.94144" lon="-3.47113">
        <ele>21.69</ele>
        <time>2018-06-01T08:19:05Z</time>
      </trkpt>
      <trkpt lat="47.94142" lon="-3.47117">
        <ele>21.53</ele>
        <time>2018-06-01T08:19:24Z</time>
      </trkpt>
      <trkpt lat="47.94138" lon="-3.47122">
        <ele>21.84</ele>
        <time>2018-06-01T08:19:40Z</time>
      </trkpt>
      <trkpt lat="47.94138" lon="-3.47122">
        <ele>22.05</ele>
        <time>2018-06-01T08:19:52Z</time>
      </trkpt>
      <trkpt lat="47.94135" lon="-3.47142">
        <ele>22.71</ele>
        <time>2018-06-01T08:20:02Z</time>
      </trkpt>
      <trkpt lat="47.94135" lon="-3.47155">
        <ele>23.08</ele>
        <time>2018-06-01T08:20:09Z</time>
      </trkpt>
      <trkpt lat="47.94137" lon="-3.47157">
        <ele>23.1</ele>
        <time>2018-06-01T08:20:11Z</time>
      </trkpt>
      <trkpt lat="47.94142" lon="-3.47159">
        <ele>23.14</ele>
        <time>2018-06-01T08:20:17Z</time>
      </trkpt>
      <trkpt lat="47.94145" lon="-3.47172">
        <ele>23.89</ele>
        <time>2018-06-01T08:20:23Z</time>
      </trkpt>
      <trkpt lat="47.94154" lon="-3.47203">
        <ele>26.13</ele>
        <time>2018-06-01T08:20:38Z</time>
      </trkpt>
      <trkpt lat="47.94169" lon="-3.47257">
        <ele>27.8</ele>
        <time>2018-06-01T08:21:00Z</time>
      </trkpt>
      <trkpt lat="47.94178" lon="-3.47293">
        <ele>30.05</ele>
        <time>2018-06-01T08:21:13Z</time>
      </trkpt>
      <trkpt lat="47.94174" lon="-3.47333">
        <ele>31.31</ele>
        <time>2018-06-01T08:21:34Z</time>
      </trkpt>
      <trkpt lat="47.94169" lon="-3.4735">
        <ele>31.51</ele>
        <time>2018-06-01T08:21:42Z</time>
      </trkpt>
      <trkpt lat="47.94163" lon="-3.47388">
        <ele>32.21</ele>
        <time>2018-06-01T08:21:58Z</time>
      </trkpt>
      <trkpt lat="47.94153" lon="-3.4744">
        <ele>32.98</ele>
        <time>2018-06-01T08:22:19Z</time>
      </trkpt>
      <trkpt lat="47.94151" lon="-3.47464">
        <ele>33.24</ele>
        <time>2018-06-01T08:22:30Z</time>
      </trkpt>
      <trkpt lat="47.94144" lon="-3.47477">
        <ele>33.59</ele>
        <time>2018-06-01T08:22:39Z</time>
      </trkpt>
      <trkpt lat="47.94157" lon="-3.47491">
        <ele>34.18</ele>
        <time>2018-06-01T08:22:52Z</time>
      </trkpt>
      <trkpt lat="47.94169" lon="-3.47504">
        <ele>34.79</ele>
        <time>2018-06-01T08:23:04Z</time>
      </trkpt>
      <trkpt lat="47.9418" lon="-3.47532">
        <ele>34.91</ele>
        <time>2018-06-01T08:23:17Z</time>
      </trkpt>
      <trkpt lat="47.94194" lon="-3.47567">
        <ele>35.21</ele>
        <time>2018-06-01T08:23:29Z</time>
      </trkpt>
      <trkpt lat="47.94197" lon="-3.47572">
        <ele>35.32</ele>
        <time>2018-06-01T08:23:31Z</time>
      </trkpt>
      <trkpt lat="47.942" lon="-3.47585">
        <ele>35.46</ele>
        <time>2018-06-01T08:23:36Z</time>
      </trkpt>
      <trkpt lat="47.94206" lon="-3.47615">
        <ele>35.66</ele>
        <time>2018-06-01T08:23:51Z</time>
      </trkpt>
      <trkpt lat="47.94211" lon="-3.47628">
        <ele>36.28</ele>
        <time>2018-06-01T08:23:57Z</time>
      </trkpt>
      <trkpt lat="47.94212" lon="-3.47633">
        <ele>36.51</ele>
        <time>2018-06-01T08:23:59Z</time>
      </trkpt>
      <trkpt lat="47.94225" lon="-3.47649">
        <ele>37.13</ele>
        <time>2018-06-01T08:24:08Z</time>
      </trkpt>
      <trkpt lat="47.94236" lon="-3.47662">
        <ele>37.56</ele>
        <time>2018-06-01T08:24:13Z</time>
      </trkpt>
      <trkpt lat="47.94251" lon="-3.47717">
        <ele>39.38</ele>
        <time>2018-06-01T08:24:24Z</time>
      </trkpt>
      <trkpt lat="47.9426" lon="-3.47765">
        <ele>40.28</ele>
        <time>2018-06-01T08:24:33Z</time>
      </trkpt>
      <trkpt lat="47.94266" lon="-3.47779">
        <ele>42.5</ele>
        <time>2018-06-01T08:24:42Z</time>
      </trkpt>
      <trkpt lat="47.94269" lon="-3.4777">
        <ele>44.39</ele>
        <time>2018-06-01T08:24:53Z</time>
      </trkpt>
      <trkpt lat="47.9427" lon="-3.47742">
        <ele>46.42</ele>
        <time>2018-06-01T08:25:09Z</time>
      </trkpt>
      <trkpt lat="47.9427" lon="-3.47737">
        <ele>46.66</ele>
        <time>2018-06-01T08:25:12Z</time>
      </trkpt>
      <trkpt lat="47.94274" lon="-3.4771">
        <ele>47.88</ele>
        <time>2018-06-01T08:25:28Z</time>
      </trkpt>
      <trkpt lat="47.94275" lon="-3.47681">
        <ele>49.14</ele>
        <time>2018-06-01T08:25:44Z</time>
      </trkpt>
      <trkpt lat="47.94277" lon="-3.47648">
        <ele>50.99</ele>
        <time>2018-06-01T08:26:03Z</time>
      </trkpt>
      <trkpt lat="47.94277" lon="-3.47619">
        <ele>54.09</ele>
        <time>2018-06-01T08:26:21Z</time>
      </trkpt>
      <trkpt lat="47.94273" lon="-3.47587">
        <ele>57.1</ele>
        <time>2018-06-01T08:26:36Z</time>
      </trkpt>
      <trkpt lat="47.94278" lon="-3.47545">
        <ele>59.98</ele>
        <time>2018-06-01T08:26:56Z</time>
      </trkpt>
      <trkpt lat="47.94278" lon="-3.47543">
        <ele>60.1</ele>
        <time>2018-06-01T08:26:57Z</time>
      </trkpt>
      <trkpt lat="47.94278" lon="-3.47533">
        <ele>60.64</ele>
        <time>2018-06-01T08:27:00Z</time>
      </trkpt>
      <trkpt lat="47.94283" lon="-3.47515">
        <ele>63.28</ele>
        <time>2018-06-01T08:27:12Z</time>
      </trkpt>
      <trkpt lat="47.94303" lon="-3.47513">
        <ele>65.78</ele>
        <time>2018-06-01T08:27:26Z</time>
      </trkpt>
      <trkpt lat="47.94317" lon="-3.47504">
        <ele>68.78</ele>
        <time>2018-06-01T08:27:41Z</time>
      </trkpt>
      <trkpt lat="47.94318" lon="-3.47501">
        <ele>69.11</ele>
        <time>2018-06-01T08:27:43Z</time>
      </trkpt>
      <trkpt lat="47.94326" lon="-3.47474">
        <ele>70.81</ele>
        <time>2018-06-01T08:28:00Z</time>
      </trkpt>
      <trkpt lat="47.94334" lon="-3.47432">
        <ele>72.45</ele>
        <time>2018-06-01T08:28:22Z</time>
      </trkpt>
      <trkpt lat="47.94336" lon="-3.47429">
        <ele>72.5</ele>
        <time>2018-06-01T08:28:24Z</time>
      </trkpt>
      <trkpt lat="47.94343" lon="-3.47394">
        <ele>73.54</ele>
        <time>2018-06-01T08:28:38Z</time>
      </trkpt>
      <trkpt lat="47.9435" lon="-3.4736">
        <ele>75.16</ele>
        <time>2018-06-01T08:28:55Z</time>
      </trkpt>
      <trkpt lat="47.94364" lon="-3.47329">
        <ele>78</ele>
        <time>2018-06-01T08:29:13Z</time>
      </trkpt>
      <trkpt lat="47.94386" lon="-3.47307">
        <ele>80.5</ele>
        <time>2018-06-01T08:29:35Z</time>
      </trkpt>
      <trkpt lat="47.94412" lon="-3.47299">
        <ele>82.92</ele>
        <time>2018-06-01T08:29:53Z</time>
      </trkpt>
      <trkpt lat="47.94417" lon="-3.47291">
        <ele>83.11</ele>
        <time>2018-06-01T08:29:57Z</time>
      </trkpt>
      <trkpt lat="47.94422" lon="-3.47274">
        <ele>82.7</ele>
        <time>2018-06-01T08:30:04Z</time>
      </trkpt>
      <trkpt lat="47.94428" lon="-3.4726">
        <ele>81.93</ele>
        <time>2018-06-01T08:30:10Z</time>
      </trkpt>
      <trkpt lat="47.94434" lon="-3.47234">
        <ele>80.31</ele>
        <time>2018-06-01T08:30:22Z</time>
      </trkpt>
      <trkpt lat="47.94445" lon="-3.47204">
        <ele>78.44</ele>
        <time>2018-06-01T08:30:37Z</time>
      </trkpt>
      <trkpt lat="47.94447" lon="-3.47198">
        <ele>78.29</ele>
        <time>2018-06-01T08:30:39Z</time>
      </trkpt>
      <trkpt lat="47.94461" lon="-3.47178">
        <ele>77.8</ele>
        <time>2018-06-01T08:30:53Z</time>
      </trkpt>
      <trkpt lat="47.94467" lon="-3.47166">
        <ele>77.7</ele>
        <time>2018-06-01T08:31:01Z</time>
      </trkpt>
      <trkpt lat="47.94478" lon="-3.47154">
        <ele>77.13</ele>
        <time>2018-06-01T08:31:12Z</time>
      </trkpt>
      <trkpt lat="47.94477" lon="-3.4715">
        <ele>76.76</ele>
        <time>2018-06-01T08:31:15Z</time>
      </trkpt>
      <trkpt lat="47.94486" lon="-3.47138">
        <ele>73.6</ele>
        <time>2018-06-01T08:31:28Z</time>
      </trkpt>
      <trkpt lat="47.94503" lon="-3.47127">
        <ele>70.65</ele>
        <time>2018-06-01T08:31:47Z</time>
      </trkpt>
      <trkpt lat="47.94513" lon="-3.47112">
        <ele>67.46</ele>
        <time>2018-06-01T08:32:02Z</time>
      </trkpt>
      <trkpt lat="47.94534" lon="-3.47097">
        <ele>65.44</ele>
        <time>2018-06-01T08:32:21Z</time>
      </trkpt>
      <trkpt lat="47.94533" lon="-3.47078">
        <ele>62.57</ele>
        <time>2018-06-01T08:32:38Z</time>
      </trkpt>
      <trkpt lat="47.94528" lon="-3.47074">
        <ele>59.95</ele>
        <time>2018-06-01T08:32:49Z</time>
      </trkpt>
      <trkpt lat="47.94527" lon="-3.47075">
        <ele>58.93</ele>
        <time>2018-06-01T08:33:06Z</time>
      </trkpt>
      <trkpt lat="47.94523" lon="-3.47068">
        <ele>59.24</ele>
        <time>2018-06-01T08:33:30Z</time>
      </trkpt>
      <trkpt lat="47.9452" lon="-3.47053">
        <ele>57.92</ele>
        <time>2018-06-01T08:33:50Z</time>
      </trkpt>
      <trkpt lat="47.94515" lon="-3.47046">
        <ele>54.78</ele>
        <time>2018-06-01T08:34:03Z</time>
      </trkpt>
      <trkpt lat="47.94516" lon="-3.47041">
        <ele>54.1</ele>
        <time>2018-06-01T08:34:25Z</time>
      </trkpt>
      <trkpt lat="47.94521" lon="-3.47039">
        <ele>54.69</ele>
        <time>2018-06-01T08:34:34Z</time>
      </trkpt>
      <trkpt lat="47.94527" lon="-3.47031">
        <ele>53.57</ele>
        <time>2018-06-01T08:34:42Z</time>
      </trkpt>
      <trkpt lat="47.94532" lon="-3.47019">
        <ele>51.82</ele>
        <time>2018-06-01T08:34:50Z</time>
      </trkpt>
      <trkpt lat="47.94536" lon="-3.47004">
        <ele>48.55</ele>
        <time>2018-06-01T08:35:03Z</time>
      </trkpt>
      <trkpt lat="47.94535" lon="-3.46999">
        <ele>47.66</ele>
        <time>2018-06-01T08:35:06Z</time>
      </trkpt>
      <trkpt lat="47.94529" lon="-3.46972">
        <ele>44.3</ele>
        <time>2018-06-01T08:35:19Z</time>
      </trkpt>
      <trkpt lat="47.94527" lon="-3.46963">
        <ele>42.99</ele>
        <time>2018-06-01T08:35:30Z</time>
      </trkpt>
      <trkpt lat="47.94522" lon="-3.46957">
        <ele>42.25</ele>
        <time>2018-06-01T08:35:51Z</time>
      </trkpt>
      <trkpt lat="47.94523" lon="-3.46957">
        <ele>42.92</ele>
        <time>2018-06-01T08:36:11Z</time>
      </trkpt>
      <trkpt lat="47.94523" lon="-3.46954">
        <ele>42.89</ele>
        <time>2018-06-01T08:36:31Z</time>
      </trkpt>
      <trkpt lat="47.94525" lon="-3.46957">
        <ele>42.73</ele>
        <time>2018-06-01T08:36:47Z</time>
      </trkpt>
      <trkpt lat="47.94526" lon="-3.4696">
        <ele>42.66</ele>
        <time>2018-06-01T08:37:01Z</time>
      </trkpt>
      <trkpt lat="47.94523" lon="-3.46955">
        <ele>42.42</ele>
        <time>2018-06-01T08:37:20Z</time>
      </trkpt>
      <trkpt lat="47.94527" lon="-3.46954">
        <ele>42.17</ele>
        <time>2018-06-01T08:37:52Z</time>
      </trkpt>
      <trkpt lat="47.94526" lon="-3.46952">
        <ele>42.18</ele>
        <time>2018-06-01T08:38:12Z</time>
      </trkpt>
      <trkpt lat="47.94526" lon="-3.46958">
        <ele>42.59</ele>
        <time>2018-06-01T08:38:43Z</time>
      </trkpt>
      <trkpt lat="47.94529" lon="-3.46975">
        <ele>44.17</ele>
        <time>2018-06-01T08:39:00Z</time>
      </trkpt>
      <trkpt lat="47.94536" lon="-3.46994">
        <ele>47.18</ele>
        <time>2018-06-01T08:39:13Z</time>
      </trkpt>
      <trkpt lat="47.94539" lon="-3.47014">
        <ele>50.19</ele>
        <time>2018-06-01T08:39:27Z</time>
      </trkpt>
      <trkpt lat="47.94527" lon="-3.47042">
        <ele>53.34</ele>
        <time>2018-06-01T08:39:43Z</time>
      </trkpt>
      <trkpt lat="47.94526" lon="-3.47055">
        <ele>56.58</ele>
        <time>2018-06-01T08:39:56Z</time>
      </trkpt>
      <trkpt lat="47.94528" lon="-3.47057">
        <ele>58.8</ele>
        <time>2018-06-01T08:40:06Z</time>
      </trkpt>
      <trkpt lat="47.94525" lon="-3.47061">
        <ele>59.47</ele>
        <time>2018-06-01T08:40:13Z</time>
      </trkpt>
      <trkpt lat="47.94522" lon="-3.47068">
        <ele>59.44</ele>
        <time>2018-06-01T08:40:39Z</time>
      </trkpt>
      <trkpt lat="47.94524" lon="-3.47066">
        <ele>60.59</ele>
        <time>2018-06-01T08:41:02Z</time>
      </trkpt>
      <trkpt lat="47.94525" lon="-3.47071">
        <ele>63.81</ele>
        <time>2018-06-01T08:41:23Z</time>
      </trkpt>
      <trkpt lat="47.94521" lon="-3.47084">
        <ele>67.07</ele>
        <time>2018-06-01T08:41:40Z</time>
      </trkpt>
      <trkpt lat="47.94514" lon="-3.47097">
        <ele>70.23</ele>
        <time>2018-06-01T08:41:50Z</time>
      </trkpt>
      <trkpt lat="47.94499" lon="-3.47119">
        <ele>73.35</ele>
        <time>2018-06-01T08:42:07Z</time>
      </trkpt>
      <trkpt lat="47.94485" lon="-3.4714">
        <ele>76.38</ele>
        <time>2018-06-01T08:42:23Z</time>
      </trkpt>
      <trkpt lat="47.94483" lon="-3.47142">
        <ele>76.79</ele>
        <time>2018-06-01T08:42:27Z</time>
      </trkpt>
      <trkpt lat="47.94473" lon="-3.47154">
        <ele>76.97</ele>
        <time>2018-06-01T08:42:50Z</time>
      </trkpt>
      <trkpt lat="47.94466" lon="-3.47168">
        <ele>76.92</ele>
        <time>2018-06-01T08:42:59Z</time>
      </trkpt>
      <trkpt lat="47.9446" lon="-3.47185">
        <ele>77.12</ele>
        <time>2018-06-01T08:43:06Z</time>
      </trkpt>
      <trkpt lat="47.94453" lon="-3.47199">
        <ele>77.65</ele>
        <time>2018-06-01T08:43:14Z</time>
      </trkpt>
      <trkpt lat="47.9445" lon="-3.47204">
        <ele>77.92</ele>
        <time>2018-06-01T08:43:17Z</time>
      </trkpt>
      <trkpt lat="47.94445" lon="-3.4722">
        <ele>78.68</ele>
        <time>2018-06-01T08:43:25Z</time>
      </trkpt>
      <trkpt lat="47.9444" lon="-3.4723">
        <ele>79.14</ele>
        <time>2018-06-01T08:43:30Z</time>
      </trkpt>
      <trkpt lat="47.94437" lon="-3.47234">
        <ele>79.39</ele>
        <time>2018-06-01T08:43:33Z</time>
      </trkpt>
      <trkpt lat="47.94435" lon="-3.47257">
        <ele>80.54</ele>
        <time>2018-06-01T08:43:43Z</time>
      </trkpt>
      <trkpt lat="47.94435" lon="-3.47273">
        <ele>81.2</ele>
        <time>2018-06-01T08:43:49Z</time>
      </trkpt>
      <trkpt lat="47.94416" lon="-3.47289">
        <ele>81.58</ele>
        <time>2018-06-01T08:44:02Z</time>
      </trkpt>
      <trkpt lat="47.944" lon="-3.47297">
        <ele>80.71</ele>
        <time>2018-06-01T08:44:14Z</time>
      </trkpt>
      <trkpt lat="47.94389" lon="-3.47314">
        <ele>79.53</ele>
        <time>2018-06-01T08:44:24Z</time>
      </trkpt>
      <trkpt lat="47.94388" lon="-3.47319">
        <ele>79.44</ele>
        <time>2018-06-01T08:44:26Z</time>
      </trkpt>
      <trkpt lat="47.94389" lon="-3.47369">
        <ele>79.82</ele>
        <time>2018-06-01T08:44:42Z</time>
      </trkpt>
      <trkpt lat="47.94386" lon="-3.47406">
        <ele>80.31</ele>
        <time>2018-06-01T08:44:55Z</time>
      </trkpt>
      <trkpt lat="47.94383" lon="-3.4743">
        <ele>80.86</ele>
        <time>2018-06-01T08:45:07Z</time>
      </trkpt>
      <trkpt lat="47.94387" lon="-3.47438">
        <ele>80.36</ele>
        <time>2018-06-01T08:45:23Z</time>
      </trkpt>
      <trkpt lat="47.94387" lon="-3.47443">
        <ele>80.49</ele>
        <time>2018-06-01T08:45:41Z</time>
      </trkpt>
      <trkpt lat="47.94387" lon="-3.47444">
        <ele>80.81</ele>
        <time>2018-06-01T08:45:46Z</time>
      </trkpt>
      <trkpt lat="47.94381" lon="-3.47459">
        <ele>81.2</ele>
        <time>2018-06-01T08:45:54Z</time>
      </trkpt>
      <trkpt lat="47.94375" lon="-3.47487">
        <ele>81.35</ele>
        <time>2018-06-01T08:46:09Z</time>
      </trkpt>
      <trkpt lat="47.94385" lon="-3.47503">
        <ele>83.19</ele>
        <time>2018-06-01T08:46:19Z</time>
      </trkpt>
      <trkpt lat="47.94389" lon="-3.47508">
        <ele>84.06</ele>
        <time>2018-06-01T08:46:25Z</time>
      </trkpt>
      <trkpt lat="47.94389" lon="-3.47515">
        <ele>84.25</ele>
        <time>2018-06-01T08:46:29Z</time>
      </trkpt>
      <trkpt lat="47.94385" lon="-3.4753">
        <ele>83.82</ele>
        <time>2018-06-01T08:46:36Z</time>
      </trkpt>
      <trkpt lat="47.94382" lon="-3.47563">
        <ele>81.67</ele>
        <time>2018-06-01T08:46:50Z</time>
      </trkpt>
      <trkpt lat="47.94381" lon="-3.47569">
        <ele>81.2</ele>
        <time>2018-06-01T08:46:53Z</time>
      </trkpt>
      <trkpt lat="47.94381" lon="-3.47579">
        <ele>80.34</ele>
        <time>2018-06-01T08:46:58Z</time>
      </trkpt>
      <trkpt lat="47.94383" lon="-3.47614">
        <ele>78.55</ele>
        <time>2018-06-01T08:47:11Z</time>
      </trkpt>
      <trkpt lat="47.94387" lon="-3.47641">
        <ele>76.93</ele>
        <time>2018-06-01T08:47:22Z</time>
      </trkpt>
      <trkpt lat="47.94386" lon="-3.47662">
        <ele>75.85</ele>
        <time>2018-06-01T08:47:30Z</time>
      </trkpt>
      <trkpt lat="47.94384" lon="-3.47685">
        <ele>74.12</ele>
        <time>2018-06-01T08:47:38Z</time>
      </trkpt>
      <trkpt lat="47.94382" lon="-3.47714">
        <ele>71.12</ele>
        <time>2018-06-01T08:47:51Z</time>
      </trkpt>
      <trkpt lat="47.94382" lon="-3.47719">
        <ele>70.67</ele>
        <time>2018-06-01T08:47:53Z</time>
      </trkpt>
      <trkpt lat="47.94385" lon="-3.47726">
        <ele>70.09</ele>
        <time>2018-06-01T08:47:56Z</time>
      </trkpt>
      <trkpt lat="47.9438" lon="-3.47752">
        <ele>68.29</ele>
        <time>2018-06-01T08:48:08Z</time>
      </trkpt>
      <trkpt lat="47.94377" lon="-3.47788">
        <ele>67.08</ele>
        <time>2018-06-01T08:48:21Z</time>
      </trkpt>
      <trkpt lat="47.94374" lon="-3.4782">
        <ele>65.78</ele>
        <time>2018-06-01T08:48:34Z</time>
      </trkpt>
      <trkpt lat="47.94372" lon="-3.47833">
        <ele>65</ele>
        <time>2018-06-01T08:48:40Z</time>
      </trkpt>
      <trkpt lat="47.94373" lon="-3.47845">
        <ele>64.77</ele>
        <time>2018-06-01T08:48:44Z</time>
      </trkpt>
      <trkpt lat="47.94375" lon="-3.47863">
        <ele>64.3</ele>
        <time>2018-06-01T08:48:52Z</time>
      </trkpt>
      <trkpt lat="47.94376" lon="-3.47871">
        <ele>64.15</ele>
        <time>2018-06-01T08:48:56Z</time>
      </trkpt>
      <trkpt lat="47.94368" lon="-3.47913">
        <ele>61.6</ele>
        <time>2018-06-01T08:49:13Z</time>
      </trkpt>
      <trkpt lat="47.94354" lon="-3.47939">
        <ele>58.98</ele>
        <time>2018-06-01T08:49:26Z</time>
      </trkpt>
      <trkpt lat="47.94352" lon="-3.4794">
        <ele>58.8</ele>
        <time>2018-06-01T08:49:27Z</time>
      </trkpt>
      <trkpt lat="47.94346" lon="-3.47949">
        <ele>57.93</ele>
        <time>2018-06-01T08:49:32Z</time>
      </trkpt>
      <trkpt lat="47.94331" lon="-3.47977">
        <ele>55.84</ele>
        <time>2018-06-01T08:49:46Z</time>
      </trkpt>
      <trkpt lat="47.94329" lon="-3.47981">
        <ele>55.64</ele>
        <time>2018-06-01T08:49:48Z</time>
      </trkpt>
      <trkpt lat="47.94328" lon="-3.47986">
        <ele>55.3</ele>
        <time>2018-06-01T08:49:50Z</time>
      </trkpt>
      <trkpt lat="47.94329" lon="-3.47989">
        <ele>55.09</ele>
        <time>2018-06-01T08:49:51Z</time>
      </trkpt>
      <trkpt lat="47.94327" lon="-3.48012">
        <ele>54.83</ele>
        <time>2018-06-01T08:50:01Z</time>
      </trkpt>
      <trkpt lat="47.94326" lon="-3.48014">
        <ele>54.93</ele>
        <time>2018-06-01T08:50:02Z</time>
      </trkpt>
      <trkpt lat="47.94325" lon="-3.48016">
        <ele>55.04</ele>
        <time>2018-06-01T08:50:03Z</time>
      </trkpt>
      <trkpt lat="47.94324" lon="-3.48022">
        <ele>55.49</ele>
        <time>2018-06-01T08:50:06Z</time>
      </trkpt>
      <trkpt lat="47.94326" lon="-3.4803">
        <ele>56.47</ele>
        <time>2018-06-01T08:50:12Z</time>
      </trkpt>
      <trkpt lat="47.94326" lon="-3.48032">
        <ele>56.64</ele>
        <time>2018-06-01T08:50:13Z</time>
      </trkpt>
      <trkpt lat="47.94328" lon="-3.48045">
        <ele>57.82</ele>
        <time>2018-06-01T08:50:21Z</time>
      </trkpt>
      <trkpt lat="47.94328" lon="-3.48051">
        <ele>58.27</ele>
        <time>2018-06-01T08:50:24Z</time>
      </trkpt>
      <trkpt lat="47.94327" lon="-3.48057">
        <ele>58.69</ele>
        <time>2018-06-01T08:50:27Z</time>
      </trkpt>
      <trkpt lat="47.9433" lon="-3.48068">
        <ele>59.65</ele>
        <time>2018-06-01T08:50:31Z</time>
      </trkpt>
      <trkpt lat="47.94329" lon="-3.48077">
        <ele>60.38</ele>
        <time>2018-06-01T08:50:34Z</time>
      </trkpt>
      <trkpt lat="47.94336" lon="-3.48098">
        <ele>63.77</ele>
        <time>2018-06-01T08:50:45Z</time>
      </trkpt>
      <trkpt lat="47.94346" lon="-3.48119">
        <ele>66.81</ele>
        <time>2018-06-01T08:50:58Z</time>
      </trkpt>
      <trkpt lat="47.94358" lon="-3.4814">
        <ele>69.84</ele>
        <time>2018-06-01T08:51:14Z</time>
      </trkpt>
      <trkpt lat="47.9437" lon="-3.48156">
        <ele>73</ele>
        <time>2018-06-01T08:51:32Z</time>
      </trkpt>
      <trkpt lat="47.94374" lon="-3.48165">
        <ele>74.4</ele>
        <time>2018-06-01T08:51:39Z</time>
      </trkpt>
      <trkpt lat="47.94381" lon="-3.48176">
        <ele>75.79</ele>
        <time>2018-06-01T08:51:46Z</time>
      </trkpt>
      <trkpt lat="47.94387" lon="-3.48198">
        <ele>77.14</ele>
        <time>2018-06-01T08:51:55Z</time>
      </trkpt>
      <trkpt lat="47.94399" lon="-3.4823">
        <ele>79.87</ele>
        <time>2018-06-01T08:52:15Z</time>
      </trkpt>
      <trkpt lat="47.94407" lon="-3.48259">
        <ele>83.01</ele>
        <time>2018-06-01T08:52:32Z</time>
      </trkpt>
      <trkpt lat="47.94413" lon="-3.48288">
        <ele>86.13</ele>
        <time>2018-06-01T08:52:48Z</time>
      </trkpt>
      <trkpt lat="47.94422" lon="-3.48314">
        <ele>88.68</ele>
        <time>2018-06-01T08:53:01Z</time>
      </trkpt>
      <trkpt lat="47.94424" lon="-3.48318">
        <ele>88.97</ele>
        <time>2018-06-01T08:53:03Z</time>
      </trkpt>
      <trkpt lat="47.94437" lon="-3.4834">
        <ele>90.82</ele>
        <time>2018-06-01T08:53:15Z</time>
      </trkpt>
      <trkpt lat="47.94438" lon="-3.48342">
        <ele>91.13</ele>
        <time>2018-06-01T08:53:17Z</time>
      </trkpt>
      <trkpt lat="47.94443" lon="-3.48349">
        <ele>91.82</ele>
        <time>2018-06-01T08:53:22Z</time>
      </trkpt>
      <trkpt lat="47.9445" lon="-3.48359">
        <ele>92.79</ele>
        <time>2018-06-01T08:53:28Z</time>
      </trkpt>
      <trkpt lat="47.94457" lon="-3.48366">
        <ele>93.63</ele>
        <time>2018-06-01T08:53:34Z</time>
      </trkpt>
      <trkpt lat="47.9446" lon="-3.48371">
        <ele>93.97</ele>
        <time>2018-06-01T08:53:37Z</time>
      </trkpt>
      <trkpt lat="47.9447" lon="-3.48391">
        <ele>95.5</ele>
        <time>2018-06-01T08:53:50Z</time>
      </trkpt>
      <trkpt lat="47.9448" lon="-3.4841">
        <ele>96.77</ele>
        <time>2018-06-01T08:54:01Z</time>
      </trkpt>
      <trkpt lat="47.94492" lon="-3.48433">
        <ele>97.83</ele>
        <time>2018-06-01T08:54:15Z</time>
      </trkpt>
      <trkpt lat="47.94493" lon="-3.48438">
        <ele>98.04</ele>
        <time>2018-06-01T08:54:18Z</time>
      </trkpt>
      <trkpt lat="47.94503" lon="-3.48456">
        <ele>99.45</ele>
        <time>2018-06-01T08:54:32Z</time>
      </trkpt>
      <trkpt lat="47.94508" lon="-3.48464">
        <ele>100.65</ele>
        <time>2018-06-01T08:54:39Z</time>
      </trkpt>
      <trkpt lat="47.94524" lon="-3.48482">
        <ele>102.67</ele>
        <time>2018-06-01T08:54:55Z</time>
      </trkpt>
      <trkpt lat="47.94537" lon="-3.48493">
        <ele>103.65</ele>
        <time>2018-06-01T08:55:06Z</time>
      </trkpt>
      <trkpt lat="47.94545" lon="-3.485">
        <ele>104</ele>
        <time>2018-06-01T08:55:12Z</time>
      </trkpt>
      <trkpt lat="47.94567" lon="-3.48519">
        <ele>105.24</ele>
        <time>2018-06-01T08:55:28Z</time>
      </trkpt>
      <trkpt lat="47.94571" lon="-3.48526">
        <ele>105.43</ele>
        <time>2018-06-01T08:55:32Z</time>
      </trkpt>
      <trkpt lat="47.94574" lon="-3.48532">
        <ele>105.62</ele>
        <time>2018-06-01T08:55:36Z</time>
      </trkpt>
      <trkpt lat="47.94577" lon="-3.48535">
        <ele>105.73</ele>
        <time>2018-06-01T08:55:39Z</time>
      </trkpt>
      <trkpt lat="47.94608" lon="-3.48525">
        <ele>106.63</ele>
        <time>2018-06-01T08:55:53Z</time>
      </trkpt>
      <trkpt lat="47.94635" lon="-3.48512">
        <ele>107.03</ele>
        <time>2018-06-01T08:56:03Z</time>
      </trkpt>
      <trkpt lat="47.9467" lon="-3.48499">
        <ele>107.1</ele>
        <time>2018-06-01T08:56:15Z</time>
      </trkpt>
      <trkpt lat="47.94701" lon="-3.48486">
        <ele>107.42</ele>
        <time>2018-06-01T08:56:26Z</time>
      </trkpt>
      <trkpt lat="47.94734" lon="-3.48469">
        <ele>107.32</ele>
        <time>2018-06-01T08:56:36Z</time>
      </trkpt>
      <trkpt lat="47.94772" lon="-3.48462">
        <ele>107.27</ele>
        <time>2018-06-01T08:56:46Z</time>
      </trkpt>
      <trkpt lat="47.94813" lon="-3.48457">
        <ele>108.41</ele>
        <time>2018-06-01T08:56:57Z</time>
      </trkpt>
      <trkpt lat="47.94865" lon="-3.48465">
        <ele>110.33</ele>
        <time>2018-06-01T08:57:10Z</time>
      </trkpt>
      <trkpt lat="47.94903" lon="-3.48475">
        <ele>111.44</ele>
        <time>2018-06-01T08:57:22Z</time>
      </trkpt>
      <trkpt lat="47.94935" lon="-3.48489">
        <ele>112.16</ele>
        <time>2018-06-01T08:57:37Z</time>
      </trkpt>
      <trkpt lat="47.94959" lon="-3.48517">
        <ele>112.6</ele>
        <time>2018-06-01T08:57:55Z</time>
      </trkpt>
      <trkpt lat="47.94982" lon="-3.48541">
        <ele>112.65</ele>
        <time>2018-06-01T08:58:13Z</time>
      </trkpt>
      <trkpt lat="47.95001" lon="-3.48563">
        <ele>112.67</ele>
        <time>2018-06-01T08:58:29Z</time>
      </trkpt>
      <trkpt lat="47.95026" lon="-3.48591">
        <ele>112.88</ele>
        <time>2018-06-01T08:58:47Z</time>
      </trkpt>
      <trkpt lat="47.95056" lon="-3.48615">
        <ele>112.89</ele>
        <time>2018-06-01T08:59:08Z</time>
      </trkpt>
      <trkpt lat="47.95085" lon="-3.48637">
        <ele>112.81</ele>
        <time>2018-06-01T08:59:27Z</time>
      </trkpt>
      <trkpt lat="47.95113" lon="-3.48663">
        <ele>111.86</ele>
        <time>2018-06-01T08:59:45Z</time>
      </trkpt>
      <trkpt lat="47.95138" lon="-3.48685">
        <ele>110.39</ele>
        <time>2018-06-01T09:00:02Z</time>
      </trkpt>
      <trkpt lat="47.95161" lon="-3.48704">
        <ele>109.02</ele>
        <time>2018-06-01T09:00:18Z</time>
      </trkpt>
      <trkpt lat="47.95182" lon="-3.48738">
        <ele>108.43</ele>
        <time>2018-06-01T09:00:36Z</time>
      </trkpt>
      <trkpt lat="47.95188" lon="-3.48775">
        <ele>108.83</ele>
        <time>2018-06-01T09:00:52Z</time>
      </trkpt>
      <trkpt lat="47.95196" lon="-3.48809">
        <ele>109.64</ele>
        <time>2018-06-01T09:01:02Z</time>
      </trkpt>
      <trkpt lat="47.95214" lon="-3.48853">
        <ele>110.96</ele>
        <time>2018-06-01T09:01:13Z</time>
      </trkpt>
      <trkpt lat="47.95237" lon="-3.48881">
        <ele>112.16</ele>
        <time>2018-06-01T09:01:23Z</time>
      </trkpt>
      <trkpt lat="47.95246" lon="-3.4889">
        <ele>112.88</ele>
        <time>2018-06-01T09:01:27Z</time>
      </trkpt>
      <trkpt lat="47.95247" lon="-3.48892">
        <ele>113.03</ele>
        <time>2018-06-01T09:01:28Z</time>
      </trkpt>
      <trkpt lat="47.95258" lon="-3.489">
        <ele>113.73</ele>
        <time>2018-06-01T09:01:32Z</time>
      </trkpt>
      <trkpt lat="47.9526" lon="-3.48903">
        <ele>113.92</ele>
        <time>2018-06-01T09:01:33Z</time>
      </trkpt>
      <trkpt lat="47.95263" lon="-3.48906">
        <ele>114.17</ele>
        <time>2018-06-01T09:01:34Z</time>
      </trkpt>
      <trkpt lat="47.95294" lon="-3.48926">
        <ele>116.63</ele>
        <time>2018-06-01T09:01:45Z</time>
      </trkpt>
      <trkpt lat="47.95318" lon="-3.48956">
        <ele>118.07</ele>
        <time>2018-06-01T09:01:54Z</time>
      </trkpt>
      <trkpt lat="47.95346" lon="-3.48979">
        <ele>119.67</ele>
        <time>2018-06-01T09:02:04Z</time>
      </trkpt>
      <trkpt lat="47.95369" lon="-3.49011">
        <ele>121.01</ele>
        <time>2018-06-01T09:02:13Z</time>
      </trkpt>
      <trkpt lat="47.95386" lon="-3.49051">
        <ele>121.43</ele>
        <time>2018-06-01T09:02:23Z</time>
      </trkpt>
      <trkpt lat="47.95401" lon="-3.49098">
        <ele>120.85</ele>
        <time>2018-06-01T09:02:34Z</time>
      </trkpt>
      <trkpt lat="47.95407" lon="-3.49136">
        <ele>119.47</ele>
        <time>2018-06-01T09:02:44Z</time>
      </trkpt>
      <trkpt lat="47.95399" lon="-3.49187">
        <ele>118.04</ele>
        <time>2018-06-01T09:02:56Z</time>
      </trkpt>
      <trkpt lat="47.95392" lon="-3.49222">
        <ele>118.15</ele>
        <time>2018-06-01T09:03:03Z</time>
      </trkpt>
      <trkpt lat="47.95389" lon="-3.49239">
        <ele>118.3</ele>
        <time>2018-06-01T09:03:07Z</time>
      </trkpt>
      <trkpt lat="47.95376" lon="-3.49292">
        <ele>119.55</ele>
        <time>2018-06-01T09:03:20Z</time>
      </trkpt>
      <trkpt lat="47.95381" lon="-3.49311">
        <ele>120.31</ele>
        <time>2018-06-01T09:03:25Z</time>
      </trkpt>
      <trkpt lat="47.95367" lon="-3.49349">
        <ele>121.75</ele>
        <time>2018-06-01T09:03:35Z</time>
      </trkpt>
      <trkpt lat="47.95365" lon="-3.49353">
        <ele>122.12</ele>
        <time>2018-06-01T09:03:37Z</time>
      </trkpt>
      <trkpt lat="47.95349" lon="-3.49394">
        <ele>124.19</ele>
        <time>2018-06-01T09:03:47Z</time>
      </trkpt>
      <trkpt lat="47.95338" lon="-3.49437">
        <ele>124.86</ele>
        <time>2018-06-01T09:03:57Z</time>
      </trkpt>
      <trkpt lat="47.95326" lon="-3.49497">
        <ele>124.36</ele>
        <time>2018-06-01T09:04:10Z</time>
      </trkpt>
      <trkpt lat="47.95311" lon="-3.49547">
        <ele>123.29</ele>
        <time>2018-06-01T09:04:21Z</time>
      </trkpt>
      <trkpt lat="47.953" lon="-3.49594">
        <ele>122.97</ele>
        <time>2018-06-01T09:04:33Z</time>
      </trkpt>
      <trkpt lat="47.953" lon="-3.49597">
        <ele>122.99</ele>
        <time>2018-06-01T09:04:34Z</time>
      </trkpt>
      <trkpt lat="47.95311" lon="-3.49612">
        <ele>122.78</ele>
        <time>2018-06-01T09:04:46Z</time>
      </trkpt>
      <trkpt lat="47.95316" lon="-3.49612">
        <ele>122.36</ele>
        <time>2018-06-01T09:04:52Z</time>
      </trkpt>
      <trkpt lat="47.95321" lon="-3.49613">
        <ele>122</ele>
        <time>2018-06-01T09:04:56Z</time>
      </trkpt>
      <trkpt lat="47.95327" lon="-3.49613">
        <ele>121.68</ele>
        <time>2018-06-01T09:05:03Z</time>
      </trkpt>
      <trkpt lat="47.9533" lon="-3.49611">
        <ele>121.66</ele>
        <time>2018-06-01T09:05:05Z</time>
      </trkpt>
      <trkpt lat="47.95346" lon="-3.49604">
        <ele>121.01</ele>
        <time>2018-06-01T09:05:18Z</time>
      </trkpt>
      <trkpt lat="47.95366" lon="-3.49593">
        <ele>120.68</ele>
        <time>2018-06-01T09:05:31Z</time>
      </trkpt>
      <trkpt lat="47.95375" lon="-3.49592">
        <ele>120.55</ele>
        <time>2018-06-01T09:05:36Z</time>
      </trkpt>
      <trkpt lat="47.95387" lon="-3.49592">
        <ele>120.2</ele>
        <time>2018-06-01T09:05:47Z</time>
      </trkpt>
      <trkpt lat="47.95401" lon="-3.49591">
        <ele>120</ele>
        <time>2018-06-01T09:05:58Z</time>
      </trkpt>
      <trkpt lat="47.95423" lon="-3.49589">
        <ele>119.51</ele>
        <time>2018-06-01T09:06:12Z</time>
      </trkpt>
      <trkpt lat="47.95446" lon="-3.49598">
        <ele>118.99</ele>
        <time>2018-06-01T09:06:25Z</time>
      </trkpt>
      <trkpt lat="47.95454" lon="-3.49599">
        <ele>118.74</ele>
        <time>2018-06-01T09:06:30Z</time>
      </trkpt>
      <trkpt lat="47.95465" lon="-3.49597">
        <ele>118.45</ele>
        <time>2018-06-01T09:06:40Z</time>
      </trkpt>
      <trkpt lat="47.95483" lon="-3.49592">
        <ele>118</ele>
        <time>2018-06-01T09:06:51Z</time>
      </trkpt>
      <trkpt lat="47.95507" lon="-3.49586">
        <ele>117.79</ele>
        <time>2018-06-01T09:07:07Z</time>
      </trkpt>
      <trkpt lat="47.95526" lon="-3.49581">
        <ele>117.52</ele>
        <time>2018-06-01T09:07:20Z</time>
      </trkpt>
      <trkpt lat="47.95545" lon="-3.49571">
        <ele>117.58</ele>
        <time>2018-06-01T09:07:32Z</time>
      </trkpt>
      <trkpt lat="47.95553" lon="-3.4957">
        <ele>117.68</ele>
        <time>2018-06-01T09:07:36Z</time>
      </trkpt>
      <trkpt lat="47.95572" lon="-3.49565">
        <ele>118.33</ele>
        <time>2018-06-01T09:07:48Z</time>
      </trkpt>
      <trkpt lat="47.95577" lon="-3.49563">
        <ele>118.5</ele>
        <time>2018-06-01T09:07:51Z</time>
      </trkpt>
      <trkpt lat="47.95591" lon="-3.49564">
        <ele>118.99</ele>
        <time>2018-06-01T09:07:59Z</time>
      </trkpt>
      <trkpt lat="47.95611" lon="-3.49572">
        <ele>119.74</ele>
        <time>2018-06-01T09:08:12Z</time>
      </trkpt>
      <trkpt lat="47.95637" lon="-3.49579">
        <ele>120.13</ele>
        <time>2018-06-01T09:08:24Z</time>
      </trkpt>
      <trkpt lat="47.95668" lon="-3.49587">
        <ele>120.29</ele>
        <time>2018-06-01T09:08:35Z</time>
      </trkpt>
      <trkpt lat="47.95694" lon="-3.49594">
        <ele>120.1</ele>
        <time>2018-06-01T09:08:44Z</time>
      </trkpt>
      <trkpt lat="47.95731" lon="-3.49608">
        <ele>119.93</ele>
        <time>2018-06-01T09:08:55Z</time>
      </trkpt>
      <trkpt lat="47.95774" lon="-3.49625">
        <ele>119.47</ele>
        <time>2018-06-01T09:09:08Z</time>
      </trkpt>
      <trkpt lat="47.95813" lon="-3.49637">
        <ele>119.03</ele>
        <time>2018-06-01T09:09:19Z</time>
      </trkpt>
      <trkpt lat="47.95819" lon="-3.4964">
        <ele>118.94</ele>
        <time>2018-06-01T09:09:21Z</time>
      </trkpt>
      <trkpt lat="47.95859" lon="-3.4965">
        <ele>118.63</ele>
        <time>2018-06-01T09:09:32Z</time>
      </trkpt>
      <trkpt lat="47.95902" lon="-3.49661">
        <ele>118.49</ele>
        <time>2018-06-01T09:09:42Z</time>
      </trkpt>
      <trkpt lat="47.9593" lon="-3.4967">
        <ele>118.16</ele>
        <time>2018-06-01T09:09:52Z</time>
      </trkpt>
      <trkpt lat="47.95937" lon="-3.49672">
        <ele>118.47</ele>
        <time>2018-06-01T09:10:00Z</time>
      </trkpt>
      <trkpt lat="47.95938" lon="-3.49672">
        <ele>118.48</ele>
        <time>2018-06-01T09:10:01Z</time>
      </trkpt>
      <trkpt lat="47.9594" lon="-3.49673">
        <ele>118.49</ele>
        <time>2018-06-01T09:10:02Z</time>
      </trkpt>
      <trkpt lat="47.95941" lon="-3.49673">
        <ele>118.48</ele>
        <time>2018-06-01T09:10:03Z</time>
      </trkpt>
      <trkpt lat="47.95942" lon="-3.49672">
        <ele>118.44</ele>
        <time>2018-06-01T09:10:04Z</time>
      </trkpt>
      <trkpt lat="47.95945" lon="-3.49672">
        <ele>118.34</ele>
        <time>2018-06-01T09:10:06Z</time>
      </trkpt>
      <trkpt lat="47.95948" lon="-3.49666">
        <ele>118.03</ele>
        <time>2018-06-01T09:10:19Z</time>
      </trkpt>
      <trkpt lat="47.9595" lon="-3.49668">
        <ele>118.02</ele>
        <time>2018-06-01T09:10:27Z</time>
      </trkpt>
      <trkpt lat="47.95951" lon="-3.49669">
        <ele>118.02</ele>
        <time>2018-06-01T09:10:28Z</time>
      </trkpt>
      <trkpt lat="47.95952" lon="-3.49671">
        <ele>117.99</ele>
        <time>2018-06-01T09:10:29Z</time>
      </trkpt>
      <trkpt lat="47.95953" lon="-3.49672">
        <ele>117.94</ele>
        <time>2018-06-01T09:10:30Z</time>
      </trkpt>
      <trkpt lat="47.95955" lon="-3.49673">
        <ele>117.87</ele>
        <time>2018-06-01T09:10:31Z</time>
      </trkpt>
      <trkpt lat="47.95974" lon="-3.49691">
        <ele>116.06</ele>
        <time>2018-06-01T09:10:46Z</time>
      </trkpt>
      <trkpt lat="47.95996" lon="-3.49702">
        <ele>112.91</ele>
        <time>2018-06-01T09:11:01Z</time>
      </trkpt>
      <trkpt lat="47.96014" lon="-3.49708">
        <ele>111</ele>
        <time>2018-06-01T09:11:14Z</time>
      </trkpt>
      <trkpt lat="47.96043" lon="-3.49731">
        <ele>109.71</ele>
        <time>2018-06-01T09:11:34Z</time>
      </trkpt>
      <trkpt lat="47.96071" lon="-3.49753">
        <ele>109.4</ele>
        <time>2018-06-01T09:11:53Z</time>
      </trkpt>
      <trkpt lat="47.96097" lon="-3.49771">
        <ele>109.41</ele>
        <time>2018-06-01T09:12:12Z</time>
      </trkpt>
      <trkpt lat="47.96129" lon="-3.49781">
        <ele>109.37</ele>
        <time>2018-06-01T09:12:33Z</time>
      </trkpt>
      <trkpt lat="47.96159" lon="-3.49787">
        <ele>110.22</ele>
        <time>2018-06-01T09:12:53Z</time>
      </trkpt>
      <trkpt lat="47.96185" lon="-3.49791">
        <ele>112.28</ele>
        <time>2018-06-01T09:13:11Z</time>
      </trkpt>
      <trkpt lat="47.96202" lon="-3.49794">
        <ele>113.79</ele>
        <time>2018-06-01T09:13:25Z</time>
      </trkpt>
      <trkpt lat="47.96205" lon="-3.49794">
        <ele>113.92</ele>
        <time>2018-06-01T09:13:27Z</time>
      </trkpt>
      <trkpt lat="47.96206" lon="-3.49794">
        <ele>114</ele>
        <time>2018-06-01T09:13:28Z</time>
      </trkpt>
      <trkpt lat="47.96208" lon="-3.49795">
        <ele>114.08</ele>
        <time>2018-06-01T09:13:29Z</time>
      </trkpt>
      <trkpt lat="47.96209" lon="-3.49795">
        <ele>114.17</ele>
        <time>2018-06-01T09:13:30Z</time>
      </trkpt>
      <trkpt lat="47.96211" lon="-3.49794">
        <ele>114.27</ele>
        <time>2018-06-01T09:13:31Z</time>
      </trkpt>
      <trkpt lat="47.96232" lon="-3.49799">
        <ele>115.62</ele>
        <time>2018-06-01T09:13:47Z</time>
      </trkpt>
      <trkpt lat="47.9626" lon="-3.49808">
        <ele>116.23</ele>
        <time>2018-06-01T09:14:04Z</time>
      </trkpt>
      <trkpt lat="47.96289" lon="-3.49816">
        <ele>117.1</ele>
        <time>2018-06-01T09:14:24Z</time>
      </trkpt>
      <trkpt lat="47.96314" lon="-3.49818">
        <ele>118.07</ele>
        <time>2018-06-01T09:14:41Z</time>
      </trkpt>
      <trkpt lat="47.96337" lon="-3.49821">
        <ele>119.05</ele>
        <time>2018-06-01T09:14:57Z</time>
      </trkpt>
      <trkpt lat="47.96362" lon="-3.49828">
        <ele>119.48</ele>
        <time>2018-06-01T09:15:15Z</time>
      </trkpt>
      <trkpt lat="47.96386" lon="-3.49836">
        <ele>120.28</ele>
        <time>2018-06-01T09:15:33Z</time>
      </trkpt>
      <trkpt lat="47.96402" lon="-3.49855">
        <ele>120.67</ele>
        <time>2018-06-01T09:15:49Z</time>
      </trkpt>
      <trkpt lat="47.96413" lon="-3.49875">
        <ele>121.53</ele>
        <time>2018-06-01T09:16:03Z</time>
      </trkpt>
      <trkpt lat="47.96432" lon="-3.49909">
        <ele>121.8</ele>
        <time>2018-06-01T09:16:20Z</time>
      </trkpt>
      <trkpt lat="47.9645" lon="-3.49939">
        <ele>121.75</ele>
        <time>2018-06-01T09:16:38Z</time>
      </trkpt>
      <trkpt lat="47.96462" lon="-3.49958">
        <ele>121.84</ele>
        <time>2018-06-01T09:16:52Z</time>
      </trkpt>
      <trkpt lat="47.96476" lon="-3.49979">
        <ele>121.8</ele>
        <time>2018-06-01T09:17:07Z</time>
      </trkpt>
      <trkpt lat="47.96483" lon="-3.49991">
        <ele>121.58</ele>
        <time>2018-06-01T09:17:14Z</time>
      </trkpt>
      <trkpt lat="47.96484" lon="-3.49993">
        <ele>121.55</ele>
        <time>2018-06-01T09:17:15Z</time>
      </trkpt>
      <trkpt lat="47.96496" lon="-3.50022">
        <ele>121.24</ele>
        <time>2018-06-01T09:17:31Z</time>
      </trkpt>
      <trkpt lat="47.96501" lon="-3.50046">
        <ele>121.6</ele>
        <time>2018-06-01T09:17:45Z</time>
      </trkpt>
      <trkpt lat="47.96504" lon="-3.50053">
        <ele>121.84</ele>
        <time>2018-06-01T09:17:59Z</time>
      </trkpt>
      <trkpt lat="47.96506" lon="-3.50057">
        <ele>121.78</ele>
        <time>2018-06-01T09:18:01Z</time>
      </trkpt>
      <trkpt lat="47.96507" lon="-3.50058">
        <ele>121.73</ele>
        <time>2018-06-01T09:18:02Z</time>
      </trkpt>
      <trkpt lat="47.96508" lon="-3.5006">
        <ele>121.69</ele>
        <time>2018-06-01T09:18:03Z</time>
      </trkpt>
      <trkpt lat="47.9651" lon="-3.50064">
        <ele>121.62</ele>
        <time>2018-06-01T09:18:05Z</time>
      </trkpt>
      <trkpt lat="47.96512" lon="-3.50072">
        <ele>121.98</ele>
        <time>2018-06-01T09:18:09Z</time>
      </trkpt>
      <trkpt lat="47.96513" lon="-3.50073">
        <ele>122.1</ele>
        <time>2018-06-01T09:18:10Z</time>
      </trkpt>
      <trkpt lat="47.96515" lon="-3.50076">
        <ele>122.26</ele>
        <time>2018-06-01T09:18:12Z</time>
      </trkpt>
      <trkpt lat="47.96525" lon="-3.50115">
        <ele>123.45</ele>
        <time>2018-06-01T09:18:26Z</time>
      </trkpt>
      <trkpt lat="47.96542" lon="-3.50151">
        <ele>124.6</ele>
        <time>2018-06-01T09:18:45Z</time>
      </trkpt>
      <trkpt lat="47.96561" lon="-3.50179">
        <ele>125.91</ele>
        <time>2018-06-01T09:19:02Z</time>
      </trkpt>
      <trkpt lat="47.96581" lon="-3.50205">
        <ele>126.46</ele>
        <time>2018-06-01T09:19:19Z</time>
      </trkpt>
      <trkpt lat="47.96598" lon="-3.50227">
        <ele>127.69</ele>
        <time>2018-06-01T09:19:36Z</time>
      </trkpt>
      <trkpt lat="47.96601" lon="-3.50228">
        <ele>128.38</ele>
        <time>2018-06-01T09:20:02Z</time>
      </trkpt>
      <trkpt lat="47.96604" lon="-3.50229">
        <ele>128.39</ele>
        <time>2018-06-01T09:20:04Z</time>
      </trkpt>
      <trkpt lat="47.96605" lon="-3.5023">
        <ele>128.41</ele>
        <time>2018-06-01T09:20:05Z</time>
      </trkpt>
      <trkpt lat="47.96607" lon="-3.50229">
        <ele>128.42</ele>
        <time>2018-06-01T09:20:06Z</time>
      </trkpt>
      <trkpt lat="47.96609" lon="-3.50229">
        <ele>128.42</ele>
        <time>2018-06-01T09:20:07Z</time>
      </trkpt>
      <trkpt lat="47.96611" lon="-3.5023">
        <ele>128.4</ele>
        <time>2018-06-01T09:20:08Z</time>
      </trkpt>
      <trkpt lat="47.96612" lon="-3.5023">
        <ele>128.39</ele>
        <time>2018-06-01T09:20:09Z</time>
      </trkpt>
      <trkpt lat="47.96638" lon="-3.50249">
        <ele>128.03</ele>
        <time>2018-06-01T09:20:27Z</time>
      </trkpt>
      <trkpt lat="47.96655" lon="-3.50273">
        <ele>128.1</ele>
        <time>2018-06-01T09:20:42Z</time>
      </trkpt>
      <trkpt lat="47.96658" lon="-3.50283">
        <ele>127.8</ele>
        <time>2018-06-01T09:20:47Z</time>
      </trkpt>
      <trkpt lat="47.96659" lon="-3.50285">
        <ele>127.79</ele>
        <time>2018-06-01T09:20:48Z</time>
      </trkpt>
      <trkpt lat="47.96664" lon="-3.50293">
        <ele>127.73</ele>
        <time>2018-06-01T09:20:54Z</time>
      </trkpt>
      <trkpt lat="47.96669" lon="-3.50299">
        <ele>127.69</ele>
        <time>2018-06-01T09:20:59Z</time>
      </trkpt>
      <trkpt lat="47.96671" lon="-3.50301">
        <ele>127.66</ele>
        <time>2018-06-01T09:21:01Z</time>
      </trkpt>
      <trkpt lat="47.96673" lon="-3.50303">
        <ele>127.61</ele>
        <time>2018-06-01T09:21:02Z</time>
      </trkpt>
      <trkpt lat="47.96697" lon="-3.50322">
        <ele>126.68</ele>
        <time>2018-06-01T09:21:17Z</time>
      </trkpt>
      <trkpt lat="47.96719" lon="-3.50335">
        <ele>125.78</ele>
        <time>2018-06-01T09:21:31Z</time>
      </trkpt>
      <trkpt lat="47.96725" lon="-3.5034">
        <ele>125.44</ele>
        <time>2018-06-01T09:21:35Z</time>
      </trkpt>
      <trkpt lat="47.96727" lon="-3.50341">
        <ele>125.41</ele>
        <time>2018-06-01T09:21:36Z</time>
      </trkpt>
      <trkpt lat="47.96728" lon="-3.50341">
        <ele>125.39</ele>
        <time>2018-06-01T09:21:37Z</time>
      </trkpt>
      <trkpt lat="47.96748" lon="-3.50349">
        <ele>124.97</ele>
        <time>2018-06-01T09:21:51Z</time>
      </trkpt>
      <trkpt lat="47.96769" lon="-3.50358">
        <ele>124.67</ele>
        <time>2018-06-01T09:22:02Z</time>
      </trkpt>
      <trkpt lat="47.96773" lon="-3.50359">
        <ele>124.72</ele>
        <time>2018-06-01T09:22:05Z</time>
      </trkpt>
      <trkpt lat="47.96782" lon="-3.50357">
        <ele>124.98</ele>
        <time>2018-06-01T09:22:13Z</time>
      </trkpt>
      <trkpt lat="47.96787" lon="-3.50355">
        <ele>124.45</ele>
        <time>2018-06-01T09:22:17Z</time>
      </trkpt>
      <trkpt lat="47.96803" lon="-3.5035">
        <ele>121.87</ele>
        <time>2018-06-01T09:22:30Z</time>
      </trkpt>
      <trkpt lat="47.96817" lon="-3.50358">
        <ele>118.57</ele>
        <time>2018-06-01T09:22:46Z</time>
      </trkpt>
      <trkpt lat="47.9682" lon="-3.50362">
        <ele>118.06</ele>
        <time>2018-06-01T09:22:48Z</time>
      </trkpt>
      <trkpt lat="47.96822" lon="-3.50363">
        <ele>117.84</ele>
        <time>2018-06-01T09:22:49Z</time>
      </trkpt>
      <trkpt lat="47.96842" lon="-3.50374">
        <ele>114.7</ele>
        <time>2018-06-01T09:23:03Z</time>
      </trkpt>
      <trkpt lat="47.9687" lon="-3.50378">
        <ele>111.6</ele>
        <time>2018-06-01T09:23:19Z</time>
      </trkpt>
      <trkpt lat="47.96891" lon="-3.50375">
        <ele>109.48</ele>
        <time>2018-06-01T09:23:33Z</time>
      </trkpt>
      <trkpt lat="47.96915" lon="-3.50379">
        <ele>107.76</ele>
        <time>2018-06-01T09:23:46Z</time>
      </trkpt>
      <trkpt lat="47.96943" lon="-3.50382">
        <ele>105.56</ele>
        <time>2018-06-01T09:24:02Z</time>
      </trkpt>
      <trkpt lat="47.96949" lon="-3.50393">
        <ele>106.36</ele>
        <time>2018-06-01T09:24:17Z</time>
      </trkpt>
      <trkpt lat="47.96953" lon="-3.50398">
        <ele>106.57</ele>
        <time>2018-06-01T09:24:22Z</time>
      </trkpt>
      <trkpt lat="47.96958" lon="-3.50403">
        <ele>106.6</ele>
        <time>2018-06-01T09:24:25Z</time>
      </trkpt>
      <trkpt lat="47.96964" lon="-3.50417">
        <ele>106.43</ele>
        <time>2018-06-01T09:24:36Z</time>
      </trkpt>
      <trkpt lat="47.96981" lon="-3.50445">
        <ele>104.82</ele>
        <time>2018-06-01T09:24:50Z</time>
      </trkpt>
      <trkpt lat="47.96991" lon="-3.50448">
        <ele>104.48</ele>
        <time>2018-06-01T09:24:53Z</time>
      </trkpt>
      <trkpt lat="47.96997" lon="-3.50442">
        <ele>102.74</ele>
        <time>2018-06-01T09:25:02Z</time>
      </trkpt>
      <trkpt lat="47.97002" lon="-3.50433">
        <ele>101.47</ele>
        <time>2018-06-01T09:25:09Z</time>
      </trkpt>
      <trkpt lat="47.97003" lon="-3.50432">
        <ele>101.03</ele>
        <time>2018-06-01T09:25:11Z</time>
      </trkpt>
      <trkpt lat="47.97005" lon="-3.5043">
        <ele>100.69</ele>
        <time>2018-06-01T09:25:13Z</time>
      </trkpt>
      <trkpt lat="47.97017" lon="-3.50426">
        <ele>99.01</ele>
        <time>2018-06-01T09:25:23Z</time>
      </trkpt>
      <trkpt lat="47.97025" lon="-3.50421">
        <ele>97.48</ele>
        <time>2018-06-01T09:25:30Z</time>
      </trkpt>
      <trkpt lat="47.97029" lon="-3.50417">
        <ele>96.84</ele>
        <time>2018-06-01T09:25:33Z</time>
      </trkpt>
      <trkpt lat="47.97035" lon="-3.50408">
        <ele>95.95</ele>
        <time>2018-06-01T09:25:37Z</time>
      </trkpt>
      <trkpt lat="47.97037" lon="-3.50405">
        <ele>95.4</ele>
        <time>2018-06-01T09:25:39Z</time>
      </trkpt>
      <trkpt lat="47.97046" lon="-3.50401">
        <ele>94.05</ele>
        <time>2018-06-01T09:25:44Z</time>
      </trkpt>
      <trkpt lat="47.97063" lon="-3.50392">
        <ele>90.36</ele>
        <time>2018-06-01T09:25:57Z</time>
      </trkpt>
      <trkpt lat="47.97079" lon="-3.50386">
        <ele>87.09</ele>
        <time>2018-06-01T09:26:07Z</time>
      </trkpt>
      <trkpt lat="47.97091" lon="-3.50379">
        <ele>84.18</ele>
        <time>2018-06-01T09:26:15Z</time>
      </trkpt>
      <trkpt lat="47.9711" lon="-3.5036">
        <ele>80.85</ele>
        <time>2018-06-01T09:26:28Z</time>
      </trkpt>
      <trkpt lat="47.97137" lon="-3.50348">
        <ele>78.23</ele>
        <time>2018-06-01T09:26:43Z</time>
      </trkpt>
      <trkpt lat="47.97149" lon="-3.5035">
        <ele>77.03</ele>
        <time>2018-06-01T09:26:50Z</time>
      </trkpt>
      <trkpt lat="47.97164" lon="-3.50366">
        <ele>74.77</ele>
        <time>2018-06-01T09:27:04Z</time>
      </trkpt>
      <trkpt lat="47.97174" lon="-3.50369">
        <ele>73.59</ele>
        <time>2018-06-01T09:27:12Z</time>
      </trkpt>
      <trkpt lat="47.9721" lon="-3.50376">
        <ele>71.62</ele>
        <time>2018-06-01T09:27:28Z</time>
      </trkpt>
      <trkpt lat="47.97233" lon="-3.50398">
        <ele>69.91</ele>
        <time>2018-06-01T09:27:39Z</time>
      </trkpt>
      <trkpt lat="47.9724" lon="-3.50413">
        <ele>69.34</ele>
        <time>2018-06-01T09:27:48Z</time>
      </trkpt>
      <trkpt lat="47.9724" lon="-3.50419">
        <ele>69.24</ele>
        <time>2018-06-01T09:27:50Z</time>
      </trkpt>
      <trkpt lat="47.97244" lon="-3.5043">
        <ele>69.01</ele>
        <time>2018-06-01T09:27:55Z</time>
      </trkpt>
      <trkpt lat="47.97248" lon="-3.50436">
        <ele>69</ele>
        <time>2018-06-01T09:27:58Z</time>
      </trkpt>
      <trkpt lat="47.97274" lon="-3.50454">
        <ele>68.58</ele>
        <time>2018-06-01T09:28:13Z</time>
      </trkpt>
      <trkpt lat="47.97288" lon="-3.50461">
        <ele>68.41</ele>
        <time>2018-06-01T09:28:21Z</time>
      </trkpt>
      <trkpt lat="47.97297" lon="-3.50464">
        <ele>68.66</ele>
        <time>2018-06-01T09:28:26Z</time>
      </trkpt>
      <trkpt lat="47.9732" lon="-3.50464">
        <ele>68.4</ele>
        <time>2018-06-01T09:28:40Z</time>
      </trkpt>
      <trkpt lat="47.97337" lon="-3.50465">
        <ele>66.37</ele>
        <time>2018-06-01T09:28:51Z</time>
      </trkpt>
      <trkpt lat="47.97345" lon="-3.50471">
        <ele>64.58</ele>
        <time>2018-06-01T09:28:58Z</time>
      </trkpt>
      <trkpt lat="47.97364" lon="-3.50474">
        <ele>62.08</ele>
        <time>2018-06-01T09:29:10Z</time>
      </trkpt>
      <trkpt lat="47.97378" lon="-3.50474">
        <ele>59.51</ele>
        <time>2018-06-01T09:29:23Z</time>
      </trkpt>
      <trkpt lat="47.97392" lon="-3.50463">
        <ele>56.47</ele>
        <time>2018-06-01T09:29:36Z</time>
      </trkpt>
      <trkpt lat="47.97417" lon="-3.50445">
        <ele>53.26</ele>
        <time>2018-06-01T09:29:55Z</time>
      </trkpt>
      <trkpt lat="47.97443" lon="-3.50423">
        <ele>50.64</ele>
        <time>2018-06-01T09:30:10Z</time>
      </trkpt>
      <trkpt lat="47.97454" lon="-3.50418">
        <ele>49.39</ele>
        <time>2018-06-01T09:30:17Z</time>
      </trkpt>
      <trkpt lat="47.97464" lon="-3.50408">
        <ele>48.06</ele>
        <time>2018-06-01T09:30:25Z</time>
      </trkpt>
      <trkpt lat="47.97472" lon="-3.50398">
        <ele>47.48</ele>
        <time>2018-06-01T09:30:29Z</time>
      </trkpt>
      <trkpt lat="47.97487" lon="-3.5039">
        <ele>46.24</ele>
        <time>2018-06-01T09:30:38Z</time>
      </trkpt>
      <trkpt lat="47.9749" lon="-3.5039">
        <ele>46.06</ele>
        <time>2018-06-01T09:30:40Z</time>
      </trkpt>
      <trkpt lat="47.97512" lon="-3.50398">
        <ele>44.89</ele>
        <time>2018-06-01T09:30:55Z</time>
      </trkpt>
      <trkpt lat="47.97518" lon="-3.50404">
        <ele>44.49</ele>
        <time>2018-06-01T09:31:00Z</time>
      </trkpt>
      <trkpt lat="47.9752" lon="-3.50406">
        <ele>44.39</ele>
        <time>2018-06-01T09:31:01Z</time>
      </trkpt>
      <trkpt lat="47.97521" lon="-3.50408">
        <ele>44.29</ele>
        <time>2018-06-01T09:31:02Z</time>
      </trkpt>
      <trkpt lat="47.97522" lon="-3.50409">
        <ele>44.17</ele>
        <time>2018-06-01T09:31:03Z</time>
      </trkpt>
      <trkpt lat="47.97524" lon="-3.50412">
        <ele>44.05</ele>
        <time>2018-06-01T09:31:04Z</time>
      </trkpt>
      <trkpt lat="47.97525" lon="-3.50414">
        <ele>43.95</ele>
        <time>2018-06-01T09:31:05Z</time>
      </trkpt>
      <trkpt lat="47.97526" lon="-3.50416">
        <ele>43.88</ele>
        <time>2018-06-01T09:31:06Z</time>
      </trkpt>
      <trkpt lat="47.97527" lon="-3.50418">
        <ele>43.75</ele>
        <time>2018-06-01T09:31:07Z</time>
      </trkpt>
      <trkpt lat="47.9753" lon="-3.50427">
        <ele>43.53</ele>
        <time>2018-06-01T09:31:12Z</time>
      </trkpt>
      <trkpt lat="47.9753" lon="-3.5043">
        <ele>43.47</ele>
        <time>2018-06-01T09:31:13Z</time>
      </trkpt>
      <trkpt lat="47.97529" lon="-3.50438">
        <ele>42.99</ele>
        <time>2018-06-01T09:31:18Z</time>
      </trkpt>
      <trkpt lat="47.97529" lon="-3.5044">
        <ele>42.9</ele>
        <time>2018-06-01T09:31:19Z</time>
      </trkpt>
      <trkpt lat="47.97528" lon="-3.50441">
        <ele>42.8</ele>
        <time>2018-06-01T09:31:20Z</time>
      </trkpt>
      <trkpt lat="47.97526" lon="-3.50457">
        <ele>41.91</ele>
        <time>2018-06-01T09:31:32Z</time>
      </trkpt>
      <trkpt lat="47.97524" lon="-3.50462">
        <ele>42.38</ele>
        <time>2018-06-01T09:31:52Z</time>
      </trkpt>
      <trkpt lat="47.97523" lon="-3.50476">
        <ele>43.09</ele>
        <time>2018-06-01T09:32:02Z</time>
      </trkpt>
      <trkpt lat="47.97523" lon="-3.50478">
        <ele>43.08</ele>
        <time>2018-06-01T09:32:03Z</time>
      </trkpt>
      <trkpt lat="47.97523" lon="-3.50481">
        <ele>43.05</ele>
        <time>2018-06-01T09:32:04Z</time>
      </trkpt>
      <trkpt lat="47.97522" lon="-3.50484">
        <ele>43</ele>
        <time>2018-06-01T09:32:05Z</time>
      </trkpt>
      <trkpt lat="47.97522" lon="-3.50486">
        <ele>42.96</ele>
        <time>2018-06-01T09:32:06Z</time>
      </trkpt>
      <trkpt lat="47.97523" lon="-3.5049">
        <ele>42.89</ele>
        <time>2018-06-01T09:32:08Z</time>
      </trkpt>
      <trkpt lat="47.97524" lon="-3.50493">
        <ele>42.84</ele>
        <time>2018-06-01T09:32:09Z</time>
      </trkpt>
      <trkpt lat="47.97524" lon="-3.50495">
        <ele>42.82</ele>
        <time>2018-06-01T09:32:10Z</time>
      </trkpt>
      <trkpt lat="47.97525" lon="-3.50514">
        <ele>42.55</ele>
        <time>2018-06-01T09:32:21Z</time>
      </trkpt>
      <trkpt lat="47.97525" lon="-3.50533">
        <ele>42.65</ele>
        <time>2018-06-01T09:32:31Z</time>
      </trkpt>
      <trkpt lat="47.97532" lon="-3.50549">
        <ele>41.86</ele>
        <time>2018-06-01T09:32:44Z</time>
      </trkpt>
      <trkpt lat="47.97533" lon="-3.5055">
        <ele>41.76</ele>
        <time>2018-06-01T09:32:45Z</time>
      </trkpt>
      <trkpt lat="47.97541" lon="-3.50556">
        <ele>41.18</ele>
        <time>2018-06-01T09:33:05Z</time>
      </trkpt>
      <trkpt lat="47.97546" lon="-3.50565">
        <ele>41.23</ele>
        <time>2018-06-01T09:33:26Z</time>
      </trkpt>
      <trkpt lat="47.97551" lon="-3.50564">
        <ele>41.03</ele>
        <time>2018-06-01T09:33:51Z</time>
      </trkpt>
      <trkpt lat="47.97554" lon="-3.50559">
        <ele>41.14</ele>
        <time>2018-06-01T09:34:14Z</time>
      </trkpt>
      <trkpt lat="47.97549" lon="-3.50552">
        <ele>41.06</ele>
        <time>2018-06-01T09:34:23Z</time>
      </trkpt>
      <trkpt lat="47.97544" lon="-3.50553">
        <ele>41.4</ele>
        <time>2018-06-01T09:34:29Z</time>
      </trkpt>
      <trkpt lat="47.97541" lon="-3.50565">
        <ele>41.84</ele>
        <time>2018-06-01T09:34:32Z</time>
      </trkpt>
      <trkpt lat="47.9754" lon="-3.50569">
        <ele>42.01</ele>
        <time>2018-06-01T09:34:33Z</time>
      </trkpt>
      <trkpt lat="47.97539" lon="-3.50574">
        <ele>42.19</ele>
        <time>2018-06-01T09:34:34Z</time>
      </trkpt>
      <trkpt lat="47.97538" lon="-3.50578">
        <ele>42.38</ele>
        <time>2018-06-01T09:34:35Z</time>
      </trkpt>
      <trkpt lat="47.97537" lon="-3.50581">
        <ele>42.62</ele>
        <time>2018-06-01T09:34:36Z</time>
      </trkpt>
      <trkpt lat="47.97537" lon="-3.50583">
        <ele>42.9</ele>
        <time>2018-06-01T09:34:37Z</time>
      </trkpt>
      <trkpt lat="47.97528" lon="-3.506">
        <ele>45.9</ele>
        <time>2018-06-01T09:34:48Z</time>
      </trkpt>
      <trkpt lat="47.97522" lon="-3.50622">
        <ele>48.11</ele>
        <time>2018-06-01T09:34:59Z</time>
      </trkpt>
      <trkpt lat="47.97521" lon="-3.50625">
        <ele>48.32</ele>
        <time>2018-06-01T09:35:00Z</time>
      </trkpt>
      <trkpt lat="47.97517" lon="-3.50636">
        <ele>49.35</ele>
        <time>2018-06-01T09:35:05Z</time>
      </trkpt>
      <trkpt lat="47.97508" lon="-3.50665">
        <ele>52.67</ele>
        <time>2018-06-01T09:35:19Z</time>
      </trkpt>
      <trkpt lat="47.97507" lon="-3.50684">
        <ele>55.47</ele>
        <time>2018-06-01T09:35:31Z</time>
      </trkpt>
      <trkpt lat="47.97511" lon="-3.50702">
        <ele>58.58</ele>
        <time>2018-06-01T09:35:42Z</time>
      </trkpt>
      <trkpt lat="47.97511" lon="-3.50706">
        <ele>59</ele>
        <time>2018-06-01T09:35:44Z</time>
      </trkpt>
      <trkpt lat="47.97514" lon="-3.5072">
        <ele>61.16</ele>
        <time>2018-06-01T09:35:53Z</time>
      </trkpt>
      <trkpt lat="47.97518" lon="-3.50744">
        <ele>64.18</ele>
        <time>2018-06-01T09:36:06Z</time>
      </trkpt>
      <trkpt lat="47.97522" lon="-3.50776">
        <ele>66.97</ele>
        <time>2018-06-01T09:36:23Z</time>
      </trkpt>
      <trkpt lat="47.97521" lon="-3.50781">
        <ele>67.62</ele>
        <time>2018-06-01T09:36:26Z</time>
      </trkpt>
      <trkpt lat="47.97516" lon="-3.508">
        <ele>69.65</ele>
        <time>2018-06-01T09:36:36Z</time>
      </trkpt>
      <trkpt lat="47.97512" lon="-3.508">
        <ele>70.48</ele>
        <time>2018-06-01T09:36:41Z</time>
      </trkpt>
      <trkpt lat="47.97506" lon="-3.50791">
        <ele>71.44</ele>
        <time>2018-06-01T09:36:48Z</time>
      </trkpt>
      <trkpt lat="47.97502" lon="-3.50787">
        <ele>72.05</ele>
        <time>2018-06-01T09:36:52Z</time>
      </trkpt>
      <trkpt lat="47.9748" lon="-3.50795">
        <ele>74.65</ele>
        <time>2018-06-01T09:37:08Z</time>
      </trkpt>
      <trkpt lat="47.97471" lon="-3.50813">
        <ele>76.18</ele>
        <time>2018-06-01T09:37:18Z</time>
      </trkpt>
      <trkpt lat="47.97477" lon="-3.50847">
        <ele>76.48</ele>
        <time>2018-06-01T09:37:33Z</time>
      </trkpt>
      <trkpt lat="47.9747" lon="-3.50882">
        <ele>73.89</ele>
        <time>2018-06-01T09:37:46Z</time>
      </trkpt>
      <trkpt lat="47.97452" lon="-3.50912">
        <ele>72.45</ele>
        <time>2018-06-01T09:37:57Z</time>
      </trkpt>
      <trkpt lat="47.97436" lon="-3.50956">
        <ele>70.81</ele>
        <time>2018-06-01T09:38:07Z</time>
      </trkpt>
      <trkpt lat="47.97434" lon="-3.50986">
        <ele>70.87</ele>
        <time>2018-06-01T09:38:13Z</time>
      </trkpt>
      <trkpt lat="47.97433" lon="-3.5099">
        <ele>70.79</ele>
        <time>2018-06-01T09:38:14Z</time>
      </trkpt>
      <trkpt lat="47.97432" lon="-3.50993">
        <ele>70.53</ele>
        <time>2018-06-01T09:38:15Z</time>
      </trkpt>
      <trkpt lat="47.9743" lon="-3.50996">
        <ele>70.36</ele>
        <time>2018-06-01T09:38:16Z</time>
      </trkpt>
      <trkpt lat="47.9743" lon="-3.50999">
        <ele>70.17</ele>
        <time>2018-06-01T09:38:17Z</time>
      </trkpt>
      <trkpt lat="47.97429" lon="-3.51004">
        <ele>69.97</ele>
        <time>2018-06-01T09:38:18Z</time>
      </trkpt>
      <trkpt lat="47.97429" lon="-3.51009">
        <ele>69.76</ele>
        <time>2018-06-01T09:38:19Z</time>
      </trkpt>
      <trkpt lat="47.9743" lon="-3.51073">
        <ele>68.16</ele>
        <time>2018-06-01T09:38:29Z</time>
      </trkpt>
      <trkpt lat="47.97429" lon="-3.51097">
        <ele>68.58</ele>
        <time>2018-06-01T09:38:34Z</time>
      </trkpt>
      <trkpt lat="47.97426" lon="-3.51118">
        <ele>68.38</ele>
        <time>2018-06-01T09:38:48Z</time>
      </trkpt>
      <trkpt lat="47.97419" lon="-3.51138">
        <ele>66.96</ele>
        <time>2018-06-01T09:38:57Z</time>
      </trkpt>
      <trkpt lat="47.97414" lon="-3.51152">
        <ele>66.01</ele>
        <time>2018-06-01T09:39:03Z</time>
      </trkpt>
      <trkpt lat="47.97412" lon="-3.5116">
        <ele>65.56</ele>
        <time>2018-06-01T09:39:06Z</time>
      </trkpt>
      <trkpt lat="47.97408" lon="-3.51191">
        <ele>62.79</ele>
        <time>2018-06-01T09:39:19Z</time>
      </trkpt>
      <trkpt lat="47.97403" lon="-3.51215">
        <ele>60.31</ele>
        <time>2018-06-01T09:39:31Z</time>
      </trkpt>
      <trkpt lat="47.97409" lon="-3.51238">
        <ele>59.06</ele>
        <time>2018-06-01T09:39:39Z</time>
      </trkpt>
      <trkpt lat="47.97411" lon="-3.51241">
        <ele>58.66</ele>
        <time>2018-06-01T09:39:41Z</time>
      </trkpt>
      <trkpt lat="47.97422" lon="-3.51274">
        <ele>55.69</ele>
        <time>2018-06-01T09:39:53Z</time>
      </trkpt>
      <trkpt lat="47.97427" lon="-3.51293">
        <ele>53.46</ele>
        <time>2018-06-01T09:40:02Z</time>
      </trkpt>
      <trkpt lat="47.97436" lon="-3.51322">
        <ele>54.32</ele>
        <time>2018-06-01T09:40:14Z</time>
      </trkpt>
      <trkpt lat="47.97437" lon="-3.51324">
        <ele>54.39</ele>
        <time>2018-06-01T09:40:15Z</time>
      </trkpt>
      <trkpt lat="47.97443" lon="-3.51342">
        <ele>54.58</ele>
        <time>2018-06-01T09:40:24Z</time>
      </trkpt>
      <trkpt lat="47.97444" lon="-3.51347">
        <ele>54.59</ele>
        <time>2018-06-01T09:40:26Z</time>
      </trkpt>
      <trkpt lat="47.9745" lon="-3.51359">
        <ele>54.36</ele>
        <time>2018-06-01T09:40:32Z</time>
      </trkpt>
      <trkpt lat="47.97449" lon="-3.51375">
        <ele>53.98</ele>
        <time>2018-06-01T09:40:38Z</time>
      </trkpt>
      <trkpt lat="47.97448" lon="-3.514">
        <ele>53.59</ele>
        <time>2018-06-01T09:40:52Z</time>
      </trkpt>
      <trkpt lat="47.97448" lon="-3.51431">
        <ele>53.47</ele>
        <time>2018-06-01T09:41:08Z</time>
      </trkpt>
      <trkpt lat="47.97441" lon="-3.5146">
        <ele>51.71</ele>
        <time>2018-06-01T09:41:23Z</time>
      </trkpt>
      <trkpt lat="47.97434" lon="-3.51474">
        <ele>52.02</ele>
        <time>2018-06-01T09:41:35Z</time>
      </trkpt>
      <trkpt lat="47.97416" lon="-3.51491">
        <ele>52.06</ele>
        <time>2018-06-01T09:41:56Z</time>
      </trkpt>
      <trkpt lat="47.97417" lon="-3.51498">
        <ele>51.52</ele>
        <time>2018-06-01T09:42:04Z</time>
      </trkpt>
      <trkpt lat="47.9742" lon="-3.515">
        <ele>51.47</ele>
        <time>2018-06-01T09:42:06Z</time>
      </trkpt>
      <trkpt lat="47.97425" lon="-3.51505">
        <ele>51.49</ele>
        <time>2018-06-01T09:42:08Z</time>
      </trkpt>
      <trkpt lat="47.97438" lon="-3.51526">
        <ele>51.02</ele>
        <time>2018-06-01T09:42:21Z</time>
      </trkpt>
      <trkpt lat="47.97454" lon="-3.51549">
        <ele>50.68</ele>
        <time>2018-06-01T09:42:33Z</time>
      </trkpt>
      <trkpt lat="47.97469" lon="-3.51578">
        <ele>50.24</ele>
        <time>2018-06-01T09:42:44Z</time>
      </trkpt>
      <trkpt lat="47.97493" lon="-3.51618">
        <ele>50.37</ele>
        <time>2018-06-01T09:42:54Z</time>
      </trkpt>
      <trkpt lat="47.97505" lon="-3.5164">
        <ele>50.54</ele>
        <time>2018-06-01T09:42:58Z</time>
      </trkpt>
      <trkpt lat="47.97519" lon="-3.5167">
        <ele>51.03</ele>
        <time>2018-06-01T09:43:02Z</time>
      </trkpt>
      <trkpt lat="47.97538" lon="-3.51703">
        <ele>51.32</ele>
        <time>2018-06-01T09:43:07Z</time>
      </trkpt>
      <trkpt lat="47.97553" lon="-3.51725">
        <ele>51.22</ele>
        <time>2018-06-01T09:43:11Z</time>
      </trkpt>
      <trkpt lat="47.97555" lon="-3.5173">
        <ele>51.2</ele>
        <time>2018-06-01T09:43:12Z</time>
      </trkpt>
      <trkpt lat="47.97569" lon="-3.51765">
        <ele>53.76</ele>
        <time>2018-06-01T09:43:21Z</time>
      </trkpt>
      <trkpt lat="47.97573" lon="-3.51775">
        <ele>53.92</ele>
        <time>2018-06-01T09:43:23Z</time>
      </trkpt>
      <trkpt lat="47.97577" lon="-3.51779">
        <ele>53.96</ele>
        <time>2018-06-01T09:43:24Z</time>
      </trkpt>
      <trkpt lat="47.97579" lon="-3.51783">
        <ele>54</ele>
        <time>2018-06-01T09:43:25Z</time>
      </trkpt>
      <trkpt lat="47.97582" lon="-3.51789">
        <ele>54.06</ele>
        <time>2018-06-01T09:43:26Z</time>
      </trkpt>
      <trkpt lat="47.97592" lon="-3.51814">
        <ele>54.3</ele>
        <time>2018-06-01T09:43:31Z</time>
      </trkpt>
      <trkpt lat="47.97603" lon="-3.51838">
        <ele>54.32</ele>
        <time>2018-06-01T09:43:36Z</time>
      </trkpt>
      <trkpt lat="47.97617" lon="-3.51879">
        <ele>53.87</ele>
        <time>2018-06-01T09:43:43Z</time>
      </trkpt>
      <trkpt lat="47.97625" lon="-3.51924">
        <ele>53.32</ele>
        <time>2018-06-01T09:43:49Z</time>
      </trkpt>
      <trkpt lat="47.97628" lon="-3.51952">
        <ele>53.27</ele>
        <time>2018-06-01T09:43:53Z</time>
      </trkpt>
      <trkpt lat="47.9764" lon="-3.51991">
        <ele>53.53</ele>
        <time>2018-06-01T09:43:59Z</time>
      </trkpt>
      <trkpt lat="47.9765" lon="-3.52022">
        <ele>53.79</ele>
        <time>2018-06-01T09:44:05Z</time>
      </trkpt>
      <trkpt lat="47.97653" lon="-3.5205">
        <ele>53.94</ele>
        <time>2018-06-01T09:44:10Z</time>
      </trkpt>
      <trkpt lat="47.97656" lon="-3.52059">
        <ele>53.93</ele>
        <time>2018-06-01T09:44:13Z</time>
      </trkpt>
      <trkpt lat="47.97657" lon="-3.52074">
        <ele>53.55</ele>
        <time>2018-06-01T09:44:18Z</time>
      </trkpt>
      <trkpt lat="47.9766" lon="-3.5208">
        <ele>53.38</ele>
        <time>2018-06-01T09:44:20Z</time>
      </trkpt>
      <trkpt lat="47.97665" lon="-3.52103">
        <ele>52.97</ele>
        <time>2018-06-01T09:44:28Z</time>
      </trkpt>
      <trkpt lat="47.97666" lon="-3.5211">
        <ele>53.11</ele>
        <time>2018-06-01T09:44:31Z</time>
      </trkpt>
      <trkpt lat="47.97668" lon="-3.52117">
        <ele>53.35</ele>
        <time>2018-06-01T09:44:35Z</time>
      </trkpt>
      <trkpt lat="47.97675" lon="-3.52127">
        <ele>53.53</ele>
        <time>2018-06-01T09:44:45Z</time>
      </trkpt>
      <trkpt lat="47.97687" lon="-3.5215">
        <ele>52.79</ele>
        <time>2018-06-01T09:50:57Z</time>
      </trkpt>
      <trkpt lat="47.97671" lon="-3.52158">
        <ele>56.03</ele>
        <time>2018-06-01T09:51:15Z</time>
      </trkpt>
      <trkpt lat="47.97669" lon="-3.5216">
        <ele>57.16</ele>
        <time>2018-06-01T09:51:18Z</time>
      </trkpt>
      <trkpt lat="47.97665" lon="-3.52166">
        <ele>60.67</ele>
        <time>2018-06-01T09:51:28Z</time>
      </trkpt>
      <trkpt lat="47.97656" lon="-3.52177">
        <ele>63.99</ele>
        <time>2018-06-01T09:51:36Z</time>
      </trkpt>
      <trkpt lat="47.97649" lon="-3.52192">
        <ele>67.16</ele>
        <time>2018-06-01T09:51:47Z</time>
      </trkpt>
      <trkpt lat="47.97649" lon="-3.522">
        <ele>68.59</ele>
        <time>2018-06-01T09:51:51Z</time>
      </trkpt>
      <trkpt lat="47.97652" lon="-3.52204">
        <ele>69.15</ele>
        <time>2018-06-01T09:51:53Z</time>
      </trkpt>
      <trkpt lat="47.97663" lon="-3.52229">
        <ele>70.98</ele>
        <time>2018-06-01T09:52:11Z</time>
      </trkpt>
      <trkpt lat="47.9767" lon="-3.52249">
        <ele>71.88</ele>
        <time>2018-06-01T09:52:22Z</time>
      </trkpt>
      <trkpt lat="47.9769" lon="-3.52269">
        <ele>72.41</ele>
        <time>2018-06-01T09:52:27Z</time>
      </trkpt>
      <trkpt lat="47.97714" lon="-3.52292">
        <ele>73.22</ele>
        <time>2018-06-01T09:52:36Z</time>
      </trkpt>
      <trkpt lat="47.97728" lon="-3.52307">
        <ele>73.27</ele>
        <time>2018-06-01T09:52:42Z</time>
      </trkpt>
      <trkpt lat="47.97745" lon="-3.52323">
        <ele>73.51</ele>
        <time>2018-06-01T09:52:52Z</time>
      </trkpt>
      <trkpt lat="47.9776" lon="-3.52346">
        <ele>73.87</ele>
        <time>2018-06-01T09:53:05Z</time>
      </trkpt>
      <trkpt lat="47.9777" lon="-3.52359">
        <ele>74.45</ele>
        <time>2018-06-01T09:53:14Z</time>
      </trkpt>
      <trkpt lat="47.97777" lon="-3.52365">
        <ele>74.75</ele>
        <time>2018-06-01T09:53:18Z</time>
      </trkpt>
      <trkpt lat="47.97791" lon="-3.52388">
        <ele>75.88</ele>
        <time>2018-06-01T09:53:33Z</time>
      </trkpt>
      <trkpt lat="47.97804" lon="-3.52417">
        <ele>76.22</ele>
        <time>2018-06-01T09:53:47Z</time>
      </trkpt>
      <trkpt lat="47.9781" lon="-3.52423">
        <ele>76.17</ele>
        <time>2018-06-01T09:53:51Z</time>
      </trkpt>
      <trkpt lat="47.97821" lon="-3.5244">
        <ele>76.23</ele>
        <time>2018-06-01T09:53:59Z</time>
      </trkpt>
      <trkpt lat="47.97826" lon="-3.52456">
        <ele>75.83</ele>
        <time>2018-06-01T09:54:06Z</time>
      </trkpt>
      <trkpt lat="47.97835" lon="-3.52466">
        <ele>74.58</ele>
        <time>2018-06-01T09:54:13Z</time>
      </trkpt>
      <trkpt lat="47.97845" lon="-3.52488">
        <ele>73.04</ele>
        <time>2018-06-01T09:54:25Z</time>
      </trkpt>
      <trkpt lat="47.97846" lon="-3.52493">
        <ele>72.91</ele>
        <time>2018-06-01T09:54:27Z</time>
      </trkpt>
      <trkpt lat="47.97867" lon="-3.52521">
        <ele>71.64</ele>
        <time>2018-06-01T09:54:42Z</time>
      </trkpt>
      <trkpt lat="47.97882" lon="-3.52543">
        <ele>70.85</ele>
        <time>2018-06-01T09:54:54Z</time>
      </trkpt>
      <trkpt lat="47.97888" lon="-3.52554">
        <ele>71.15</ele>
        <time>2018-06-01T09:55:01Z</time>
      </trkpt>
      <trkpt lat="47.97894" lon="-3.52563">
        <ele>71.93</ele>
        <time>2018-06-01T09:55:06Z</time>
      </trkpt>
      <trkpt lat="47.97897" lon="-3.52571">
        <ele>72.46</ele>
        <time>2018-06-01T09:55:11Z</time>
      </trkpt>
      <trkpt lat="47.97905" lon="-3.52579">
        <ele>72.73</ele>
        <time>2018-06-01T09:55:16Z</time>
      </trkpt>
      <trkpt lat="47.97908" lon="-3.52583">
        <ele>72.84</ele>
        <time>2018-06-01T09:55:18Z</time>
      </trkpt>
      <trkpt lat="47.9791" lon="-3.52586">
        <ele>72.94</ele>
        <time>2018-06-01T09:55:20Z</time>
      </trkpt>
      <trkpt lat="47.97915" lon="-3.52597">
        <ele>73.39</ele>
        <time>2018-06-01T09:55:26Z</time>
      </trkpt>
      <trkpt lat="47.97919" lon="-3.52608">
        <ele>73.82</ele>
        <time>2018-06-01T09:55:31Z</time>
      </trkpt>
      <trkpt lat="47.97938" lon="-3.52632">
        <ele>75.32</ele>
        <time>2018-06-01T09:55:46Z</time>
      </trkpt>
      <trkpt lat="47.97951" lon="-3.52649">
        <ele>76.54</ele>
        <time>2018-06-01T09:55:58Z</time>
      </trkpt>
      <trkpt lat="47.97951" lon="-3.52653">
        <ele>76.76</ele>
        <time>2018-06-01T09:56:00Z</time>
      </trkpt>
      <trkpt lat="47.97958" lon="-3.52672">
        <ele>77.8</ele>
        <time>2018-06-01T09:56:09Z</time>
      </trkpt>
      <trkpt lat="47.9796" lon="-3.52677">
        <ele>78.19</ele>
        <time>2018-06-01T09:56:12Z</time>
      </trkpt>
      <trkpt lat="47.97962" lon="-3.52705">
        <ele>80.43</ele>
        <time>2018-06-01T09:56:27Z</time>
      </trkpt>
      <trkpt lat="47.97963" lon="-3.52732">
        <ele>82.97</ele>
        <time>2018-06-01T09:56:39Z</time>
      </trkpt>
      <trkpt lat="47.97965" lon="-3.52754">
        <ele>84.8</ele>
        <time>2018-06-01T09:56:49Z</time>
      </trkpt>
      <trkpt lat="47.97964" lon="-3.52773">
        <ele>86.99</ele>
        <time>2018-06-01T09:57:01Z</time>
      </trkpt>
      <trkpt lat="47.97958" lon="-3.52808">
        <ele>90.02</ele>
        <time>2018-06-01T09:57:18Z</time>
      </trkpt>
      <trkpt lat="47.97957" lon="-3.5281">
        <ele>90.19</ele>
        <time>2018-06-01T09:57:19Z</time>
      </trkpt>
      <trkpt lat="47.97949" lon="-3.52838">
        <ele>93.27</ele>
        <time>2018-06-01T09:57:34Z</time>
      </trkpt>
      <trkpt lat="47.97948" lon="-3.52845">
        <ele>93.92</ele>
        <time>2018-06-01T09:57:38Z</time>
      </trkpt>
      <trkpt lat="47.97942" lon="-3.5286">
        <ele>96.56</ele>
        <time>2018-06-01T09:57:55Z</time>
      </trkpt>
      <trkpt lat="47.97927" lon="-3.52854">
        <ele>98.81</ele>
        <time>2018-06-01T09:58:14Z</time>
      </trkpt>
      <trkpt lat="47.9791" lon="-3.52846">
        <ele>101.1</ele>
        <time>2018-06-01T09:58:30Z</time>
      </trkpt>
      <trkpt lat="47.97892" lon="-3.5284">
        <ele>103.2</ele>
        <time>2018-06-01T09:58:45Z</time>
      </trkpt>
      <trkpt lat="47.97861" lon="-3.52848">
        <ele>105.02</ele>
        <time>2018-06-01T09:59:04Z</time>
      </trkpt>
      <trkpt lat="47.97847" lon="-3.52855">
        <ele>106.42</ele>
        <time>2018-06-01T09:59:16Z</time>
      </trkpt>
      <trkpt lat="47.97855" lon="-3.52862">
        <ele>105.75</ele>
        <time>2018-06-01T09:59:32Z</time>
      </trkpt>
      <trkpt lat="47.97861" lon="-3.52867">
        <ele>102.71</ele>
        <time>2018-06-01T09:59:45Z</time>
      </trkpt>
      <trkpt lat="47.97875" lon="-3.52878">
        <ele>99.57</ele>
        <time>2018-06-01T10:00:00Z</time>
      </trkpt>
      <trkpt lat="47.97886" lon="-3.52894">
        <ele>97.14</ele>
        <time>2018-06-01T10:00:13Z</time>
      </trkpt>
      <trkpt lat="47.97905" lon="-3.52911">
        <ele>95.43</ele>
        <time>2018-06-01T10:00:22Z</time>
      </trkpt>
      <trkpt lat="47.97908" lon="-3.52915">
        <ele>94.93</ele>
        <time>2018-06-01T10:00:25Z</time>
      </trkpt>
      <trkpt lat="47.97909" lon="-3.52915">
        <ele>94.37</ele>
        <time>2018-06-01T10:00:28Z</time>
      </trkpt>
      <trkpt lat="47.97918" lon="-3.52927">
        <ele>91.42</ele>
        <time>2018-06-01T10:00:42Z</time>
      </trkpt>
      <trkpt lat="47.9792" lon="-3.5293">
        <ele>90.97</ele>
        <time>2018-06-01T10:00:44Z</time>
      </trkpt>
      <trkpt lat="47.97922" lon="-3.52935">
        <ele>90.61</ele>
        <time>2018-06-01T10:00:46Z</time>
      </trkpt>
      <trkpt lat="47.97929" lon="-3.5296">
        <ele>88.24</ele>
        <time>2018-06-01T10:00:59Z</time>
      </trkpt>
      <trkpt lat="47.97929" lon="-3.5297">
        <ele>87.82</ele>
        <time>2018-06-01T10:01:03Z</time>
      </trkpt>
      <trkpt lat="47.97931" lon="-3.52984">
        <ele>87.26</ele>
        <time>2018-06-01T10:01:09Z</time>
      </trkpt>
      <trkpt lat="47.9793" lon="-3.52998">
        <ele>86.72</ele>
        <time>2018-06-01T10:01:15Z</time>
      </trkpt>
      <trkpt lat="47.9793" lon="-3.53002">
        <ele>86.56</ele>
        <time>2018-06-01T10:01:17Z</time>
      </trkpt>
      <trkpt lat="47.97935" lon="-3.53033">
        <ele>85.79</ele>
        <time>2018-06-01T10:01:27Z</time>
      </trkpt>
      <trkpt lat="47.97933" lon="-3.53048">
        <ele>85.09</ele>
        <time>2018-06-01T10:01:33Z</time>
      </trkpt>
      <trkpt lat="47.97935" lon="-3.53054">
        <ele>84.57</ele>
        <time>2018-06-01T10:01:37Z</time>
      </trkpt>
      <trkpt lat="47.97935" lon="-3.53064">
        <ele>83.83</ele>
        <time>2018-06-01T10:01:42Z</time>
      </trkpt>
      <trkpt lat="47.97933" lon="-3.53075">
        <ele>82.35</ele>
        <time>2018-06-01T10:01:50Z</time>
      </trkpt>
      <trkpt lat="47.97933" lon="-3.5308">
        <ele>82.05</ele>
        <time>2018-06-01T10:01:52Z</time>
      </trkpt>
      <trkpt lat="47.9792" lon="-3.53109">
        <ele>80.29</ele>
        <time>2018-06-01T10:02:11Z</time>
      </trkpt>
      <trkpt lat="47.97914" lon="-3.53137">
        <ele>80.35</ele>
        <time>2018-06-01T10:02:27Z</time>
      </trkpt>
      <trkpt lat="47.97913" lon="-3.53139">
        <ele>80.35</ele>
        <time>2018-06-01T10:02:28Z</time>
      </trkpt>
      <trkpt lat="47.97905" lon="-3.53167">
        <ele>80.3</ele>
        <time>2018-06-01T10:02:42Z</time>
      </trkpt>
      <trkpt lat="47.97891" lon="-3.53178">
        <ele>80.25</ele>
        <time>2018-06-01T10:02:52Z</time>
      </trkpt>
      <trkpt lat="47.97881" lon="-3.53218">
        <ele>80.37</ele>
        <time>2018-06-01T10:03:11Z</time>
      </trkpt>
      <trkpt lat="47.97877" lon="-3.53222">
        <ele>80.53</ele>
        <time>2018-06-01T10:03:14Z</time>
      </trkpt>
      <trkpt lat="47.9785" lon="-3.53241">
        <ele>80.59</ele>
        <time>2018-06-01T10:03:27Z</time>
      </trkpt>
      <trkpt lat="47.97836" lon="-3.53262">
        <ele>80.75</ele>
        <time>2018-06-01T10:03:39Z</time>
      </trkpt>
      <trkpt lat="47.97829" lon="-3.53267">
        <ele>80.77</ele>
        <time>2018-06-01T10:03:41Z</time>
      </trkpt>
      <trkpt lat="47.97819" lon="-3.53277">
        <ele>80.85</ele>
        <time>2018-06-01T10:03:45Z</time>
      </trkpt>
      <trkpt lat="47.97812" lon="-3.53299">
        <ele>80.66</ele>
        <time>2018-06-01T10:03:55Z</time>
      </trkpt>
      <trkpt lat="47.97801" lon="-3.53303">
        <ele>80.81</ele>
        <time>2018-06-01T10:04:06Z</time>
      </trkpt>
      <trkpt lat="47.97792" lon="-3.53301">
        <ele>80.85</ele>
        <time>2018-06-01T10:04:11Z</time>
      </trkpt>
      <trkpt lat="47.97786" lon="-3.533">
        <ele>80.86</ele>
        <time>2018-06-01T10:04:15Z</time>
      </trkpt>
      <trkpt lat="47.97775" lon="-3.53296">
        <ele>81.13</ele>
        <time>2018-06-01T10:04:24Z</time>
      </trkpt>
      <trkpt lat="47.97752" lon="-3.53301">
        <ele>79.61</ele>
        <time>2018-06-01T10:04:39Z</time>
      </trkpt>
      <trkpt lat="47.97752" lon="-3.53309">
        <ele>79.07</ele>
        <time>2018-06-01T10:04:50Z</time>
      </trkpt>
      <trkpt lat="47.9775" lon="-3.53321">
        <ele>79.43</ele>
        <time>2018-06-01T10:05:19Z</time>
      </trkpt>
      <trkpt lat="47.97748" lon="-3.53324">
        <ele>79.85</ele>
        <time>2018-06-01T10:05:26Z</time>
      </trkpt>
      <trkpt lat="47.9775" lon="-3.53331">
        <ele>79.96</ele>
        <time>2018-06-01T10:05:30Z</time>
      </trkpt>
      <trkpt lat="47.97768" lon="-3.53355">
        <ele>80.48</ele>
        <time>2018-06-01T10:05:45Z</time>
      </trkpt>
      <trkpt lat="47.9777" lon="-3.53358">
        <ele>80.47</ele>
        <time>2018-06-01T10:05:47Z</time>
      </trkpt>
      <trkpt lat="47.97775" lon="-3.5337">
        <ele>80.47</ele>
        <time>2018-06-01T10:05:52Z</time>
      </trkpt>
      <trkpt lat="47.97779" lon="-3.5338">
        <ele>80.77</ele>
        <time>2018-06-01T10:05:57Z</time>
      </trkpt>
      <trkpt lat="47.97789" lon="-3.53401">
        <ele>81.96</ele>
        <time>2018-06-01T10:06:08Z</time>
      </trkpt>
      <trkpt lat="47.9779" lon="-3.53429">
        <ele>84.96</ele>
        <time>2018-06-01T10:06:21Z</time>
      </trkpt>
      <trkpt lat="47.97783" lon="-3.53422">
        <ele>88.32</ele>
        <time>2018-06-01T10:06:35Z</time>
      </trkpt>
      <trkpt lat="47.97777" lon="-3.53416">
        <ele>89.03</ele>
        <time>2018-06-01T10:06:42Z</time>
      </trkpt>
      <trkpt lat="47.97762" lon="-3.53408">
        <ele>90.46</ele>
        <time>2018-06-01T10:06:54Z</time>
      </trkpt>
      <trkpt lat="47.97749" lon="-3.53405">
        <ele>93.2</ele>
        <time>2018-06-01T10:07:13Z</time>
      </trkpt>
      <trkpt lat="47.9773" lon="-3.5342">
        <ele>95.79</ele>
        <time>2018-06-01T10:07:30Z</time>
      </trkpt>
      <trkpt lat="47.97716" lon="-3.53445">
        <ele>98.08</ele>
        <time>2018-06-01T10:07:45Z</time>
      </trkpt>
      <trkpt lat="47.97689" lon="-3.53474">
        <ele>100.87</ele>
        <time>2018-06-01T10:07:59Z</time>
      </trkpt>
      <trkpt lat="47.97688" lon="-3.53488">
        <ele>102.64</ele>
        <time>2018-06-01T10:08:07Z</time>
      </trkpt>
      <trkpt lat="47.97697" lon="-3.53504">
        <ele>105.83</ele>
        <time>2018-06-01T10:08:20Z</time>
      </trkpt>
      <trkpt lat="47.977" lon="-3.53507">
        <ele>107.34</ele>
        <time>2018-06-01T10:08:27Z</time>
      </trkpt>
      <trkpt lat="47.9771" lon="-3.53517">
        <ele>108</ele>
        <time>2018-06-01T10:08:34Z</time>
      </trkpt>
      <trkpt lat="47.97721" lon="-3.53529">
        <ele>109.26</ele>
        <time>2018-06-01T10:08:43Z</time>
      </trkpt>
      <trkpt lat="47.97739" lon="-3.53555">
        <ele>110.08</ele>
        <time>2018-06-01T10:08:53Z</time>
      </trkpt>
      <trkpt lat="47.97741" lon="-3.5358">
        <ele>111.03</ele>
        <time>2018-06-01T10:08:59Z</time>
      </trkpt>
      <trkpt lat="47.97729" lon="-3.53611">
        <ele>111.4</ele>
        <time>2018-06-01T10:09:08Z</time>
      </trkpt>
      <trkpt lat="47.97725" lon="-3.53636">
        <ele>111.53</ele>
        <time>2018-06-01T10:09:13Z</time>
      </trkpt>
      <trkpt lat="47.97718" lon="-3.5368">
        <ele>112.19</ele>
        <time>2018-06-01T10:09:22Z</time>
      </trkpt>
      <trkpt lat="47.97708" lon="-3.53717">
        <ele>114.37</ele>
        <time>2018-06-01T10:09:32Z</time>
      </trkpt>
      <trkpt lat="47.97709" lon="-3.53731">
        <ele>114.83</ele>
        <time>2018-06-01T10:09:34Z</time>
      </trkpt>
      <trkpt lat="47.97708" lon="-3.53741">
        <ele>115.24</ele>
        <time>2018-06-01T10:09:36Z</time>
      </trkpt>
      <trkpt lat="47.97706" lon="-3.53765">
        <ele>116.12</ele>
        <time>2018-06-01T10:09:40Z</time>
      </trkpt>
      <trkpt lat="47.97683" lon="-3.5382">
        <ele>117.86</ele>
        <time>2018-06-01T10:09:52Z</time>
      </trkpt>
      <trkpt lat="47.97665" lon="-3.53849">
        <ele>118.42</ele>
        <time>2018-06-01T10:09:58Z</time>
      </trkpt>
      <trkpt lat="47.97662" lon="-3.53854">
        <ele>118.53</ele>
        <time>2018-06-01T10:09:59Z</time>
      </trkpt>
      <trkpt lat="47.97659" lon="-3.5386">
        <ele>118.64</ele>
        <time>2018-06-01T10:10:00Z</time>
      </trkpt>
      <trkpt lat="47.97657" lon="-3.53866">
        <ele>118.74</ele>
        <time>2018-06-01T10:10:01Z</time>
      </trkpt>
      <trkpt lat="47.97652" lon="-3.53871">
        <ele>118.81</ele>
        <time>2018-06-01T10:10:02Z</time>
      </trkpt>
      <trkpt lat="47.9764" lon="-3.53892">
        <ele>119.11</ele>
        <time>2018-06-01T10:10:05Z</time>
      </trkpt>
      <trkpt lat="47.97637" lon="-3.539">
        <ele>119.22</ele>
        <time>2018-06-01T10:10:06Z</time>
      </trkpt>
      <trkpt lat="47.97618" lon="-3.53939">
        <ele>120.17</ele>
        <time>2018-06-01T10:10:11Z</time>
      </trkpt>
      <trkpt lat="47.97616" lon="-3.53946">
        <ele>120.49</ele>
        <time>2018-06-01T10:10:12Z</time>
      </trkpt>
      <trkpt lat="47.97612" lon="-3.53975">
        <ele>122.34</ele>
        <time>2018-06-01T10:10:16Z</time>
      </trkpt>
      <trkpt lat="47.9761" lon="-3.5398">
        <ele>122.94</ele>
        <time>2018-06-01T10:10:17Z</time>
      </trkpt>
      <trkpt lat="47.97608" lon="-3.53982">
        <ele>124.2</ele>
        <time>2018-06-01T10:10:18Z</time>
      </trkpt>
      <trkpt lat="47.97607" lon="-3.53984">
        <ele>124.89</ele>
        <time>2018-06-01T10:10:19Z</time>
      </trkpt>
      <trkpt lat="47.97605" lon="-3.53985">
        <ele>125.65</ele>
        <time>2018-06-01T10:10:20Z</time>
      </trkpt>
      <trkpt lat="47.97589" lon="-3.53984">
        <ele>129.05</ele>
        <time>2018-06-01T10:10:25Z</time>
      </trkpt>
      <trkpt lat="47.97568" lon="-3.5399">
        <ele>132.18</ele>
        <time>2018-06-01T10:10:36Z</time>
      </trkpt>
      <trkpt lat="47.97567" lon="-3.53991">
        <ele>132.32</ele>
        <time>2018-06-01T10:10:37Z</time>
      </trkpt>
      <trkpt lat="47.97566" lon="-3.53992">
        <ele>132.43</ele>
        <time>2018-06-01T10:10:38Z</time>
      </trkpt>
      <trkpt lat="47.97564" lon="-3.53993">
        <ele>132.55</ele>
        <time>2018-06-01T10:10:39Z</time>
      </trkpt>
      <trkpt lat="47.97564" lon="-3.53995">
        <ele>132.63</ele>
        <time>2018-06-01T10:10:40Z</time>
      </trkpt>
      <trkpt lat="47.97563" lon="-3.53997">
        <ele>132.7</ele>
        <time>2018-06-01T10:10:41Z</time>
      </trkpt>
      <trkpt lat="47.9756" lon="-3.54005">
        <ele>133.03</ele>
        <time>2018-06-01T10:10:45Z</time>
      </trkpt>
      <trkpt lat="47.97559" lon="-3.54008">
        <ele>133.06</ele>
        <time>2018-06-01T10:10:46Z</time>
      </trkpt>
      <trkpt lat="47.97559" lon="-3.5401">
        <ele>133.09</ele>
        <time>2018-06-01T10:10:47Z</time>
      </trkpt>
      <trkpt lat="47.97559" lon="-3.54012">
        <ele>133.12</ele>
        <time>2018-06-01T10:10:48Z</time>
      </trkpt>
      <trkpt lat="47.97558" lon="-3.54014">
        <ele>133.13</ele>
        <time>2018-06-01T10:10:49Z</time>
      </trkpt>
      <trkpt lat="47.97549" lon="-3.54049">
        <ele>133.83</ele>
        <time>2018-06-01T10:11:03Z</time>
      </trkpt>
      <trkpt lat="47.97547" lon="-3.54055">
        <ele>133.91</ele>
        <time>2018-06-01T10:11:06Z</time>
      </trkpt>
      <trkpt lat="47.97543" lon="-3.54072">
        <ele>134.07</ele>
        <time>2018-06-01T10:11:14Z</time>
      </trkpt>
      <trkpt lat="47.97538" lon="-3.54103">
        <ele>133.93</ele>
        <time>2018-06-01T10:11:26Z</time>
      </trkpt>
      <trkpt lat="47.97535" lon="-3.54114">
        <ele>133.92</ele>
        <time>2018-06-01T10:11:31Z</time>
      </trkpt>
      <trkpt lat="47.97534" lon="-3.54117">
        <ele>133.92</ele>
        <time>2018-06-01T10:11:32Z</time>
      </trkpt>
      <trkpt lat="47.97533" lon="-3.5412">
        <ele>133.92</ele>
        <time>2018-06-01T10:11:33Z</time>
      </trkpt>
      <trkpt lat="47.97523" lon="-3.54149">
        <ele>133.72</ele>
        <time>2018-06-01T10:11:46Z</time>
      </trkpt>
      <trkpt lat="47.97522" lon="-3.54151">
        <ele>133.66</ele>
        <time>2018-06-01T10:11:47Z</time>
      </trkpt>
      <trkpt lat="47.97521" lon="-3.54153">
        <ele>133.6</ele>
        <time>2018-06-01T10:11:48Z</time>
      </trkpt>
      <trkpt lat="47.97507" lon="-3.54201">
        <ele>133.77</ele>
        <time>2018-06-01T10:12:09Z</time>
      </trkpt>
      <trkpt lat="47.97498" lon="-3.54246">
        <ele>133.79</ele>
        <time>2018-06-01T10:12:28Z</time>
      </trkpt>
      <trkpt lat="47.97482" lon="-3.54275">
        <ele>133.56</ele>
        <time>2018-06-01T10:12:44Z</time>
      </trkpt>
      <trkpt lat="47.97456" lon="-3.54286">
        <ele>133.17</ele>
        <time>2018-06-01T10:12:55Z</time>
      </trkpt>
      <trkpt lat="47.97437" lon="-3.54301">
        <ele>132.68</ele>
        <time>2018-06-01T10:13:10Z</time>
      </trkpt>
      <trkpt lat="47.97431" lon="-3.54306">
        <ele>132.93</ele>
        <time>2018-06-01T10:13:17Z</time>
      </trkpt>
      <trkpt lat="47.97429" lon="-3.54306">
        <ele>133.09</ele>
        <time>2018-06-01T10:13:18Z</time>
      </trkpt>
      <trkpt lat="47.97429" lon="-3.54307">
        <ele>133.21</ele>
        <time>2018-06-01T10:13:19Z</time>
      </trkpt>
      <trkpt lat="47.97416" lon="-3.54326">
        <ele>133.79</ele>
        <time>2018-06-01T10:13:35Z</time>
      </trkpt>
      <trkpt lat="47.97401" lon="-3.54348">
        <ele>133.83</ele>
        <time>2018-06-01T10:13:47Z</time>
      </trkpt>
      <trkpt lat="47.97378" lon="-3.54369">
        <ele>134.14</ele>
        <time>2018-06-01T10:14:00Z</time>
      </trkpt>
      <trkpt lat="47.97351" lon="-3.54381">
        <ele>134.63</ele>
        <time>2018-06-01T10:14:14Z</time>
      </trkpt>
      <trkpt lat="47.97329" lon="-3.54391">
        <ele>135.4</ele>
        <time>2018-06-01T10:14:29Z</time>
      </trkpt>
      <trkpt lat="47.97311" lon="-3.54399">
        <ele>136.24</ele>
        <time>2018-06-01T10:14:42Z</time>
      </trkpt>
      <trkpt lat="47.97307" lon="-3.54399">
        <ele>136.43</ele>
        <time>2018-06-01T10:14:45Z</time>
      </trkpt>
      <trkpt lat="47.97291" lon="-3.54405">
        <ele>137.82</ele>
        <time>2018-06-01T10:14:59Z</time>
      </trkpt>
      <trkpt lat="47.97268" lon="-3.54414">
        <ele>138.93</ele>
        <time>2018-06-01T10:15:13Z</time>
      </trkpt>
      <trkpt lat="47.97242" lon="-3.54422">
        <ele>140.77</ele>
        <time>2018-06-01T10:15:28Z</time>
      </trkpt>
      <trkpt lat="47.97234" lon="-3.54425">
        <ele>141.2</ele>
        <time>2018-06-01T10:15:32Z</time>
      </trkpt>
      <trkpt lat="47.97232" lon="-3.54425">
        <ele>141.31</ele>
        <time>2018-06-01T10:15:33Z</time>
      </trkpt>
      <trkpt lat="47.9723" lon="-3.54426">
        <ele>141.4</ele>
        <time>2018-06-01T10:15:34Z</time>
      </trkpt>
      <trkpt lat="47.97197" lon="-3.54432">
        <ele>142.9</ele>
        <time>2018-06-01T10:15:51Z</time>
      </trkpt>
      <trkpt lat="47.9717" lon="-3.54432">
        <ele>143.81</ele>
        <time>2018-06-01T10:16:08Z</time>
      </trkpt>
      <trkpt lat="47.97149" lon="-3.54431">
        <ele>144.3</ele>
        <time>2018-06-01T10:16:21Z</time>
      </trkpt>
      <trkpt lat="47.9713" lon="-3.54431">
        <ele>144.4</ele>
        <time>2018-06-01T10:16:34Z</time>
      </trkpt>
      <trkpt lat="47.97106" lon="-3.5444">
        <ele>143.56</ele>
        <time>2018-06-01T10:16:49Z</time>
      </trkpt>
      <trkpt lat="47.97093" lon="-3.54446">
        <ele>143.09</ele>
        <time>2018-06-01T10:16:58Z</time>
      </trkpt>
      <trkpt lat="47.97091" lon="-3.54446">
        <ele>143.06</ele>
        <time>2018-06-01T10:16:59Z</time>
      </trkpt>
      <trkpt lat="47.97089" lon="-3.54446">
        <ele>143.04</ele>
        <time>2018-06-01T10:17:00Z</time>
      </trkpt>
      <trkpt lat="47.97088" lon="-3.54447">
        <ele>143.02</ele>
        <time>2018-06-01T10:17:01Z</time>
      </trkpt>
      <trkpt lat="47.97086" lon="-3.54446">
        <ele>142.99</ele>
        <time>2018-06-01T10:17:02Z</time>
      </trkpt>
      <trkpt lat="47.97073" lon="-3.5445">
        <ele>142.52</ele>
        <time>2018-06-01T10:17:14Z</time>
      </trkpt>
      <trkpt lat="47.97053" lon="-3.5446">
        <ele>142.33</ele>
        <time>2018-06-01T10:17:26Z</time>
      </trkpt>
      <trkpt lat="47.97036" lon="-3.54469">
        <ele>142.18</ele>
        <time>2018-06-01T10:17:38Z</time>
      </trkpt>
      <trkpt lat="47.97033" lon="-3.5447">
        <ele>142.05</ele>
        <time>2018-06-01T10:17:40Z</time>
      </trkpt>
      <trkpt lat="47.97023" lon="-3.54467">
        <ele>141.52</ele>
        <time>2018-06-01T10:17:48Z</time>
      </trkpt>
      <trkpt lat="47.97022" lon="-3.54467">
        <ele>141.44</ele>
        <time>2018-06-01T10:17:49Z</time>
      </trkpt>
      <trkpt lat="47.9702" lon="-3.54466">
        <ele>141.36</ele>
        <time>2018-06-01T10:17:50Z</time>
      </trkpt>
      <trkpt lat="47.96997" lon="-3.54465">
        <ele>140.51</ele>
        <time>2018-06-01T10:18:04Z</time>
      </trkpt>
      <trkpt lat="47.9698" lon="-3.54468">
        <ele>139.75</ele>
        <time>2018-06-01T10:18:16Z</time>
      </trkpt>
      <trkpt lat="47.96967" lon="-3.54479">
        <ele>140</ele>
        <time>2018-06-01T10:18:28Z</time>
      </trkpt>
      <trkpt lat="47.96953" lon="-3.54505">
        <ele>141.56</ele>
        <time>2018-06-01T10:18:41Z</time>
      </trkpt>
      <trkpt lat="47.96939" lon="-3.54523">
        <ele>141.67</ele>
        <time>2018-06-01T10:18:51Z</time>
      </trkpt>
      <trkpt lat="47.96938" lon="-3.54523">
        <ele>141.67</ele>
        <time>2018-06-01T10:18:52Z</time>
      </trkpt>
      <trkpt lat="47.96936" lon="-3.54524">
        <ele>141.67</ele>
        <time>2018-06-01T10:18:53Z</time>
      </trkpt>
      <trkpt lat="47.96914" lon="-3.54547">
        <ele>140.65</ele>
        <time>2018-06-01T10:19:08Z</time>
      </trkpt>
      <trkpt lat="47.96905" lon="-3.54556">
        <ele>140.13</ele>
        <time>2018-06-01T10:19:14Z</time>
      </trkpt>
      <trkpt lat="47.96885" lon="-3.54564">
        <ele>139.32</ele>
        <time>2018-06-01T10:19:28Z</time>
      </trkpt>
      <trkpt lat="47.96884" lon="-3.54565">
        <ele>139.3</ele>
        <time>2018-06-01T10:19:29Z</time>
      </trkpt>
      <trkpt lat="47.96883" lon="-3.54565">
        <ele>139.28</ele>
        <time>2018-06-01T10:19:30Z</time>
      </trkpt>
      <trkpt lat="47.96881" lon="-3.54566">
        <ele>139.28</ele>
        <time>2018-06-01T10:19:31Z</time>
      </trkpt>
      <trkpt lat="47.9688" lon="-3.54567">
        <ele>139.3</ele>
        <time>2018-06-01T10:19:32Z</time>
      </trkpt>
      <trkpt lat="47.96878" lon="-3.54569">
        <ele>139.32</ele>
        <time>2018-06-01T10:19:33Z</time>
      </trkpt>
      <trkpt lat="47.96856" lon="-3.54589">
        <ele>139.36</ele>
        <time>2018-06-01T10:19:47Z</time>
      </trkpt>
      <trkpt lat="47.96837" lon="-3.54614">
        <ele>139.71</ele>
        <time>2018-06-01T10:20:02Z</time>
      </trkpt>
      <trkpt lat="47.96815" lon="-3.54639">
        <ele>139.95</ele>
        <time>2018-06-01T10:20:18Z</time>
      </trkpt>
      <trkpt lat="47.96795" lon="-3.54661">
        <ele>140.7</ele>
        <time>2018-06-01T10:20:33Z</time>
      </trkpt>
      <trkpt lat="47.96778" lon="-3.5468">
        <ele>141.21</ele>
        <time>2018-06-01T10:20:46Z</time>
      </trkpt>
      <trkpt lat="47.96762" lon="-3.54699">
        <ele>142.05</ele>
        <time>2018-06-01T10:20:59Z</time>
      </trkpt>
      <trkpt lat="47.96742" lon="-3.54722">
        <ele>143.04</ele>
        <time>2018-06-01T10:21:14Z</time>
      </trkpt>
      <trkpt lat="47.96734" lon="-3.54732">
        <ele>143.64</ele>
        <time>2018-06-01T10:21:21Z</time>
      </trkpt>
      <trkpt lat="47.96733" lon="-3.54733">
        <ele>143.72</ele>
        <time>2018-06-01T10:21:22Z</time>
      </trkpt>
      <trkpt lat="47.96733" lon="-3.54735">
        <ele>143.78</ele>
        <time>2018-06-01T10:21:23Z</time>
      </trkpt>
      <trkpt lat="47.96732" lon="-3.54736">
        <ele>143.86</ele>
        <time>2018-06-01T10:21:24Z</time>
      </trkpt>
      <trkpt lat="47.96731" lon="-3.54738">
        <ele>143.93</ele>
        <time>2018-06-01T10:21:25Z</time>
      </trkpt>
      <trkpt lat="47.9673" lon="-3.54739">
        <ele>144.01</ele>
        <time>2018-06-01T10:21:26Z</time>
      </trkpt>
      <trkpt lat="47.9673" lon="-3.54741">
        <ele>144.13</ele>
        <time>2018-06-01T10:21:27Z</time>
      </trkpt>
      <trkpt lat="47.96729" lon="-3.54743">
        <ele>144.28</ele>
        <time>2018-06-01T10:21:28Z</time>
      </trkpt>
      <trkpt lat="47.96729" lon="-3.54745">
        <ele>144.43</ele>
        <time>2018-06-01T10:21:29Z</time>
      </trkpt>
      <trkpt lat="47.96729" lon="-3.54747">
        <ele>144.58</ele>
        <time>2018-06-01T10:21:30Z</time>
      </trkpt>
      <trkpt lat="47.96728" lon="-3.54753">
        <ele>145.04</ele>
        <time>2018-06-01T10:21:34Z</time>
      </trkpt>
      <trkpt lat="47.96723" lon="-3.54789">
        <ele>145.54</ele>
        <time>2018-06-01T10:21:50Z</time>
      </trkpt>
      <trkpt lat="47.96712" lon="-3.54824">
        <ele>144.57</ele>
        <time>2018-06-01T10:22:06Z</time>
      </trkpt>
      <trkpt lat="47.96693" lon="-3.54865">
        <ele>143.51</ele>
        <time>2018-06-01T10:22:25Z</time>
      </trkpt>
      <trkpt lat="47.96675" lon="-3.54905">
        <ele>143.03</ele>
        <time>2018-06-01T10:22:44Z</time>
      </trkpt>
      <trkpt lat="47.96664" lon="-3.54938">
        <ele>142.49</ele>
        <time>2018-06-01T10:23:00Z</time>
      </trkpt>
      <trkpt lat="47.96649" lon="-3.54979">
        <ele>143.39</ele>
        <time>2018-06-01T10:23:20Z</time>
      </trkpt>
      <trkpt lat="47.9664" lon="-3.55004">
        <ele>143.82</ele>
        <time>2018-06-01T10:23:33Z</time>
      </trkpt>
      <trkpt lat="47.96628" lon="-3.55027">
        <ele>143.88</ele>
        <time>2018-06-01T10:23:46Z</time>
      </trkpt>
      <trkpt lat="47.9661" lon="-3.55049">
        <ele>143.51</ele>
        <time>2018-06-01T10:24:00Z</time>
      </trkpt>
      <trkpt lat="47.96599" lon="-3.55067">
        <ele>143.13</ele>
        <time>2018-06-01T10:24:11Z</time>
      </trkpt>
      <trkpt lat="47.96581" lon="-3.5509">
        <ele>143.43</ele>
        <time>2018-06-01T10:24:25Z</time>
      </trkpt>
      <trkpt lat="47.96563" lon="-3.55115">
        <ele>143.59</ele>
        <time>2018-06-01T10:24:40Z</time>
      </trkpt>
      <trkpt lat="47.96548" lon="-3.55137">
        <ele>144.28</ele>
        <time>2018-06-01T10:24:55Z</time>
      </trkpt>
      <trkpt lat="47.9653" lon="-3.55145">
        <ele>144.32</ele>
        <time>2018-06-01T10:25:09Z</time>
      </trkpt>
      <trkpt lat="47.96518" lon="-3.55106">
        <ele>143.62</ele>
        <time>2018-06-01T10:25:29Z</time>
      </trkpt>
      <trkpt lat="47.96512" lon="-3.55059">
        <ele>142.33</ele>
        <time>2018-06-01T10:25:49Z</time>
      </trkpt>
      <trkpt lat="47.96512" lon="-3.55017">
        <ele>141.08</ele>
        <time>2018-06-01T10:26:06Z</time>
      </trkpt>
      <trkpt lat="47.96507" lon="-3.55009">
        <ele>140.86</ele>
        <time>2018-06-01T10:26:12Z</time>
      </trkpt>
      <trkpt lat="47.96506" lon="-3.55009">
        <ele>140.83</ele>
        <time>2018-06-01T10:26:13Z</time>
      </trkpt>
      <trkpt lat="47.9648" lon="-3.55022">
        <ele>142.43</ele>
        <time>2018-06-01T10:26:30Z</time>
      </trkpt>
      <trkpt lat="47.96444" lon="-3.55042">
        <ele>143.01</ele>
        <time>2018-06-01T10:26:52Z</time>
      </trkpt>
      <trkpt lat="47.96415" lon="-3.5506">
        <ele>142.43</ele>
        <time>2018-06-01T10:27:10Z</time>
      </trkpt>
      <trkpt lat="47.96391" lon="-3.5509">
        <ele>141.98</ele>
        <time>2018-06-01T10:27:29Z</time>
      </trkpt>
      <trkpt lat="47.9637" lon="-3.55115">
        <ele>142.68</ele>
        <time>2018-06-01T10:27:46Z</time>
      </trkpt>
      <trkpt lat="47.96347" lon="-3.55142">
        <ele>143.43</ele>
        <time>2018-06-01T10:28:05Z</time>
      </trkpt>
      <trkpt lat="47.96327" lon="-3.55163">
        <ele>144.34</ele>
        <time>2018-06-01T10:28:21Z</time>
      </trkpt>
      <trkpt lat="47.96305" lon="-3.55174">
        <ele>144.34</ele>
        <time>2018-06-01T10:28:36Z</time>
      </trkpt>
      <trkpt lat="47.9628" lon="-3.55185">
        <ele>143.49</ele>
        <time>2018-06-01T10:28:54Z</time>
      </trkpt>
      <trkpt lat="47.96269" lon="-3.55198">
        <ele>142.12</ele>
        <time>2018-06-01T10:29:05Z</time>
      </trkpt>
      <trkpt lat="47.96268" lon="-3.552">
        <ele>142.04</ele>
        <time>2018-06-01T10:29:06Z</time>
      </trkpt>
      <trkpt lat="47.96268" lon="-3.55203">
        <ele>141.96</ele>
        <time>2018-06-01T10:29:07Z</time>
      </trkpt>
      <trkpt lat="47.96265" lon="-3.55209">
        <ele>141.76</ele>
        <time>2018-06-01T10:29:11Z</time>
      </trkpt>
      <trkpt lat="47.96264" lon="-3.55211">
        <ele>141.72</ele>
        <time>2018-06-01T10:29:12Z</time>
      </trkpt>
      <trkpt lat="47.96264" lon="-3.55213">
        <ele>141.68</ele>
        <time>2018-06-01T10:29:13Z</time>
      </trkpt>
      <trkpt lat="47.96263" lon="-3.55215">
        <ele>141.65</ele>
        <time>2018-06-01T10:29:14Z</time>
      </trkpt>
      <trkpt lat="47.96262" lon="-3.55217">
        <ele>141.63</ele>
        <time>2018-06-01T10:29:15Z</time>
      </trkpt>
      <trkpt lat="47.96261" lon="-3.55218">
        <ele>141.62</ele>
        <time>2018-06-01T10:29:16Z</time>
      </trkpt>
      <trkpt lat="47.9626" lon="-3.5522">
        <ele>141.61</ele>
        <time>2018-06-01T10:29:17Z</time>
      </trkpt>
      <trkpt lat="47.9626" lon="-3.55221">
        <ele>141.59</ele>
        <time>2018-06-01T10:29:18Z</time>
      </trkpt>
      <trkpt lat="47.96249" lon="-3.55236">
        <ele>139.57</ele>
        <time>2018-06-01T10:29:32Z</time>
      </trkpt>
      <trkpt lat="47.96244" lon="-3.55239">
        <ele>138.71</ele>
        <time>2018-06-01T10:29:37Z</time>
      </trkpt>
      <trkpt lat="47.9624" lon="-3.55243">
        <ele>137.93</ele>
        <time>2018-06-01T10:29:41Z</time>
      </trkpt>
      <trkpt lat="47.96239" lon="-3.55245">
        <ele>137.74</ele>
        <time>2018-06-01T10:29:42Z</time>
      </trkpt>
      <trkpt lat="47.96229" lon="-3.55256">
        <ele>136.09</ele>
        <time>2018-06-01T10:29:51Z</time>
      </trkpt>
      <trkpt lat="47.96228" lon="-3.55257">
        <ele>135.97</ele>
        <time>2018-06-01T10:29:52Z</time>
      </trkpt>
      <trkpt lat="47.96226" lon="-3.55258">
        <ele>135.86</ele>
        <time>2018-06-01T10:29:53Z</time>
      </trkpt>
      <trkpt lat="47.96224" lon="-3.55259">
        <ele>135.7</ele>
        <time>2018-06-01T10:29:54Z</time>
      </trkpt>
      <trkpt lat="47.96223" lon="-3.55261">
        <ele>135.64</ele>
        <time>2018-06-01T10:29:55Z</time>
      </trkpt>
      <trkpt lat="47.96203" lon="-3.55285">
        <ele>135.22</ele>
        <time>2018-06-01T10:30:08Z</time>
      </trkpt>
      <trkpt lat="47.96187" lon="-3.55301">
        <ele>134.49</ele>
        <time>2018-06-01T10:30:20Z</time>
      </trkpt>
      <trkpt lat="47.96184" lon="-3.55303">
        <ele>134.37</ele>
        <time>2018-06-01T10:30:22Z</time>
      </trkpt>
      <trkpt lat="47.96182" lon="-3.55306">
        <ele>134.31</ele>
        <time>2018-06-01T10:30:23Z</time>
      </trkpt>
      <trkpt lat="47.9618" lon="-3.55308">
        <ele>134.28</ele>
        <time>2018-06-01T10:30:24Z</time>
      </trkpt>
      <trkpt lat="47.96179" lon="-3.5531">
        <ele>134.26</ele>
        <time>2018-06-01T10:30:25Z</time>
      </trkpt>
      <trkpt lat="47.96178" lon="-3.55311">
        <ele>134.25</ele>
        <time>2018-06-01T10:30:26Z</time>
      </trkpt>
      <trkpt lat="47.96176" lon="-3.55312">
        <ele>134.24</ele>
        <time>2018-06-01T10:30:27Z</time>
      </trkpt>
      <trkpt lat="47.96174" lon="-3.55313">
        <ele>134.21</ele>
        <time>2018-06-01T10:30:28Z</time>
      </trkpt>
      <trkpt lat="47.96173" lon="-3.55314">
        <ele>134.15</ele>
        <time>2018-06-01T10:30:29Z</time>
      </trkpt>
      <trkpt lat="47.96171" lon="-3.55315">
        <ele>134.07</ele>
        <time>2018-06-01T10:30:30Z</time>
      </trkpt>
      <trkpt lat="47.96164" lon="-3.55319">
        <ele>133.63</ele>
        <time>2018-06-01T10:30:34Z</time>
      </trkpt>
      <trkpt lat="47.96163" lon="-3.5532">
        <ele>133.58</ele>
        <time>2018-06-01T10:30:35Z</time>
      </trkpt>
      <trkpt lat="47.96142" lon="-3.55337">
        <ele>133.4</ele>
        <time>2018-06-01T10:30:47Z</time>
      </trkpt>
      <trkpt lat="47.96115" lon="-3.5535">
        <ele>132.85</ele>
        <time>2018-06-01T10:30:56Z</time>
      </trkpt>
      <trkpt lat="47.96075" lon="-3.55374">
        <ele>132.26</ele>
        <time>2018-06-01T10:31:07Z</time>
      </trkpt>
      <trkpt lat="47.9605" lon="-3.5539">
        <ele>132.6</ele>
        <time>2018-06-01T10:31:20Z</time>
      </trkpt>
      <trkpt lat="47.96033" lon="-3.55397">
        <ele>132.62</ele>
        <time>2018-06-01T10:31:32Z</time>
      </trkpt>
      <trkpt lat="47.96031" lon="-3.55398">
        <ele>132.62</ele>
        <time>2018-06-01T10:31:33Z</time>
      </trkpt>
      <trkpt lat="47.9603" lon="-3.554">
        <ele>132.65</ele>
        <time>2018-06-01T10:31:34Z</time>
      </trkpt>
      <trkpt lat="47.96029" lon="-3.55401">
        <ele>132.68</ele>
        <time>2018-06-01T10:31:35Z</time>
      </trkpt>
      <trkpt lat="47.96028" lon="-3.55403">
        <ele>132.71</ele>
        <time>2018-06-01T10:31:36Z</time>
      </trkpt>
      <trkpt lat="47.96027" lon="-3.55404">
        <ele>132.72</ele>
        <time>2018-06-01T10:31:37Z</time>
      </trkpt>
      <trkpt lat="47.96019" lon="-3.5541">
        <ele>132.48</ele>
        <time>2018-06-01T10:31:43Z</time>
      </trkpt>
      <trkpt lat="47.96018" lon="-3.5541">
        <ele>132.41</ele>
        <time>2018-06-01T10:31:44Z</time>
      </trkpt>
      <trkpt lat="47.95999" lon="-3.55425">
        <ele>131.74</ele>
        <time>2018-06-01T10:31:58Z</time>
      </trkpt>
      <trkpt lat="47.95994" lon="-3.55429">
        <ele>131.57</ele>
        <time>2018-06-01T10:32:02Z</time>
      </trkpt>
      <trkpt lat="47.95992" lon="-3.5543">
        <ele>131.5</ele>
        <time>2018-06-01T10:32:03Z</time>
      </trkpt>
      <trkpt lat="47.95975" lon="-3.55439">
        <ele>130.83</ele>
        <time>2018-06-01T10:32:15Z</time>
      </trkpt>
      <trkpt lat="47.95954" lon="-3.5545">
        <ele>130.16</ele>
        <time>2018-06-01T10:32:30Z</time>
      </trkpt>
      <trkpt lat="47.95932" lon="-3.55455">
        <ele>129.86</ele>
        <time>2018-06-01T10:32:44Z</time>
      </trkpt>
      <trkpt lat="47.95914" lon="-3.55458">
        <ele>129.65</ele>
        <time>2018-06-01T10:32:55Z</time>
      </trkpt>
      <trkpt lat="47.95909" lon="-3.55458">
        <ele>129.71</ele>
        <time>2018-06-01T10:32:58Z</time>
      </trkpt>
      <trkpt lat="47.95908" lon="-3.55459">
        <ele>129.74</ele>
        <time>2018-06-01T10:32:59Z</time>
      </trkpt>
      <trkpt lat="47.95892" lon="-3.55461">
        <ele>129.94</ele>
        <time>2018-06-01T10:33:10Z</time>
      </trkpt>
      <trkpt lat="47.95868" lon="-3.55462">
        <ele>131.19</ele>
        <time>2018-06-01T10:33:28Z</time>
      </trkpt>
      <trkpt lat="47.95866" lon="-3.55462">
        <ele>131.31</ele>
        <time>2018-06-01T10:33:29Z</time>
      </trkpt>
      <trkpt lat="47.95851" lon="-3.55467">
        <ele>132.2</ele>
        <time>2018-06-01T10:33:37Z</time>
      </trkpt>
      <trkpt lat="47.95849" lon="-3.55467">
        <ele>132.29</ele>
        <time>2018-06-01T10:33:38Z</time>
      </trkpt>
      <trkpt lat="47.95847" lon="-3.55468">
        <ele>132.36</ele>
        <time>2018-06-01T10:33:39Z</time>
      </trkpt>
      <trkpt lat="47.95846" lon="-3.55468">
        <ele>132.42</ele>
        <time>2018-06-01T10:33:40Z</time>
      </trkpt>
      <trkpt lat="47.95844" lon="-3.55468">
        <ele>132.48</ele>
        <time>2018-06-01T10:33:41Z</time>
      </trkpt>
      <trkpt lat="47.95842" lon="-3.55467">
        <ele>132.55</ele>
        <time>2018-06-01T10:33:42Z</time>
      </trkpt>
      <trkpt lat="47.95839" lon="-3.55468">
        <ele>132.63</ele>
        <time>2018-06-01T10:33:43Z</time>
      </trkpt>
      <trkpt lat="47.95836" lon="-3.55468">
        <ele>132.71</ele>
        <time>2018-06-01T10:33:44Z</time>
      </trkpt>
      <trkpt lat="47.95824" lon="-3.55464">
        <ele>133.19</ele>
        <time>2018-06-01T10:33:52Z</time>
      </trkpt>
      <trkpt lat="47.95823" lon="-3.55463">
        <ele>133.22</ele>
        <time>2018-06-01T10:33:53Z</time>
      </trkpt>
      <trkpt lat="47.95822" lon="-3.55462">
        <ele>133.24</ele>
        <time>2018-06-01T10:33:54Z</time>
      </trkpt>
      <trkpt lat="47.9582" lon="-3.55462">
        <ele>133.24</ele>
        <time>2018-06-01T10:33:55Z</time>
      </trkpt>
      <trkpt lat="47.95819" lon="-3.55461">
        <ele>133.23</ele>
        <time>2018-06-01T10:33:56Z</time>
      </trkpt>
      <trkpt lat="47.95818" lon="-3.55459">
        <ele>133.22</ele>
        <time>2018-06-01T10:33:57Z</time>
      </trkpt>
      <trkpt lat="47.95816" lon="-3.55458">
        <ele>133.22</ele>
        <time>2018-06-01T10:33:58Z</time>
      </trkpt>
      <trkpt lat="47.95815" lon="-3.55457">
        <ele>133.21</ele>
        <time>2018-06-01T10:33:59Z</time>
      </trkpt>
      <trkpt lat="47.95814" lon="-3.55456">
        <ele>133.19</ele>
        <time>2018-06-01T10:34:00Z</time>
      </trkpt>
      <trkpt lat="47.95813" lon="-3.55454">
        <ele>133.15</ele>
        <time>2018-06-01T10:34:01Z</time>
      </trkpt>
      <trkpt lat="47.95812" lon="-3.55454">
        <ele>133.13</ele>
        <time>2018-06-01T10:34:02Z</time>
      </trkpt>
      <trkpt lat="47.9581" lon="-3.55453">
        <ele>133.1</ele>
        <time>2018-06-01T10:34:03Z</time>
      </trkpt>
      <trkpt lat="47.95809" lon="-3.55452">
        <ele>133.07</ele>
        <time>2018-06-01T10:34:04Z</time>
      </trkpt>
      <trkpt lat="47.95808" lon="-3.55451">
        <ele>133.03</ele>
        <time>2018-06-01T10:34:05Z</time>
      </trkpt>
      <trkpt lat="47.95806" lon="-3.5545">
        <ele>132.99</ele>
        <time>2018-06-01T10:34:06Z</time>
      </trkpt>
      <trkpt lat="47.95789" lon="-3.55438">
        <ele>132.62</ele>
        <time>2018-06-01T10:34:18Z</time>
      </trkpt>
      <trkpt lat="47.95765" lon="-3.55417">
        <ele>131.65</ele>
        <time>2018-06-01T10:34:35Z</time>
      </trkpt>
      <trkpt lat="47.95737" lon="-3.55383">
        <ele>130.33</ele>
        <time>2018-06-01T10:34:56Z</time>
      </trkpt>
      <trkpt lat="47.95732" lon="-3.55378">
        <ele>130.1</ele>
        <time>2018-06-01T10:35:07Z</time>
      </trkpt>
      <trkpt lat="47.95731" lon="-3.55377">
        <ele>130.07</ele>
        <time>2018-06-01T10:35:08Z</time>
      </trkpt>
      <trkpt lat="47.9573" lon="-3.55376">
        <ele>130.02</ele>
        <time>2018-06-01T10:35:09Z</time>
      </trkpt>
      <trkpt lat="47.95729" lon="-3.55375">
        <ele>129.96</ele>
        <time>2018-06-01T10:35:10Z</time>
      </trkpt>
      <trkpt lat="47.95728" lon="-3.55374">
        <ele>129.9</ele>
        <time>2018-06-01T10:35:11Z</time>
      </trkpt>
      <trkpt lat="47.95702" lon="-3.55353">
        <ele>129.18</ele>
        <time>2018-06-01T10:35:30Z</time>
      </trkpt>
      <trkpt lat="47.95694" lon="-3.55348">
        <ele>128.86</ele>
        <time>2018-06-01T10:35:43Z</time>
      </trkpt>
      <trkpt lat="47.9569" lon="-3.55338">
        <ele>128.6</ele>
        <time>2018-06-01T10:35:56Z</time>
      </trkpt>
      <trkpt lat="47.95688" lon="-3.55338">
        <ele>128.3</ele>
        <time>2018-06-01T10:36:07Z</time>
      </trkpt>
      <trkpt lat="47.95684" lon="-3.55337">
        <ele>128.27</ele>
        <time>2018-06-01T10:36:10Z</time>
      </trkpt>
      <trkpt lat="47.95683" lon="-3.55336">
        <ele>128.26</ele>
        <time>2018-06-01T10:36:11Z</time>
      </trkpt>
      <trkpt lat="47.95682" lon="-3.55335">
        <ele>128.27</ele>
        <time>2018-06-01T10:36:12Z</time>
      </trkpt>
      <trkpt lat="47.9568" lon="-3.55334">
        <ele>128.26</ele>
        <time>2018-06-01T10:36:13Z</time>
      </trkpt>
      <trkpt lat="47.95679" lon="-3.55333">
        <ele>128.27</ele>
        <time>2018-06-01T10:36:14Z</time>
      </trkpt>
      <trkpt lat="47.95657" lon="-3.55325">
        <ele>128.29</ele>
        <time>2018-06-01T10:36:30Z</time>
      </trkpt>
      <trkpt lat="47.95636" lon="-3.55316">
        <ele>127.76</ele>
        <time>2018-06-01T10:36:44Z</time>
      </trkpt>
      <trkpt lat="47.95607" lon="-3.55303">
        <ele>126.53</ele>
        <time>2018-06-01T10:37:01Z</time>
      </trkpt>
      <trkpt lat="47.95573" lon="-3.55286">
        <ele>125.04</ele>
        <time>2018-06-01T10:37:22Z</time>
      </trkpt>
      <trkpt lat="47.95547" lon="-3.55272">
        <ele>123.22</ele>
        <time>2018-06-01T10:37:39Z</time>
      </trkpt>
      <trkpt lat="47.95519" lon="-3.55257">
        <ele>120.15</ele>
        <time>2018-06-01T10:37:57Z</time>
      </trkpt>
      <trkpt lat="47.95492" lon="-3.55244">
        <ele>118.24</ele>
        <time>2018-06-01T10:38:15Z</time>
      </trkpt>
      <trkpt lat="47.9547" lon="-3.55234">
        <ele>116.34</ele>
        <time>2018-06-01T10:38:31Z</time>
      </trkpt>
      <trkpt lat="47.95461" lon="-3.5523">
        <ele>115.33</ele>
        <time>2018-06-01T10:38:38Z</time>
      </trkpt>
      <trkpt lat="47.95446" lon="-3.55236">
        <ele>114.21</ele>
        <time>2018-06-01T10:38:49Z</time>
      </trkpt>
      <trkpt lat="47.95424" lon="-3.55259">
        <ele>112.98</ele>
        <time>2018-06-01T10:39:05Z</time>
      </trkpt>
      <trkpt lat="47.95412" lon="-3.55293">
        <ele>112.55</ele>
        <time>2018-06-01T10:39:21Z</time>
      </trkpt>
      <trkpt lat="47.95406" lon="-3.55335">
        <ele>112.36</ele>
        <time>2018-06-01T10:39:39Z</time>
      </trkpt>
      <trkpt lat="47.95392" lon="-3.55358">
        <ele>112.78</ele>
        <time>2018-06-01T10:39:55Z</time>
      </trkpt>
      <trkpt lat="47.95371" lon="-3.5536">
        <ele>112.92</ele>
        <time>2018-06-01T10:40:09Z</time>
      </trkpt>
      <trkpt lat="47.95352" lon="-3.55334">
        <ele>112.42</ele>
        <time>2018-06-01T10:40:27Z</time>
      </trkpt>
      <trkpt lat="47.9534" lon="-3.55301">
        <ele>111.14</ele>
        <time>2018-06-01T10:40:44Z</time>
      </trkpt>
      <trkpt lat="47.95331" lon="-3.55275">
        <ele>109.25</ele>
        <time>2018-06-01T10:40:57Z</time>
      </trkpt>
      <trkpt lat="47.9533" lon="-3.55272">
        <ele>109.15</ele>
        <time>2018-06-01T10:40:58Z</time>
      </trkpt>
      <trkpt lat="47.9533" lon="-3.5527">
        <ele>109.07</ele>
        <time>2018-06-01T10:40:59Z</time>
      </trkpt>
      <trkpt lat="47.95322" lon="-3.55245">
        <ele>107.76</ele>
        <time>2018-06-01T10:41:11Z</time>
      </trkpt>
      <trkpt lat="47.95315" lon="-3.55223">
        <ele>106.26</ele>
        <time>2018-06-01T10:41:24Z</time>
      </trkpt>
      <trkpt lat="47.95308" lon="-3.55206">
        <ele>105.62</ele>
        <time>2018-06-01T10:41:33Z</time>
      </trkpt>
      <trkpt lat="47.953" lon="-3.55202">
        <ele>105.5</ele>
        <time>2018-06-01T10:41:38Z</time>
      </trkpt>
      <trkpt lat="47.95284" lon="-3.55193">
        <ele>106.05</ele>
        <time>2018-06-01T10:41:49Z</time>
      </trkpt>
      <trkpt lat="47.9527" lon="-3.55181">
        <ele>105.73</ele>
        <time>2018-06-01T10:42:04Z</time>
      </trkpt>
      <trkpt lat="47.95274" lon="-3.55183">
        <ele>105.78</ele>
        <time>2018-06-01T10:42:37Z</time>
      </trkpt>
      <trkpt lat="47.95274" lon="-3.55182">
        <ele>105.67</ele>
        <time>2018-06-01T10:43:04Z</time>
      </trkpt>
      <trkpt lat="47.95273" lon="-3.5518">
        <ele>105.74</ele>
        <time>2018-06-01T10:43:24Z</time>
      </trkpt>
      <trkpt lat="47.95268" lon="-3.55174">
        <ele>106.14</ele>
        <time>2018-06-01T10:43:46Z</time>
      </trkpt>
      <trkpt lat="47.95258" lon="-3.55165">
        <ele>105.18</ele>
        <time>2018-06-01T10:44:00Z</time>
      </trkpt>
      <trkpt lat="47.95256" lon="-3.5516">
        <ele>104.3</ele>
        <time>2018-06-01T10:44:18Z</time>
      </trkpt>
      <trkpt lat="47.95256" lon="-3.5516">
        <ele>104.06</ele>
        <time>2018-06-01T10:44:43Z</time>
      </trkpt>
      <trkpt lat="47.95252" lon="-3.55158">
        <ele>103.98</ele>
        <time>2018-06-01T10:45:11Z</time>
      </trkpt>
      <trkpt lat="47.95247" lon="-3.55159">
        <ele>104.65</ele>
        <time>2018-06-01T10:45:31Z</time>
      </trkpt>
      <trkpt lat="47.95239" lon="-3.5516">
        <ele>104.02</ele>
        <time>2018-06-01T10:45:40Z</time>
      </trkpt>
      <trkpt lat="47.95237" lon="-3.55161">
        <ele>103.85</ele>
        <time>2018-06-01T10:45:41Z</time>
      </trkpt>
      <trkpt lat="47.95228" lon="-3.55168">
        <ele>102.29</ele>
        <time>2018-06-01T10:45:51Z</time>
      </trkpt>
      <trkpt lat="47.95225" lon="-3.55171">
        <ele>101.48</ele>
        <time>2018-06-01T10:45:55Z</time>
      </trkpt>
      <trkpt lat="47.95217" lon="-3.55182">
        <ele>100.61</ele>
        <time>2018-06-01T10:46:01Z</time>
      </trkpt>
      <trkpt lat="47.95215" lon="-3.55184">
        <ele>100.29</ele>
        <time>2018-06-01T10:46:03Z</time>
      </trkpt>
      <trkpt lat="47.95199" lon="-3.55198">
        <ele>99.45</ele>
        <time>2018-06-01T10:46:17Z</time>
      </trkpt>
      <trkpt lat="47.95194" lon="-3.55204">
        <ele>98.92</ele>
        <time>2018-06-01T10:46:21Z</time>
      </trkpt>
      <trkpt lat="47.95178" lon="-3.55217">
        <ele>97.78</ele>
        <time>2018-06-01T10:46:33Z</time>
      </trkpt>
      <trkpt lat="47.95157" lon="-3.55223">
        <ele>96.27</ele>
        <time>2018-06-01T10:46:47Z</time>
      </trkpt>
      <trkpt lat="47.95153" lon="-3.55221">
        <ele>95.87</ele>
        <time>2018-06-01T10:46:50Z</time>
      </trkpt>
      <trkpt lat="47.95147" lon="-3.55216">
        <ele>95.19</ele>
        <time>2018-06-01T10:46:56Z</time>
      </trkpt>
      <trkpt lat="47.95132" lon="-3.55213">
        <ele>93.79</ele>
        <time>2018-06-01T10:47:09Z</time>
      </trkpt>
      <trkpt lat="47.95121" lon="-3.55209">
        <ele>92.97</ele>
        <time>2018-06-01T10:47:20Z</time>
      </trkpt>
      <trkpt lat="47.95109" lon="-3.55208">
        <ele>92.2</ele>
        <time>2018-06-01T10:47:29Z</time>
      </trkpt>
      <trkpt lat="47.95092" lon="-3.55212">
        <ele>90.89</ele>
        <time>2018-06-01T10:47:43Z</time>
      </trkpt>
      <trkpt lat="47.9508" lon="-3.55213">
        <ele>90.43</ele>
        <time>2018-06-01T10:47:57Z</time>
      </trkpt>
      <trkpt lat="47.95063" lon="-3.55213">
        <ele>89.1</ele>
        <time>2018-06-01T10:48:14Z</time>
      </trkpt>
      <trkpt lat="47.95048" lon="-3.55232">
        <ele>88.59</ele>
        <time>2018-06-01T10:48:22Z</time>
      </trkpt>
      <trkpt lat="47.95035" lon="-3.55231">
        <ele>87.97</ele>
        <time>2018-06-01T10:48:36Z</time>
      </trkpt>
      <trkpt lat="47.95025" lon="-3.55221">
        <ele>87.24</ele>
        <time>2018-06-01T10:48:47Z</time>
      </trkpt>
      <trkpt lat="47.95006" lon="-3.55212">
        <ele>86.54</ele>
        <time>2018-06-01T10:49:04Z</time>
      </trkpt>
      <trkpt lat="47.95001" lon="-3.55213">
        <ele>86.31</ele>
        <time>2018-06-01T10:49:07Z</time>
      </trkpt>
      <trkpt lat="47.94972" lon="-3.55235">
        <ele>85.88</ele>
        <time>2018-06-01T10:49:23Z</time>
      </trkpt>
      <trkpt lat="47.94956" lon="-3.55234">
        <ele>84.71</ele>
        <time>2018-06-01T10:49:35Z</time>
      </trkpt>
      <trkpt lat="47.94946" lon="-3.55228">
        <ele>83.96</ele>
        <time>2018-06-01T10:49:41Z</time>
      </trkpt>
      <trkpt lat="47.94939" lon="-3.55225">
        <ele>83.46</ele>
        <time>2018-06-01T10:49:45Z</time>
      </trkpt>
      <trkpt lat="47.94911" lon="-3.55195">
        <ele>82.51</ele>
        <time>2018-06-01T10:50:00Z</time>
      </trkpt>
      <trkpt lat="47.9489" lon="-3.55141">
        <ele>81.29</ele>
        <time>2018-06-01T10:50:12Z</time>
      </trkpt>
      <trkpt lat="47.94881" lon="-3.55073">
        <ele>81.01</ele>
        <time>2018-06-01T10:50:24Z</time>
      </trkpt>
      <trkpt lat="47.9488" lon="-3.5505">
        <ele>81.1</ele>
        <time>2018-06-01T10:50:27Z</time>
      </trkpt>
      <trkpt lat="47.9488" lon="-3.55042">
        <ele>81.13</ele>
        <time>2018-06-01T10:50:28Z</time>
      </trkpt>
      <trkpt lat="47.94874" lon="-3.54946">
        <ele>82.83</ele>
        <time>2018-06-01T10:50:40Z</time>
      </trkpt>
      <trkpt lat="47.94872" lon="-3.54897">
        <ele>85.5</ele>
        <time>2018-06-01T10:50:49Z</time>
      </trkpt>
      <trkpt lat="47.94861" lon="-3.54838">
        <ele>87.78</ele>
        <time>2018-06-01T10:51:01Z</time>
      </trkpt>
      <trkpt lat="47.94849" lon="-3.54772">
        <ele>87.33</ele>
        <time>2018-06-01T10:51:13Z</time>
      </trkpt>
      <trkpt lat="47.94845" lon="-3.54725">
        <ele>86.51</ele>
        <time>2018-06-01T10:51:24Z</time>
      </trkpt>
      <trkpt lat="47.94846" lon="-3.54718">
        <ele>86.05</ele>
        <time>2018-06-01T10:51:28Z</time>
      </trkpt>
      <trkpt lat="47.94846" lon="-3.54716">
        <ele>85.9</ele>
        <time>2018-06-01T10:51:29Z</time>
      </trkpt>
      <trkpt lat="47.94846" lon="-3.54714">
        <ele>85.76</ele>
        <time>2018-06-01T10:51:30Z</time>
      </trkpt>
      <trkpt lat="47.94847" lon="-3.54712">
        <ele>85.52</ele>
        <time>2018-06-01T10:51:31Z</time>
      </trkpt>
      <trkpt lat="47.94847" lon="-3.54711">
        <ele>85.41</ele>
        <time>2018-06-01T10:51:32Z</time>
      </trkpt>
      <trkpt lat="47.94861" lon="-3.54696">
        <ele>86.19</ele>
        <time>2018-06-01T10:51:48Z</time>
      </trkpt>
      <trkpt lat="47.94872" lon="-3.54693">
        <ele>88.01</ele>
        <time>2018-06-01T10:52:01Z</time>
      </trkpt>
      <trkpt lat="47.94888" lon="-3.54695">
        <ele>91.11</ele>
        <time>2018-06-01T10:52:20Z</time>
      </trkpt>
      <trkpt lat="47.94896" lon="-3.54695">
        <ele>92.62</ele>
        <time>2018-06-01T10:52:27Z</time>
      </trkpt>
      <trkpt lat="47.94898" lon="-3.54695">
        <ele>92.89</ele>
        <time>2018-06-01T10:52:29Z</time>
      </trkpt>
      <trkpt lat="47.94918" lon="-3.54698">
        <ele>96.05</ele>
        <time>2018-06-01T10:52:45Z</time>
      </trkpt>
      <trkpt lat="47.94936" lon="-3.54705">
        <ele>98.42</ele>
        <time>2018-06-01T10:53:02Z</time>
      </trkpt>
      <trkpt lat="47.94953" lon="-3.5471">
        <ele>101.05</ele>
        <time>2018-06-01T10:53:17Z</time>
      </trkpt>
      <trkpt lat="47.94969" lon="-3.54717">
        <ele>103.09</ele>
        <time>2018-06-01T10:53:31Z</time>
      </trkpt>
      <trkpt lat="47.94993" lon="-3.54722">
        <ele>105.44</ele>
        <time>2018-06-01T10:53:50Z</time>
      </trkpt>
      <trkpt lat="47.95001" lon="-3.54722">
        <ele>105.77</ele>
        <time>2018-06-01T10:53:56Z</time>
      </trkpt>
      <trkpt lat="47.95016" lon="-3.54722">
        <ele>106.67</ele>
        <time>2018-06-01T10:54:10Z</time>
      </trkpt>
      <trkpt lat="47.95045" lon="-3.54721">
        <ele>107.52</ele>
        <time>2018-06-01T10:54:31Z</time>
      </trkpt>
      <trkpt lat="47.95049" lon="-3.54722">
        <ele>107.6</ele>
        <time>2018-06-01T10:54:34Z</time>
      </trkpt>
      <trkpt lat="47.95066" lon="-3.54724">
        <ele>108.35</ele>
        <time>2018-06-01T10:54:48Z</time>
      </trkpt>
      <trkpt lat="47.95107" lon="-3.54717">
        <ele>109.59</ele>
        <time>2018-06-01T10:55:01Z</time>
      </trkpt>
      <trkpt lat="47.95131" lon="-3.54716">
        <ele>111.76</ele>
        <time>2018-06-01T10:55:12Z</time>
      </trkpt>
      <trkpt lat="47.95136" lon="-3.54716">
        <ele>112.32</ele>
        <time>2018-06-01T10:55:14Z</time>
      </trkpt>
      <trkpt lat="47.95143" lon="-3.54715">
        <ele>113.23</ele>
        <time>2018-06-01T10:55:25Z</time>
      </trkpt>
      <trkpt lat="47.95158" lon="-3.54717">
        <ele>114.27</ele>
        <time>2018-06-01T10:55:38Z</time>
      </trkpt>
      <trkpt lat="47.95176" lon="-3.54717">
        <ele>115.42</ele>
        <time>2018-06-01T10:55:51Z</time>
      </trkpt>
      <trkpt lat="47.95196" lon="-3.54713">
        <ele>116.18</ele>
        <time>2018-06-01T10:56:04Z</time>
      </trkpt>
      <trkpt lat="47.95204" lon="-3.54705">
        <ele>116.73</ele>
        <time>2018-06-01T10:56:10Z</time>
      </trkpt>
      <trkpt lat="47.95209" lon="-3.54697">
        <ele>116.94</ele>
        <time>2018-06-01T10:56:15Z</time>
      </trkpt>
      <trkpt lat="47.95227" lon="-3.5467">
        <ele>116.75</ele>
        <time>2018-06-01T10:56:30Z</time>
      </trkpt>
      <trkpt lat="47.95238" lon="-3.54639">
        <ele>116.58</ele>
        <time>2018-06-01T10:56:46Z</time>
      </trkpt>
      <trkpt lat="47.9524" lon="-3.5461">
        <ele>116.41</ele>
        <time>2018-06-01T10:56:58Z</time>
      </trkpt>
      <trkpt lat="47.95242" lon="-3.54582">
        <ele>116.24</ele>
        <time>2018-06-01T10:57:13Z</time>
      </trkpt>
      <trkpt lat="47.95242" lon="-3.54576">
        <ele>116.29</ele>
        <time>2018-06-01T10:57:15Z</time>
      </trkpt>
      <trkpt lat="47.95239" lon="-3.54559">
        <ele>116.4</ele>
        <time>2018-06-01T10:57:22Z</time>
      </trkpt>
      <trkpt lat="47.95252" lon="-3.54536">
        <ele>116.54</ele>
        <time>2018-06-01T10:57:36Z</time>
      </trkpt>
      <trkpt lat="47.95277" lon="-3.54505">
        <ele>116.36</ele>
        <time>2018-06-01T10:57:55Z</time>
      </trkpt>
      <trkpt lat="47.95285" lon="-3.5447">
        <ele>116.77</ele>
        <time>2018-06-01T10:58:05Z</time>
      </trkpt>
      <trkpt lat="47.95272" lon="-3.54415">
        <ele>117.79</ele>
        <time>2018-06-01T10:58:16Z</time>
      </trkpt>
      <trkpt lat="47.95247" lon="-3.54385">
        <ele>117.42</ele>
        <time>2018-06-01T10:58:27Z</time>
      </trkpt>
      <trkpt lat="47.9522" lon="-3.54367">
        <ele>115.33</ele>
        <time>2018-06-01T10:58:41Z</time>
      </trkpt>
      <trkpt lat="47.95198" lon="-3.54352">
        <ele>112.2</ele>
        <time>2018-06-01T10:58:57Z</time>
      </trkpt>
      <trkpt lat="47.95196" lon="-3.54349">
        <ele>111.81</ele>
        <time>2018-06-01T10:58:59Z</time>
      </trkpt>
      <trkpt lat="47.95206" lon="-3.54319">
        <ele>109.36</ele>
        <time>2018-06-01T10:59:09Z</time>
      </trkpt>
      <trkpt lat="47.95209" lon="-3.54311">
        <ele>108.85</ele>
        <time>2018-06-01T10:59:12Z</time>
      </trkpt>
      <trkpt lat="47.95212" lon="-3.54291">
        <ele>108.69</ele>
        <time>2018-06-01T10:59:19Z</time>
      </trkpt>
      <trkpt lat="47.95223" lon="-3.54255">
        <ele>107.88</ele>
        <time>2018-06-01T10:59:28Z</time>
      </trkpt>
      <trkpt lat="47.95244" lon="-3.54212">
        <ele>107.89</ele>
        <time>2018-06-01T10:59:39Z</time>
      </trkpt>
      <trkpt lat="47.95252" lon="-3.54194">
        <ele>107.76</ele>
        <time>2018-06-01T10:59:44Z</time>
      </trkpt>
      <trkpt lat="47.95255" lon="-3.54189">
        <ele>107.76</ele>
        <time>2018-06-01T10:59:46Z</time>
      </trkpt>
      <trkpt lat="47.95255" lon="-3.54137">
        <ele>107.93</ele>
        <time>2018-06-01T10:59:56Z</time>
      </trkpt>
      <trkpt lat="47.95255" lon="-3.54132">
        <ele>108.03</ele>
        <time>2018-06-01T10:59:57Z</time>
      </trkpt>
      <trkpt lat="47.95255" lon="-3.54119">
        <ele>108.25</ele>
        <time>2018-06-01T10:59:59Z</time>
      </trkpt>
      <trkpt lat="47.95255" lon="-3.54113">
        <ele>108.42</ele>
        <time>2018-06-01T11:00:00Z</time>
      </trkpt>
      <trkpt lat="47.95255" lon="-3.54108">
        <ele>108.96</ele>
        <time>2018-06-01T11:00:01Z</time>
      </trkpt>
      <trkpt lat="47.95254" lon="-3.54103">
        <ele>109.35</ele>
        <time>2018-06-01T11:00:02Z</time>
      </trkpt>
      <trkpt lat="47.95254" lon="-3.54097">
        <ele>109.8</ele>
        <time>2018-06-01T11:00:03Z</time>
      </trkpt>
      <trkpt lat="47.95254" lon="-3.54077">
        <ele>113.08</ele>
        <time>2018-06-01T11:00:10Z</time>
      </trkpt>
      <trkpt lat="47.9526" lon="-3.54009">
        <ele>115.42</ele>
        <time>2018-06-01T11:00:20Z</time>
      </trkpt>
      <trkpt lat="47.95254" lon="-3.53974">
        <ele>117.78</ele>
        <time>2018-06-01T11:00:32Z</time>
      </trkpt>
      <trkpt lat="47.95254" lon="-3.53967">
        <ele>117.91</ele>
        <time>2018-06-01T11:00:33Z</time>
      </trkpt>
      <trkpt lat="47.95251" lon="-3.53963">
        <ele>118.14</ele>
        <time>2018-06-01T11:00:35Z</time>
      </trkpt>
      <trkpt lat="47.95249" lon="-3.5396">
        <ele>118.22</ele>
        <time>2018-06-01T11:00:36Z</time>
      </trkpt>
      <trkpt lat="47.95249" lon="-3.53958">
        <ele>118.31</ele>
        <time>2018-06-01T11:00:37Z</time>
      </trkpt>
      <trkpt lat="47.95248" lon="-3.53956">
        <ele>118.38</ele>
        <time>2018-06-01T11:00:38Z</time>
      </trkpt>
      <trkpt lat="47.95248" lon="-3.53948">
        <ele>118.47</ele>
        <time>2018-06-01T11:00:39Z</time>
      </trkpt>
      <trkpt lat="47.95247" lon="-3.53943">
        <ele>118.55</ele>
        <time>2018-06-01T11:00:40Z</time>
      </trkpt>
      <trkpt lat="47.95246" lon="-3.5394">
        <ele>118.63</ele>
        <time>2018-06-01T11:00:41Z</time>
      </trkpt>
      <trkpt lat="47.95246" lon="-3.53936">
        <ele>118.72</ele>
        <time>2018-06-01T11:00:42Z</time>
      </trkpt>
      <trkpt lat="47.95245" lon="-3.53933">
        <ele>118.79</ele>
        <time>2018-06-01T11:00:43Z</time>
      </trkpt>
      <trkpt lat="47.95245" lon="-3.53928">
        <ele>118.87</ele>
        <time>2018-06-01T11:00:44Z</time>
      </trkpt>
      <trkpt lat="47.95244" lon="-3.53926">
        <ele>118.92</ele>
        <time>2018-06-01T11:00:45Z</time>
      </trkpt>
      <trkpt lat="47.95241" lon="-3.53912">
        <ele>119.21</ele>
        <time>2018-06-01T11:00:50Z</time>
      </trkpt>
      <trkpt lat="47.95242" lon="-3.53908">
        <ele>119.27</ele>
        <time>2018-06-01T11:00:51Z</time>
      </trkpt>
      <trkpt lat="47.95242" lon="-3.53906">
        <ele>119.36</ele>
        <time>2018-06-01T11:00:52Z</time>
      </trkpt>
      <trkpt lat="47.95241" lon="-3.53904">
        <ele>119.4</ele>
        <time>2018-06-01T11:00:53Z</time>
      </trkpt>
      <trkpt lat="47.95234" lon="-3.53873">
        <ele>119.26</ele>
        <time>2018-06-01T11:01:05Z</time>
      </trkpt>
      <trkpt lat="47.95235" lon="-3.53871">
        <ele>119.24</ele>
        <time>2018-06-01T11:01:06Z</time>
      </trkpt>
      <trkpt lat="47.95236" lon="-3.53869">
        <ele>119.23</ele>
        <time>2018-06-01T11:01:07Z</time>
      </trkpt>
      <trkpt lat="47.95237" lon="-3.53868">
        <ele>119.2</ele>
        <time>2018-06-01T11:01:08Z</time>
      </trkpt>
      <trkpt lat="47.95238" lon="-3.53866">
        <ele>119.19</ele>
        <time>2018-06-01T11:01:09Z</time>
      </trkpt>
      <trkpt lat="47.95239" lon="-3.53864">
        <ele>119.17</ele>
        <time>2018-06-01T11:01:10Z</time>
      </trkpt>
      <trkpt lat="47.9524" lon="-3.53863">
        <ele>119.18</ele>
        <time>2018-06-01T11:01:11Z</time>
      </trkpt>
      <trkpt lat="47.95242" lon="-3.53861">
        <ele>119.25</ele>
        <time>2018-06-01T11:01:12Z</time>
      </trkpt>
      <trkpt lat="47.95243" lon="-3.5386">
        <ele>119.47</ele>
        <time>2018-06-01T11:01:13Z</time>
      </trkpt>
      <trkpt lat="47.95244" lon="-3.53858">
        <ele>119.57</ele>
        <time>2018-06-01T11:01:14Z</time>
      </trkpt>
      <trkpt lat="47.95246" lon="-3.53857">
        <ele>119.67</ele>
        <time>2018-06-01T11:01:15Z</time>
      </trkpt>
      <trkpt lat="47.9526" lon="-3.53838">
        <ele>120.51</ele>
        <time>2018-06-01T11:01:26Z</time>
      </trkpt>
      <trkpt lat="47.95273" lon="-3.53818">
        <ele>121.51</ele>
        <time>2018-06-01T11:01:38Z</time>
      </trkpt>
      <trkpt lat="47.95279" lon="-3.53814">
        <ele>121.97</ele>
        <time>2018-06-01T11:01:43Z</time>
      </trkpt>
      <trkpt lat="47.95281" lon="-3.53813">
        <ele>122.03</ele>
        <time>2018-06-01T11:01:44Z</time>
      </trkpt>
      <trkpt lat="47.95282" lon="-3.53811">
        <ele>122.12</ele>
        <time>2018-06-01T11:01:45Z</time>
      </trkpt>
      <trkpt lat="47.95283" lon="-3.53808">
        <ele>122.19</ele>
        <time>2018-06-01T11:01:46Z</time>
      </trkpt>
      <trkpt lat="47.95285" lon="-3.53806">
        <ele>122.25</ele>
        <time>2018-06-01T11:01:47Z</time>
      </trkpt>
      <trkpt lat="47.95285" lon="-3.53804">
        <ele>122.3</ele>
        <time>2018-06-01T11:01:48Z</time>
      </trkpt>
      <trkpt lat="47.95286" lon="-3.53802">
        <ele>122.35</ele>
        <time>2018-06-01T11:01:49Z</time>
      </trkpt>
      <trkpt lat="47.95288" lon="-3.538">
        <ele>122.4</ele>
        <time>2018-06-01T11:01:50Z</time>
      </trkpt>
      <trkpt lat="47.95289" lon="-3.538">
        <ele>122.45</ele>
        <time>2018-06-01T11:01:51Z</time>
      </trkpt>
      <trkpt lat="47.95294" lon="-3.53798">
        <ele>122.67</ele>
        <time>2018-06-01T11:01:55Z</time>
      </trkpt>
      <trkpt lat="47.95299" lon="-3.53797">
        <ele>122.8</ele>
        <time>2018-06-01T11:01:58Z</time>
      </trkpt>
      <trkpt lat="47.953" lon="-3.53797">
        <ele>122.82</ele>
        <time>2018-06-01T11:01:59Z</time>
      </trkpt>
      <trkpt lat="47.9532" lon="-3.53787">
        <ele>123.59</ele>
        <time>2018-06-01T11:02:12Z</time>
      </trkpt>
      <trkpt lat="47.95338" lon="-3.5378">
        <ele>123.71</ele>
        <time>2018-06-01T11:02:25Z</time>
      </trkpt>
      <trkpt lat="47.95345" lon="-3.53761">
        <ele>124.37</ele>
        <time>2018-06-01T11:02:37Z</time>
      </trkpt>
      <trkpt lat="47.95356" lon="-3.53731">
        <ele>124.78</ele>
        <time>2018-06-01T11:02:49Z</time>
      </trkpt>
      <trkpt lat="47.95357" lon="-3.53723">
        <ele>125.01</ele>
        <time>2018-06-01T11:02:51Z</time>
      </trkpt>
      <trkpt lat="47.95361" lon="-3.53714">
        <ele>125.26</ele>
        <time>2018-06-01T11:02:54Z</time>
      </trkpt>
      <trkpt lat="47.95366" lon="-3.5367">
        <ele>126.38</ele>
        <time>2018-06-01T11:03:04Z</time>
      </trkpt>
      <trkpt lat="47.95374" lon="-3.53629">
        <ele>128.5</ele>
        <time>2018-06-01T11:03:16Z</time>
      </trkpt>
      <trkpt lat="47.95369" lon="-3.53599">
        <ele>128.95</ele>
        <time>2018-06-01T11:03:31Z</time>
      </trkpt>
      <trkpt lat="47.95393" lon="-3.53589">
        <ele>129.16</ele>
        <time>2018-06-01T11:03:40Z</time>
      </trkpt>
      <trkpt lat="47.95413" lon="-3.53588">
        <ele>129.51</ele>
        <time>2018-06-01T11:03:45Z</time>
      </trkpt>
      <trkpt lat="47.95451" lon="-3.5358">
        <ele>131.27</ele>
        <time>2018-06-01T11:03:56Z</time>
      </trkpt>
      <trkpt lat="47.95454" lon="-3.5358">
        <ele>131.66</ele>
        <time>2018-06-01T11:03:58Z</time>
      </trkpt>
      <trkpt lat="47.95468" lon="-3.53567">
        <ele>132.99</ele>
        <time>2018-06-01T11:04:05Z</time>
      </trkpt>
      <trkpt lat="47.95475" lon="-3.53552">
        <ele>134.12</ele>
        <time>2018-06-01T11:04:10Z</time>
      </trkpt>
      <trkpt lat="47.95505" lon="-3.53535">
        <ele>136.08</ele>
        <time>2018-06-01T11:04:21Z</time>
      </trkpt>
      <trkpt lat="47.95521" lon="-3.5352">
        <ele>136.89</ele>
        <time>2018-06-01T11:04:28Z</time>
      </trkpt>
      <trkpt lat="47.9553" lon="-3.53513">
        <ele>137.16</ele>
        <time>2018-06-01T11:04:31Z</time>
      </trkpt>
      <trkpt lat="47.95536" lon="-3.53502">
        <ele>137.48</ele>
        <time>2018-06-01T11:04:34Z</time>
      </trkpt>
      <trkpt lat="47.95542" lon="-3.53494">
        <ele>137.95</ele>
        <time>2018-06-01T11:04:38Z</time>
      </trkpt>
      <trkpt lat="47.95554" lon="-3.53487">
        <ele>138.29</ele>
        <time>2018-06-01T11:04:42Z</time>
      </trkpt>
      <trkpt lat="47.95606" lon="-3.53486">
        <ele>138.6</ele>
        <time>2018-06-01T11:04:55Z</time>
      </trkpt>
      <trkpt lat="47.95639" lon="-3.53495">
        <ele>138.29</ele>
        <time>2018-06-01T11:05:05Z</time>
      </trkpt>
      <trkpt lat="47.95671" lon="-3.53515">
        <ele>138.09</ele>
        <time>2018-06-01T11:05:15Z</time>
      </trkpt>
      <trkpt lat="47.95688" lon="-3.53531">
        <ele>138.01</ele>
        <time>2018-06-01T11:05:21Z</time>
      </trkpt>
      <trkpt lat="47.95691" lon="-3.53533">
        <ele>138</ele>
        <time>2018-06-01T11:05:22Z</time>
      </trkpt>
      <trkpt lat="47.95695" lon="-3.53536">
        <ele>138</ele>
        <time>2018-06-01T11:05:23Z</time>
      </trkpt>
      <trkpt lat="47.95699" lon="-3.53539">
        <ele>138.01</ele>
        <time>2018-06-01T11:05:24Z</time>
      </trkpt>
      <trkpt lat="47.95702" lon="-3.53541">
        <ele>138.01</ele>
        <time>2018-06-01T11:05:25Z</time>
      </trkpt>
      <trkpt lat="47.95728" lon="-3.53566">
        <ele>138.03</ele>
        <time>2018-06-01T11:05:36Z</time>
      </trkpt>
      <trkpt lat="47.95755" lon="-3.53588">
        <ele>138.63</ele>
        <time>2018-06-01T11:05:52Z</time>
      </trkpt>
      <trkpt lat="47.9578" lon="-3.53612">
        <ele>139.1</ele>
        <time>2018-06-01T11:06:08Z</time>
      </trkpt>
      <trkpt lat="47.95802" lon="-3.53642">
        <ele>140.03</ele>
        <time>2018-06-01T11:06:27Z</time>
      </trkpt>
      <trkpt lat="47.95819" lon="-3.5367">
        <ele>140.43</ele>
        <time>2018-06-01T11:06:43Z</time>
      </trkpt>
      <trkpt lat="47.95841" lon="-3.53695">
        <ele>140.62</ele>
        <time>2018-06-01T11:07:01Z</time>
      </trkpt>
      <trkpt lat="47.95862" lon="-3.53715">
        <ele>141.09</ele>
        <time>2018-06-01T11:07:17Z</time>
      </trkpt>
      <trkpt lat="47.95882" lon="-3.53737">
        <ele>140.81</ele>
        <time>2018-06-01T11:07:34Z</time>
      </trkpt>
      <trkpt lat="47.9589" lon="-3.53744">
        <ele>140.8</ele>
        <time>2018-06-01T11:07:42Z</time>
      </trkpt>
      <trkpt lat="47.95895" lon="-3.53754">
        <ele>140.45</ele>
        <time>2018-06-01T11:07:52Z</time>
      </trkpt>
      <trkpt lat="47.95895" lon="-3.53755">
        <ele>140.42</ele>
        <time>2018-06-01T11:07:53Z</time>
      </trkpt>
      <trkpt lat="47.95891" lon="-3.53759">
        <ele>140.31</ele>
        <time>2018-06-01T11:08:10Z</time>
      </trkpt>
      <trkpt lat="47.95891" lon="-3.53754">
        <ele>140.24</ele>
        <time>2018-06-01T11:08:16Z</time>
      </trkpt>
      <trkpt lat="47.95893" lon="-3.53752">
        <ele>140.22</ele>
        <time>2018-06-01T11:08:18Z</time>
      </trkpt>
      <trkpt lat="47.95898" lon="-3.53744">
        <ele>140.42</ele>
        <time>2018-06-01T11:08:34Z</time>
      </trkpt>
      <trkpt lat="47.959" lon="-3.53742">
        <ele>140.32</ele>
        <time>2018-06-01T11:08:53Z</time>
      </trkpt>
      <trkpt lat="47.95902" lon="-3.53738">
        <ele>140.42</ele>
        <time>2018-06-01T11:08:56Z</time>
      </trkpt>
      <trkpt lat="47.95903" lon="-3.53737">
        <ele>140.44</ele>
        <time>2018-06-01T11:08:57Z</time>
      </trkpt>
      <trkpt lat="47.95904" lon="-3.53736">
        <ele>140.46</ele>
        <time>2018-06-01T11:08:58Z</time>
      </trkpt>
      <trkpt lat="47.9592" lon="-3.53712">
        <ele>140.83</ele>
        <time>2018-06-01T11:09:16Z</time>
      </trkpt>
      <trkpt lat="47.95923" lon="-3.53711">
        <ele>140.89</ele>
        <time>2018-06-01T11:09:18Z</time>
      </trkpt>
      <trkpt lat="47.95924" lon="-3.53711">
        <ele>140.92</ele>
        <time>2018-06-01T11:09:19Z</time>
      </trkpt>
      <trkpt lat="47.95941" lon="-3.53707">
        <ele>141.23</ele>
        <time>2018-06-01T11:09:37Z</time>
      </trkpt>
      <trkpt lat="47.95944" lon="-3.537">
        <ele>141.22</ele>
        <time>2018-06-01T11:09:45Z</time>
      </trkpt>
      <trkpt lat="47.95945" lon="-3.53698">
        <ele>141.19</ele>
        <time>2018-06-01T11:09:46Z</time>
      </trkpt>
      <trkpt lat="47.95954" lon="-3.53678">
        <ele>141.05</ele>
        <time>2018-06-01T11:10:01Z</time>
      </trkpt>
      <trkpt lat="47.95954" lon="-3.53677">
        <ele>140.86</ele>
        <time>2018-06-01T11:10:19Z</time>
      </trkpt>
      <trkpt lat="47.95954" lon="-3.53677">
        <ele>140.72</ele>
        <time>2018-06-01T11:10:27Z</time>
      </trkpt>
      <trkpt lat="47.95955" lon="-3.53676">
        <ele>140.76</ele>
        <time>2018-06-01T11:10:29Z</time>
      </trkpt>
      <trkpt lat="47.95957" lon="-3.53673">
        <ele>140.79</ele>
        <time>2018-06-01T11:10:32Z</time>
      </trkpt>
      <trkpt lat="47.95956" lon="-3.53659">
        <ele>140.66</ele>
        <time>2018-06-01T11:10:42Z</time>
      </trkpt>
      <trkpt lat="47.95955" lon="-3.53658">
        <ele>140.62</ele>
        <time>2018-06-01T11:10:43Z</time>
      </trkpt>
      <trkpt lat="47.95953" lon="-3.53653">
        <ele>140.5</ele>
        <time>2018-06-01T11:10:46Z</time>
      </trkpt>
      <trkpt lat="47.95956" lon="-3.53648">
        <ele>140.22</ele>
        <time>2018-06-01T11:10:58Z</time>
      </trkpt>
      <trkpt lat="47.95952" lon="-3.53644">
        <ele>140.21</ele>
        <time>2018-06-01T11:11:10Z</time>
      </trkpt>
      <trkpt lat="47.95951" lon="-3.53643">
        <ele>140.18</ele>
        <time>2018-06-01T11:11:11Z</time>
      </trkpt>
      <trkpt lat="47.9595" lon="-3.53642">
        <ele>140.19</ele>
        <time>2018-06-01T11:11:12Z</time>
      </trkpt>
      <trkpt lat="47.9595" lon="-3.5364">
        <ele>140.2</ele>
        <time>2018-06-01T11:11:13Z</time>
      </trkpt>
      <trkpt lat="47.95957" lon="-3.53622">
        <ele>139.82</ele>
        <time>2018-06-01T11:14:37Z</time>
      </trkpt>
      <trkpt lat="47.95958" lon="-3.53623">
        <ele>139.8</ele>
        <time>2018-06-01T11:14:38Z</time>
      </trkpt>
      <trkpt lat="47.9596" lon="-3.53624">
        <ele>139.82</ele>
        <time>2018-06-01T11:14:39Z</time>
      </trkpt>
      <trkpt lat="47.95969" lon="-3.53627">
        <ele>140.17</ele>
        <time>2018-06-01T11:14:51Z</time>
      </trkpt>
      <trkpt lat="47.95969" lon="-3.53625">
        <ele>140.19</ele>
        <time>2018-06-01T11:14:52Z</time>
      </trkpt>
      <trkpt lat="47.95969" lon="-3.53624">
        <ele>140.21</ele>
        <time>2018-06-01T11:14:53Z</time>
      </trkpt>
      <trkpt lat="47.9597" lon="-3.53622">
        <ele>140.27</ele>
        <time>2018-06-01T11:14:54Z</time>
      </trkpt>
      <trkpt lat="47.9597" lon="-3.53621">
        <ele>140.36</ele>
        <time>2018-06-01T11:14:55Z</time>
      </trkpt>
      <trkpt lat="47.95971" lon="-3.53619">
        <ele>140.45</ele>
        <time>2018-06-01T11:14:56Z</time>
      </trkpt>
      <trkpt lat="47.95975" lon="-3.53595">
        <ele>141.05</ele>
        <time>2018-06-01T11:15:09Z</time>
      </trkpt>
      <trkpt lat="47.95975" lon="-3.53583">
        <ele>140.97</ele>
        <time>2018-06-01T11:15:15Z</time>
      </trkpt>
      <trkpt lat="47.95975" lon="-3.53581">
        <ele>140.96</ele>
        <time>2018-06-01T11:15:16Z</time>
      </trkpt>
      <trkpt lat="47.95978" lon="-3.53542">
        <ele>140.87</ele>
        <time>2018-06-01T11:15:34Z</time>
      </trkpt>
      <trkpt lat="47.95981" lon="-3.535">
        <ele>140.35</ele>
        <time>2018-06-01T11:15:52Z</time>
      </trkpt>
      <trkpt lat="47.95982" lon="-3.53494">
        <ele>140.14</ele>
        <time>2018-06-01T11:15:56Z</time>
      </trkpt>
      <trkpt lat="47.95982" lon="-3.53492">
        <ele>140.09</ele>
        <time>2018-06-01T11:15:57Z</time>
      </trkpt>
      <trkpt lat="47.95983" lon="-3.5349">
        <ele>140.05</ele>
        <time>2018-06-01T11:15:58Z</time>
      </trkpt>
      <trkpt lat="47.95988" lon="-3.53469">
        <ele>140.14</ele>
        <time>2018-06-01T11:16:10Z</time>
      </trkpt>
      <trkpt lat="47.95988" lon="-3.53466">
        <ele>140.14</ele>
        <time>2018-06-01T11:16:11Z</time>
      </trkpt>
      <trkpt lat="47.95989" lon="-3.53463">
        <ele>140.12</ele>
        <time>2018-06-01T11:16:12Z</time>
      </trkpt>
      <trkpt lat="47.9599" lon="-3.53461">
        <ele>140.11</ele>
        <time>2018-06-01T11:16:13Z</time>
      </trkpt>
      <trkpt lat="47.95991" lon="-3.53459">
        <ele>140.11</ele>
        <time>2018-06-01T11:16:14Z</time>
      </trkpt>
      <trkpt lat="47.95992" lon="-3.53457">
        <ele>140.1</ele>
        <time>2018-06-01T11:16:15Z</time>
      </trkpt>
      <trkpt lat="47.95993" lon="-3.53455">
        <ele>140.09</ele>
        <time>2018-06-01T11:16:16Z</time>
      </trkpt>
      <trkpt lat="47.95995" lon="-3.53453">
        <ele>140.09</ele>
        <time>2018-06-01T11:16:17Z</time>
      </trkpt>
      <trkpt lat="47.95996" lon="-3.53451">
        <ele>140.09</ele>
        <time>2018-06-01T11:16:18Z</time>
      </trkpt>
      <trkpt lat="47.96011" lon="-3.53419">
        <ele>140.16</ele>
        <time>2018-06-01T11:16:34Z</time>
      </trkpt>
      <trkpt lat="47.96022" lon="-3.53384">
        <ele>140.1</ele>
        <time>2018-06-01T11:16:50Z</time>
      </trkpt>
      <trkpt lat="47.96023" lon="-3.5338">
        <ele>140.13</ele>
        <time>2018-06-01T11:16:52Z</time>
      </trkpt>
      <trkpt lat="47.96023" lon="-3.53378">
        <ele>140.15</ele>
        <time>2018-06-01T11:16:53Z</time>
      </trkpt>
      <trkpt lat="47.96024" lon="-3.53376">
        <ele>140.18</ele>
        <time>2018-06-01T11:16:54Z</time>
      </trkpt>
      <trkpt lat="47.96024" lon="-3.53373">
        <ele>140.23</ele>
        <time>2018-06-01T11:16:55Z</time>
      </trkpt>
      <trkpt lat="47.96025" lon="-3.53371">
        <ele>140.27</ele>
        <time>2018-06-01T11:16:56Z</time>
      </trkpt>
      <trkpt lat="47.96025" lon="-3.53368">
        <ele>140.31</ele>
        <time>2018-06-01T11:16:57Z</time>
      </trkpt>
      <trkpt lat="47.96025" lon="-3.53366">
        <ele>140.35</ele>
        <time>2018-06-01T11:16:58Z</time>
      </trkpt>
      <trkpt lat="47.96026" lon="-3.53364">
        <ele>140.38</ele>
        <time>2018-06-01T11:16:59Z</time>
      </trkpt>
      <trkpt lat="47.96029" lon="-3.53331">
        <ele>140.82</ele>
        <time>2018-06-01T11:17:13Z</time>
      </trkpt>
      <trkpt lat="47.96029" lon="-3.53295">
        <ele>141.46</ele>
        <time>2018-06-01T11:17:28Z</time>
      </trkpt>
      <trkpt lat="47.96025" lon="-3.53261">
        <ele>141.78</ele>
        <time>2018-06-01T11:17:42Z</time>
      </trkpt>
      <trkpt lat="47.96015" lon="-3.5322">
        <ele>141.36</ele>
        <time>2018-06-01T11:18:00Z</time>
      </trkpt>
      <trkpt lat="47.9601" lon="-3.53203">
        <ele>140.65</ele>
        <time>2018-06-01T11:18:12Z</time>
      </trkpt>
      <trkpt lat="47.96008" lon="-3.53203">
        <ele>140.61</ele>
        <time>2018-06-01T11:18:13Z</time>
      </trkpt>
      <trkpt lat="47.96008" lon="-3.53204">
        <ele>140.57</ele>
        <time>2018-06-01T11:18:14Z</time>
      </trkpt>
      <trkpt lat="47.96004" lon="-3.53206">
        <ele>140.51</ele>
        <time>2018-06-01T11:18:17Z</time>
      </trkpt>
      <trkpt lat="47.96003" lon="-3.53206">
        <ele>140.49</ele>
        <time>2018-06-01T11:18:18Z</time>
      </trkpt>
      <trkpt lat="47.95984" lon="-3.53208">
        <ele>140.33</ele>
        <time>2018-06-01T11:18:32Z</time>
      </trkpt>
      <trkpt lat="47.95966" lon="-3.53203">
        <ele>140.93</ele>
        <time>2018-06-01T11:18:45Z</time>
      </trkpt>
      <trkpt lat="47.95958" lon="-3.53198">
        <ele>140.49</ele>
        <time>2018-06-01T11:18:59Z</time>
      </trkpt>
      <trkpt lat="47.95958" lon="-3.53197">
        <ele>140.45</ele>
        <time>2018-06-01T11:19:00Z</time>
      </trkpt>
      <trkpt lat="47.95958" lon="-3.53194">
        <ele>140.38</ele>
        <time>2018-06-01T11:19:02Z</time>
      </trkpt>
      <trkpt lat="47.95958" lon="-3.53192">
        <ele>140.36</ele>
        <time>2018-06-01T11:19:03Z</time>
      </trkpt>
      <trkpt lat="47.95957" lon="-3.5319">
        <ele>140.33</ele>
        <time>2018-06-01T11:19:04Z</time>
      </trkpt>
      <trkpt lat="47.95962" lon="-3.53177">
        <ele>139.5</ele>
        <time>2018-06-01T11:19:11Z</time>
      </trkpt>
      <trkpt lat="47.95985" lon="-3.5317">
        <ele>138.35</ele>
        <time>2018-06-01T11:19:26Z</time>
      </trkpt>
      <trkpt lat="47.96004" lon="-3.53181">
        <ele>138.03</ele>
        <time>2018-06-01T11:19:41Z</time>
      </trkpt>
      <trkpt lat="47.96003" lon="-3.5318">
        <ele>138.15</ele>
        <time>2018-06-01T11:21:29Z</time>
      </trkpt>
      <trkpt lat="47.96004" lon="-3.53181">
        <ele>138.44</ele>
        <time>2018-06-01T11:21:43Z</time>
      </trkpt>
      <trkpt lat="47.96004" lon="-3.53182">
        <ele>169.4</ele>
        <time>2018-06-01T12:16:45Z</time>
      </trkpt>
      <trkpt lat="47.96008" lon="-3.53184">
        <ele>169.59</ele>
        <time>2018-06-01T12:17:21Z</time>
      </trkpt>
      <trkpt lat="47.96008" lon="-3.53184">
        <ele>169.7</ele>
        <time>2018-06-01T12:17:38Z</time>
      </trkpt>
      <trkpt lat="47.96008" lon="-3.53184">
        <ele>169.83</ele>
        <time>2018-06-01T12:17:57Z</time>
      </trkpt>
      <trkpt lat="47.96005" lon="-3.53178">
        <ele>169.33</ele>
        <time>2018-06-01T12:18:13Z</time>
      </trkpt>
      <trkpt lat="47.96005" lon="-3.53177">
        <ele>168.96</ele>
        <time>2018-06-01T12:18:30Z</time>
      </trkpt>
      <trkpt lat="47.96003" lon="-3.5317">
        <ele>169.5</ele>
        <time>2018-06-01T12:18:48Z</time>
      </trkpt>
      <trkpt lat="47.96003" lon="-3.53166">
        <ele>169.17</ele>
        <time>2018-06-01T12:19:06Z</time>
      </trkpt>
      <trkpt lat="47.95999" lon="-3.53162">
        <ele>169.08</ele>
        <time>2018-06-01T12:19:24Z</time>
      </trkpt>
      <trkpt lat="47.95996" lon="-3.5316">
        <ele>168.96</ele>
        <time>2018-06-01T12:19:54Z</time>
      </trkpt>
      <trkpt lat="47.95994" lon="-3.53156">
        <ele>169.06</ele>
        <time>2018-06-01T12:20:00Z</time>
      </trkpt>
      <trkpt lat="47.95999" lon="-3.53136">
        <ele>169.36</ele>
        <time>2018-06-01T12:20:15Z</time>
      </trkpt>
      <trkpt lat="47.96" lon="-3.53126">
        <ele>169.69</ele>
        <time>2018-06-01T12:20:27Z</time>
      </trkpt>
      <trkpt lat="47.96001" lon="-3.53122">
        <ele>169.5</ele>
        <time>2018-06-01T12:20:57Z</time>
      </trkpt>
      <trkpt lat="47.96006" lon="-3.53119">
        <ele>169.66</ele>
        <time>2018-06-01T12:21:07Z</time>
      </trkpt>
      <trkpt lat="47.96007" lon="-3.53111">
        <ele>169.67</ele>
        <time>2018-06-01T12:21:11Z</time>
      </trkpt>
      <trkpt lat="47.96011" lon="-3.53075">
        <ele>170.31</ele>
        <time>2018-06-01T12:21:30Z</time>
      </trkpt>
      <trkpt lat="47.96018" lon="-3.53038">
        <ele>171.1</ele>
        <time>2018-06-01T12:21:49Z</time>
      </trkpt>
      <trkpt lat="47.96025" lon="-3.52999">
        <ele>172.02</ele>
        <time>2018-06-01T12:22:06Z</time>
      </trkpt>
      <trkpt lat="47.96029" lon="-3.52994">
        <ele>172.6</ele>
        <time>2018-06-01T12:22:20Z</time>
      </trkpt>
      <trkpt lat="47.96042" lon="-3.52958">
        <ele>173.97</ele>
        <time>2018-06-01T12:27:47Z</time>
      </trkpt>
      <trkpt lat="47.96058" lon="-3.52925">
        <ele>174.71</ele>
        <time>2018-06-01T12:28:04Z</time>
      </trkpt>
      <trkpt lat="47.96068" lon="-3.52894">
        <ele>175.86</ele>
        <time>2018-06-01T12:28:19Z</time>
      </trkpt>
      <trkpt lat="47.96075" lon="-3.52862">
        <ele>176.52</ele>
        <time>2018-06-01T12:28:34Z</time>
      </trkpt>
      <trkpt lat="47.9608" lon="-3.52822">
        <ele>176.76</ele>
        <time>2018-06-01T12:28:54Z</time>
      </trkpt>
      <trkpt lat="47.96085" lon="-3.52781">
        <ele>177.11</ele>
        <time>2018-06-01T12:29:12Z</time>
      </trkpt>
      <trkpt lat="47.9609" lon="-3.52753">
        <ele>176.92</ele>
        <time>2018-06-01T12:29:25Z</time>
      </trkpt>
      <trkpt lat="47.96097" lon="-3.52712">
        <ele>176.45</ele>
        <time>2018-06-01T12:29:44Z</time>
      </trkpt>
      <trkpt lat="47.96099" lon="-3.52706">
        <ele>176.07</ele>
        <time>2018-06-01T12:29:47Z</time>
      </trkpt>
      <trkpt lat="47.96104" lon="-3.52677">
        <ele>174.85</ele>
        <time>2018-06-01T12:30:02Z</time>
      </trkpt>
      <trkpt lat="47.9611" lon="-3.52641">
        <ele>173.5</ele>
        <time>2018-06-01T12:30:18Z</time>
      </trkpt>
      <trkpt lat="47.96122" lon="-3.52599">
        <ele>172.83</ele>
        <time>2018-06-01T12:30:35Z</time>
      </trkpt>
      <trkpt lat="47.96133" lon="-3.52567">
        <ele>173.09</ele>
        <time>2018-06-01T12:30:49Z</time>
      </trkpt>
      <trkpt lat="47.96142" lon="-3.52538">
        <ele>173.75</ele>
        <time>2018-06-01T12:31:03Z</time>
      </trkpt>
      <trkpt lat="47.96153" lon="-3.5251">
        <ele>175.24</ele>
        <time>2018-06-01T12:31:18Z</time>
      </trkpt>
      <trkpt lat="47.96162" lon="-3.5248">
        <ele>176.97</ele>
        <time>2018-06-01T12:31:32Z</time>
      </trkpt>
      <trkpt lat="47.96172" lon="-3.52449">
        <ele>178.66</ele>
        <time>2018-06-01T12:31:46Z</time>
      </trkpt>
      <trkpt lat="47.9618" lon="-3.52417">
        <ele>180.65</ele>
        <time>2018-06-01T12:32:01Z</time>
      </trkpt>
      <trkpt lat="47.9618" lon="-3.52414">
        <ele>180.82</ele>
        <time>2018-06-01T12:32:02Z</time>
      </trkpt>
      <trkpt lat="47.96181" lon="-3.52409">
        <ele>181.23</ele>
        <time>2018-06-01T12:32:05Z</time>
      </trkpt>
      <trkpt lat="47.96178" lon="-3.52402">
        <ele>181.97</ele>
        <time>2018-06-01T12:32:11Z</time>
      </trkpt>
      <trkpt lat="47.96164" lon="-3.524">
        <ele>184.14</ele>
        <time>2018-06-01T12:32:25Z</time>
      </trkpt>
      <trkpt lat="47.96149" lon="-3.524">
        <ele>185.92</ele>
        <time>2018-06-01T12:32:38Z</time>
      </trkpt>
      <trkpt lat="47.96133" lon="-3.524">
        <ele>186.09</ele>
        <time>2018-06-01T12:32:50Z</time>
      </trkpt>
      <trkpt lat="47.96119" lon="-3.52392">
        <ele>186.23</ele>
        <time>2018-06-01T12:32:58Z</time>
      </trkpt>
      <trkpt lat="47.96108" lon="-3.5237">
        <ele>187.03</ele>
        <time>2018-06-01T12:33:14Z</time>
      </trkpt>
      <trkpt lat="47.96104" lon="-3.52363">
        <ele>187.21</ele>
        <time>2018-06-01T12:33:19Z</time>
      </trkpt>
      <trkpt lat="47.96101" lon="-3.52356">
        <ele>187.24</ele>
        <time>2018-06-01T12:33:23Z</time>
      </trkpt>
      <trkpt lat="47.96089" lon="-3.52312">
        <ele>187.5</ele>
        <time>2018-06-01T12:33:42Z</time>
      </trkpt>
      <trkpt lat="47.96083" lon="-3.523">
        <ele>187.52</ele>
        <time>2018-06-01T12:33:46Z</time>
      </trkpt>
      <trkpt lat="47.9606" lon="-3.5229">
        <ele>187.24</ele>
        <time>2018-06-01T12:34:00Z</time>
      </trkpt>
      <trkpt lat="47.96036" lon="-3.52283">
        <ele>185.99</ele>
        <time>2018-06-01T12:34:11Z</time>
      </trkpt>
      <trkpt lat="47.96017" lon="-3.52276">
        <ele>185.05</ele>
        <time>2018-06-01T12:34:20Z</time>
      </trkpt>
      <trkpt lat="47.96006" lon="-3.52276">
        <ele>184.49</ele>
        <time>2018-06-01T12:34:24Z</time>
      </trkpt>
      <trkpt lat="47.96002" lon="-3.52278">
        <ele>184.29</ele>
        <time>2018-06-01T12:34:25Z</time>
      </trkpt>
      <trkpt lat="47.95999" lon="-3.52278">
        <ele>184.05</ele>
        <time>2018-06-01T12:34:26Z</time>
      </trkpt>
      <trkpt lat="47.95997" lon="-3.52278">
        <ele>183.84</ele>
        <time>2018-06-01T12:34:27Z</time>
      </trkpt>
      <trkpt lat="47.95995" lon="-3.52278">
        <ele>183.66</ele>
        <time>2018-06-01T12:34:28Z</time>
      </trkpt>
      <trkpt lat="47.95975" lon="-3.5227">
        <ele>182.59</ele>
        <time>2018-06-01T12:34:38Z</time>
      </trkpt>
      <trkpt lat="47.95952" lon="-3.52248">
        <ele>179.61</ele>
        <time>2018-06-01T12:34:49Z</time>
      </trkpt>
      <trkpt lat="47.95948" lon="-3.52245">
        <ele>179.18</ele>
        <time>2018-06-01T12:34:51Z</time>
      </trkpt>
      <trkpt lat="47.95937" lon="-3.52237">
        <ele>178.44</ele>
        <time>2018-06-01T12:34:55Z</time>
      </trkpt>
      <trkpt lat="47.95903" lon="-3.52208">
        <ele>176.69</ele>
        <time>2018-06-01T12:35:07Z</time>
      </trkpt>
      <trkpt lat="47.95871" lon="-3.52179">
        <ele>175.4</ele>
        <time>2018-06-01T12:35:18Z</time>
      </trkpt>
      <trkpt lat="47.95832" lon="-3.52148">
        <ele>174.01</ele>
        <time>2018-06-01T12:35:28Z</time>
      </trkpt>
      <trkpt lat="47.95787" lon="-3.52118">
        <ele>173.14</ele>
        <time>2018-06-01T12:35:41Z</time>
      </trkpt>
      <trkpt lat="47.95748" lon="-3.52102">
        <ele>172.63</ele>
        <time>2018-06-01T12:35:52Z</time>
      </trkpt>
      <trkpt lat="47.95727" lon="-3.52101">
        <ele>172.3</ele>
        <time>2018-06-01T12:36:00Z</time>
      </trkpt>
      <trkpt lat="47.95715" lon="-3.52103">
        <ele>171.95</ele>
        <time>2018-06-01T12:36:04Z</time>
      </trkpt>
      <trkpt lat="47.95693" lon="-3.52109">
        <ele>171.53</ele>
        <time>2018-06-01T12:36:12Z</time>
      </trkpt>
      <trkpt lat="47.95667" lon="-3.52102">
        <ele>170.84</ele>
        <time>2018-06-01T12:36:22Z</time>
      </trkpt>
      <trkpt lat="47.95661" lon="-3.52099">
        <ele>170.53</ele>
        <time>2018-06-01T12:36:24Z</time>
      </trkpt>
      <trkpt lat="47.95617" lon="-3.52087">
        <ele>169.2</ele>
        <time>2018-06-01T12:36:37Z</time>
      </trkpt>
      <trkpt lat="47.9559" lon="-3.52075">
        <ele>168.63</ele>
        <time>2018-06-01T12:36:46Z</time>
      </trkpt>
      <trkpt lat="47.95544" lon="-3.52054">
        <ele>168.18</ele>
        <time>2018-06-01T12:36:58Z</time>
      </trkpt>
      <trkpt lat="47.9551" lon="-3.52045">
        <ele>167.73</ele>
        <time>2018-06-01T12:37:08Z</time>
      </trkpt>
      <trkpt lat="47.95475" lon="-3.52034">
        <ele>166.85</ele>
        <time>2018-06-01T12:37:18Z</time>
      </trkpt>
      <trkpt lat="47.95434" lon="-3.52013">
        <ele>165.82</ele>
        <time>2018-06-01T12:37:29Z</time>
      </trkpt>
      <trkpt lat="47.95412" lon="-3.52001">
        <ele>165.48</ele>
        <time>2018-06-01T12:37:38Z</time>
      </trkpt>
      <trkpt lat="47.95407" lon="-3.52">
        <ele>165.43</ele>
        <time>2018-06-01T12:37:43Z</time>
      </trkpt>
      <trkpt lat="47.95403" lon="-3.51997">
        <ele>165.33</ele>
        <time>2018-06-01T12:37:46Z</time>
      </trkpt>
      <trkpt lat="47.9538" lon="-3.51983">
        <ele>165.53</ele>
        <time>2018-06-01T12:38:05Z</time>
      </trkpt>
      <trkpt lat="47.95365" lon="-3.51977">
        <ele>164.94</ele>
        <time>2018-06-01T12:38:25Z</time>
      </trkpt>
      <trkpt lat="47.95364" lon="-3.51978">
        <ele>164.9</ele>
        <time>2018-06-01T12:38:44Z</time>
      </trkpt>
      <trkpt lat="47.95363" lon="-3.51976">
        <ele>164.55</ele>
        <time>2018-06-01T12:39:17Z</time>
      </trkpt>
      <trkpt lat="47.95352" lon="-3.51971">
        <ele>164.49</ele>
        <time>2018-06-01T12:39:36Z</time>
      </trkpt>
      <trkpt lat="47.95345" lon="-3.5197">
        <ele>164.3</ele>
        <time>2018-06-01T12:39:43Z</time>
      </trkpt>
      <trkpt lat="47.95319" lon="-3.51968">
        <ele>163.74</ele>
        <time>2018-06-01T12:39:59Z</time>
      </trkpt>
      <trkpt lat="47.95316" lon="-3.51968">
        <ele>163.71</ele>
        <time>2018-06-01T12:40:01Z</time>
      </trkpt>
      <trkpt lat="47.95307" lon="-3.51965">
        <ele>163.69</ele>
        <time>2018-06-01T12:40:05Z</time>
      </trkpt>
      <trkpt lat="47.95298" lon="-3.51963">
        <ele>163.57</ele>
        <time>2018-06-01T12:40:09Z</time>
      </trkpt>
      <trkpt lat="47.95287" lon="-3.51955">
        <ele>162.82</ele>
        <time>2018-06-01T12:40:21Z</time>
      </trkpt>
      <trkpt lat="47.95285" lon="-3.51945">
        <ele>162.64</ele>
        <time>2018-06-01T12:40:26Z</time>
      </trkpt>
      <trkpt lat="47.95282" lon="-3.51925">
        <ele>163.17</ele>
        <time>2018-06-01T12:40:38Z</time>
      </trkpt>
      <trkpt lat="47.95282" lon="-3.51919">
        <ele>163.2</ele>
        <time>2018-06-01T12:40:41Z</time>
      </trkpt>
      <trkpt lat="47.95288" lon="-3.51915">
        <ele>163.28</ele>
        <time>2018-06-01T12:40:47Z</time>
      </trkpt>
      <trkpt lat="47.95306" lon="-3.5191">
        <ele>163.7</ele>
        <time>2018-06-01T12:41:00Z</time>
      </trkpt>
      <trkpt lat="47.95326" lon="-3.51908">
        <ele>163.98</ele>
        <time>2018-06-01T12:41:15Z</time>
      </trkpt>
      <trkpt lat="47.95346" lon="-3.51909">
        <ele>164.66</ele>
        <time>2018-06-01T12:41:28Z</time>
      </trkpt>
      <trkpt lat="47.95365" lon="-3.5191">
        <ele>164.82</ele>
        <time>2018-06-01T12:41:42Z</time>
      </trkpt>
      <trkpt lat="47.95378" lon="-3.5191">
        <ele>165.09</ele>
        <time>2018-06-01T12:41:50Z</time>
      </trkpt>
      <trkpt lat="47.95385" lon="-3.51905">
        <ele>165.02</ele>
        <time>2018-06-01T12:41:55Z</time>
      </trkpt>
      <trkpt lat="47.95394" lon="-3.519">
        <ele>164.74</ele>
        <time>2018-06-01T12:42:02Z</time>
      </trkpt>
      <trkpt lat="47.95412" lon="-3.5189">
        <ele>163.96</ele>
        <time>2018-06-01T12:42:14Z</time>
      </trkpt>
      <trkpt lat="47.95414" lon="-3.51889">
        <ele>163.91</ele>
        <time>2018-06-01T12:42:15Z</time>
      </trkpt>
      <trkpt lat="47.95429" lon="-3.51872">
        <ele>163.73</ele>
        <time>2018-06-01T12:42:28Z</time>
      </trkpt>
      <trkpt lat="47.95431" lon="-3.51869">
        <ele>163.79</ele>
        <time>2018-06-01T12:42:30Z</time>
      </trkpt>
      <trkpt lat="47.95433" lon="-3.51867">
        <ele>163.81</ele>
        <time>2018-06-01T12:42:32Z</time>
      </trkpt>
      <trkpt lat="47.95448" lon="-3.51848">
        <ele>163.76</ele>
        <time>2018-06-01T12:42:46Z</time>
      </trkpt>
      <trkpt lat="47.95458" lon="-3.51836">
        <ele>163.92</ele>
        <time>2018-06-01T12:42:55Z</time>
      </trkpt>
      <trkpt lat="47.9547" lon="-3.5182">
        <ele>164.91</ele>
        <time>2018-06-01T12:43:08Z</time>
      </trkpt>
      <trkpt lat="47.95479" lon="-3.51808">
        <ele>165.45</ele>
        <time>2018-06-01T12:43:16Z</time>
      </trkpt>
      <trkpt lat="47.95487" lon="-3.51794">
        <ele>166.03</ele>
        <time>2018-06-01T12:43:25Z</time>
      </trkpt>
      <trkpt lat="47.95492" lon="-3.51786">
        <ele>166.2</ele>
        <time>2018-06-01T12:43:29Z</time>
      </trkpt>
      <trkpt lat="47.95507" lon="-3.5176">
        <ele>166.79</ele>
        <time>2018-06-01T12:43:45Z</time>
      </trkpt>
      <trkpt lat="47.95524" lon="-3.51735">
        <ele>167.09</ele>
        <time>2018-06-01T12:44:01Z</time>
      </trkpt>
      <trkpt lat="47.95539" lon="-3.51709">
        <ele>167.31</ele>
        <time>2018-06-01T12:44:17Z</time>
      </trkpt>
      <trkpt lat="47.95547" lon="-3.51688">
        <ele>167.43</ele>
        <time>2018-06-01T12:44:29Z</time>
      </trkpt>
      <trkpt lat="47.95548" lon="-3.51684">
        <ele>167.29</ele>
        <time>2018-06-01T12:44:31Z</time>
      </trkpt>
      <trkpt lat="47.95555" lon="-3.51656">
        <ele>166.44</ele>
        <time>2018-06-01T12:44:45Z</time>
      </trkpt>
      <trkpt lat="47.95558" lon="-3.51647">
        <ele>166.25</ele>
        <time>2018-06-01T12:44:49Z</time>
      </trkpt>
      <trkpt lat="47.95565" lon="-3.5163">
        <ele>165.55</ele>
        <time>2018-06-01T12:44:58Z</time>
      </trkpt>
      <trkpt lat="47.95571" lon="-3.51622">
        <ele>164.87</ele>
        <time>2018-06-01T12:45:05Z</time>
      </trkpt>
      <trkpt lat="47.95574" lon="-3.51614">
        <ele>164.62</ele>
        <time>2018-06-01T12:45:09Z</time>
      </trkpt>
      <trkpt lat="47.9558" lon="-3.51599">
        <ele>164.46</ele>
        <time>2018-06-01T12:45:18Z</time>
      </trkpt>
      <trkpt lat="47.95581" lon="-3.51584">
        <ele>164.44</ele>
        <time>2018-06-01T12:45:24Z</time>
      </trkpt>
      <trkpt lat="47.95576" lon="-3.5156">
        <ele>165.83</ele>
        <time>2018-06-01T12:45:37Z</time>
      </trkpt>
      <trkpt lat="47.9556" lon="-3.51534">
        <ele>167.28</ele>
        <time>2018-06-01T12:45:57Z</time>
      </trkpt>
      <trkpt lat="47.95555" lon="-3.51505">
        <ele>168.46</ele>
        <time>2018-06-01T12:46:10Z</time>
      </trkpt>
      <trkpt lat="47.95561" lon="-3.51489">
        <ele>168.75</ele>
        <time>2018-06-01T12:46:16Z</time>
      </trkpt>
      <trkpt lat="47.95573" lon="-3.51451">
        <ele>168.97</ele>
        <time>2018-06-01T12:46:33Z</time>
      </trkpt>
      <trkpt lat="47.95584" lon="-3.51411">
        <ele>168.59</ele>
        <time>2018-06-01T12:46:51Z</time>
      </trkpt>
      <trkpt lat="47.95595" lon="-3.51366">
        <ele>168.66</ele>
        <time>2018-06-01T12:47:11Z</time>
      </trkpt>
      <trkpt lat="47.95602" lon="-3.51351">
        <ele>168.42</ele>
        <time>2018-06-01T12:47:20Z</time>
      </trkpt>
      <trkpt lat="47.95612" lon="-3.51328">
        <ele>168.82</ele>
        <time>2018-06-01T12:47:33Z</time>
      </trkpt>
      <trkpt lat="47.95617" lon="-3.51314">
        <ele>168.79</ele>
        <time>2018-06-01T12:47:40Z</time>
      </trkpt>
      <trkpt lat="47.95632" lon="-3.51267">
        <ele>167.87</ele>
        <time>2018-06-01T12:48:00Z</time>
      </trkpt>
      <trkpt lat="47.95644" lon="-3.51232">
        <ele>167.3</ele>
        <time>2018-06-01T12:48:15Z</time>
      </trkpt>
      <trkpt lat="47.95659" lon="-3.51188">
        <ele>166.88</ele>
        <time>2018-06-01T12:48:34Z</time>
      </trkpt>
      <trkpt lat="47.95671" lon="-3.51146">
        <ele>166.65</ele>
        <time>2018-06-01T12:48:53Z</time>
      </trkpt>
      <trkpt lat="47.95686" lon="-3.5109">
        <ele>167.34</ele>
        <time>2018-06-01T12:49:17Z</time>
      </trkpt>
      <trkpt lat="47.95692" lon="-3.51051">
        <ele>167.8</ele>
        <time>2018-06-01T12:49:34Z</time>
      </trkpt>
      <trkpt lat="47.95702" lon="-3.51003">
        <ele>168.16</ele>
        <time>2018-06-01T12:49:54Z</time>
      </trkpt>
      <trkpt lat="47.95706" lon="-3.5096">
        <ele>168.22</ele>
        <time>2018-06-01T12:50:11Z</time>
      </trkpt>
      <trkpt lat="47.95711" lon="-3.5092">
        <ele>168.53</ele>
        <time>2018-06-01T12:50:27Z</time>
      </trkpt>
      <trkpt lat="47.95716" lon="-3.50892">
        <ele>168.98</ele>
        <time>2018-06-01T12:50:40Z</time>
      </trkpt>
      <trkpt lat="47.95718" lon="-3.50885">
        <ele>169.07</ele>
        <time>2018-06-01T12:50:43Z</time>
      </trkpt>
      <trkpt lat="47.95727" lon="-3.50853">
        <ele>169.46</ele>
        <time>2018-06-01T12:50:58Z</time>
      </trkpt>
      <trkpt lat="47.95733" lon="-3.50837">
        <ele>169.73</ele>
        <time>2018-06-01T12:51:05Z</time>
      </trkpt>
      <trkpt lat="47.95741" lon="-3.50806">
        <ele>169.79</ele>
        <time>2018-06-01T12:51:20Z</time>
      </trkpt>
      <trkpt lat="47.9575" lon="-3.50782">
        <ele>169.18</ele>
        <time>2018-06-01T12:51:30Z</time>
      </trkpt>
      <trkpt lat="47.95763" lon="-3.50738">
        <ele>168.03</ele>
        <time>2018-06-01T12:51:48Z</time>
      </trkpt>
      <trkpt lat="47.95769" lon="-3.50693">
        <ele>166.44</ele>
        <time>2018-06-01T12:52:06Z</time>
      </trkpt>
      <trkpt lat="47.95773" lon="-3.50644">
        <ele>165.05</ele>
        <time>2018-06-01T12:52:23Z</time>
      </trkpt>
      <trkpt lat="47.95775" lon="-3.50608">
        <ele>163.98</ele>
        <time>2018-06-01T12:52:35Z</time>
      </trkpt>
      <trkpt lat="47.95768" lon="-3.50565">
        <ele>162.76</ele>
        <time>2018-06-01T12:52:53Z</time>
      </trkpt>
      <trkpt lat="47.95756" lon="-3.50543">
        <ele>161.61</ele>
        <time>2018-06-01T12:53:04Z</time>
      </trkpt>
      <trkpt lat="47.95736" lon="-3.5052">
        <ele>159.94</ele>
        <time>2018-06-01T12:53:19Z</time>
      </trkpt>
      <trkpt lat="47.95729" lon="-3.50511">
        <ele>159.3</ele>
        <time>2018-06-01T12:53:24Z</time>
      </trkpt>
      <trkpt lat="47.95727" lon="-3.5051">
        <ele>159.11</ele>
        <time>2018-06-01T12:53:25Z</time>
      </trkpt>
      <trkpt lat="47.95725" lon="-3.50509">
        <ele>158.92</ele>
        <time>2018-06-01T12:53:26Z</time>
      </trkpt>
      <trkpt lat="47.95691" lon="-3.50507">
        <ele>156.41</ele>
        <time>2018-06-01T12:53:43Z</time>
      </trkpt>
      <trkpt lat="47.95659" lon="-3.50513">
        <ele>154.55</ele>
        <time>2018-06-01T12:54:00Z</time>
      </trkpt>
      <trkpt lat="47.95622" lon="-3.50521">
        <ele>152.2</ele>
        <time>2018-06-01T12:54:20Z</time>
      </trkpt>
      <trkpt lat="47.95584" lon="-3.50523">
        <ele>150.59</ele>
        <time>2018-06-01T12:54:41Z</time>
      </trkpt>
      <trkpt lat="47.95559" lon="-3.50523">
        <ele>148.87</ele>
        <time>2018-06-01T12:54:58Z</time>
      </trkpt>
      <trkpt lat="47.95559" lon="-3.50521">
        <ele>148.76</ele>
        <time>2018-06-01T12:54:59Z</time>
      </trkpt>
      <trkpt lat="47.95564" lon="-3.50506">
        <ele>147.86</ele>
        <time>2018-06-01T12:55:07Z</time>
      </trkpt>
      <trkpt lat="47.95569" lon="-3.50502">
        <ele>147.63</ele>
        <time>2018-06-01T12:55:10Z</time>
      </trkpt>
      <trkpt lat="47.9557" lon="-3.5048">
        <ele>147.08</ele>
        <time>2018-06-01T12:55:19Z</time>
      </trkpt>
      <trkpt lat="47.95576" lon="-3.50437">
        <ele>147.74</ele>
        <time>2018-06-01T12:55:38Z</time>
      </trkpt>
      <trkpt lat="47.95592" lon="-3.504">
        <ele>148.33</ele>
        <time>2018-06-01T12:55:53Z</time>
      </trkpt>
      <trkpt lat="47.95598" lon="-3.50373">
        <ele>149.86</ele>
        <time>2018-06-01T12:55:59Z</time>
      </trkpt>
      <trkpt lat="47.95598" lon="-3.50341">
        <ele>151.37</ele>
        <time>2018-06-01T12:56:04Z</time>
      </trkpt>
      <trkpt lat="47.95597" lon="-3.50335">
        <ele>151.83</ele>
        <time>2018-06-01T12:56:05Z</time>
      </trkpt>
      <trkpt lat="47.95589" lon="-3.503">
        <ele>154.86</ele>
        <time>2018-06-01T12:56:11Z</time>
      </trkpt>
      <trkpt lat="47.95559" lon="-3.50267">
        <ele>158.1</ele>
        <time>2018-06-01T12:56:20Z</time>
      </trkpt>
      <trkpt lat="47.9553" lon="-3.50239">
        <ele>159.9</ele>
        <time>2018-06-01T12:56:29Z</time>
      </trkpt>
      <trkpt lat="47.95529" lon="-3.50234">
        <ele>159.98</ele>
        <time>2018-06-01T12:56:30Z</time>
      </trkpt>
      <trkpt lat="47.95528" lon="-3.50229">
        <ele>160.03</ele>
        <time>2018-06-01T12:56:31Z</time>
      </trkpt>
      <trkpt lat="47.95517" lon="-3.50159">
        <ele>157.54</ele>
        <time>2018-06-01T12:56:44Z</time>
      </trkpt>
      <trkpt lat="47.95513" lon="-3.50124">
        <ele>155.86</ele>
        <time>2018-06-01T12:56:50Z</time>
      </trkpt>
      <trkpt lat="47.95511" lon="-3.5011">
        <ele>155.48</ele>
        <time>2018-06-01T12:56:52Z</time>
      </trkpt>
      <trkpt lat="47.95509" lon="-3.50103">
        <ele>155.26</ele>
        <time>2018-06-01T12:56:53Z</time>
      </trkpt>
      <trkpt lat="47.95505" lon="-3.50096">
        <ele>155.02</ele>
        <time>2018-06-01T12:56:54Z</time>
      </trkpt>
      <trkpt lat="47.95502" lon="-3.50089">
        <ele>154.78</ele>
        <time>2018-06-01T12:56:55Z</time>
      </trkpt>
      <trkpt lat="47.95498" lon="-3.50084">
        <ele>154.54</ele>
        <time>2018-06-01T12:56:56Z</time>
      </trkpt>
      <trkpt lat="47.95494" lon="-3.5008">
        <ele>154.35</ele>
        <time>2018-06-01T12:56:57Z</time>
      </trkpt>
      <trkpt lat="47.95489" lon="-3.50076">
        <ele>154.19</ele>
        <time>2018-06-01T12:56:58Z</time>
      </trkpt>
      <trkpt lat="47.95485" lon="-3.50072">
        <ele>154.07</ele>
        <time>2018-06-01T12:56:59Z</time>
      </trkpt>
      <trkpt lat="47.95482" lon="-3.50067">
        <ele>154.04</ele>
        <time>2018-06-01T12:57:00Z</time>
      </trkpt>
      <trkpt lat="47.95479" lon="-3.50061">
        <ele>154.09</ele>
        <time>2018-06-01T12:57:01Z</time>
      </trkpt>
      <trkpt lat="47.95477" lon="-3.50054">
        <ele>154.18</ele>
        <time>2018-06-01T12:57:02Z</time>
      </trkpt>
      <trkpt lat="47.95476" lon="-3.5004">
        <ele>154.32</ele>
        <time>2018-06-01T12:57:04Z</time>
      </trkpt>
      <trkpt lat="47.95476" lon="-3.50032">
        <ele>154.35</ele>
        <time>2018-06-01T12:57:05Z</time>
      </trkpt>
      <trkpt lat="47.95475" lon="-3.50024">
        <ele>154.35</ele>
        <time>2018-06-01T12:57:06Z</time>
      </trkpt>
      <trkpt lat="47.95474" lon="-3.50016">
        <ele>154.23</ele>
        <time>2018-06-01T12:57:07Z</time>
      </trkpt>
      <trkpt lat="47.95474" lon="-3.50008">
        <ele>154.23</ele>
        <time>2018-06-01T12:57:08Z</time>
      </trkpt>
      <trkpt lat="47.95472" lon="-3.5">
        <ele>153.9</ele>
        <time>2018-06-01T12:57:09Z</time>
      </trkpt>
      <trkpt lat="47.95471" lon="-3.49986">
        <ele>153.62</ele>
        <time>2018-06-01T12:57:11Z</time>
      </trkpt>
      <trkpt lat="47.95471" lon="-3.49978">
        <ele>153.52</ele>
        <time>2018-06-01T12:57:12Z</time>
      </trkpt>
      <trkpt lat="47.95471" lon="-3.49969">
        <ele>153.44</ele>
        <time>2018-06-01T12:57:13Z</time>
      </trkpt>
      <trkpt lat="47.95471" lon="-3.49945">
        <ele>153.29</ele>
        <time>2018-06-01T12:57:16Z</time>
      </trkpt>
      <trkpt lat="47.95474" lon="-3.49869">
        <ele>153.79</ele>
        <time>2018-06-01T12:57:27Z</time>
      </trkpt>
      <trkpt lat="47.95462" lon="-3.49796">
        <ele>153.2</ele>
        <time>2018-06-01T12:57:39Z</time>
      </trkpt>
      <trkpt lat="47.95456" lon="-3.49727">
        <ele>153.01</ele>
        <time>2018-06-01T12:57:50Z</time>
      </trkpt>
      <trkpt lat="47.95451" lon="-3.49652">
        <ele>152.12</ele>
        <time>2018-06-01T12:58:03Z</time>
      </trkpt>
      <trkpt lat="47.95441" lon="-3.49616">
        <ele>150.93</ele>
        <time>2018-06-01T12:58:11Z</time>
      </trkpt>
      <trkpt lat="47.95437" lon="-3.49615">
        <ele>150.73</ele>
        <time>2018-06-01T12:58:12Z</time>
      </trkpt>
      <trkpt lat="47.95433" lon="-3.49613">
        <ele>150.56</ele>
        <time>2018-06-01T12:58:13Z</time>
      </trkpt>
      <trkpt lat="47.95429" lon="-3.49613">
        <ele>150.4</ele>
        <time>2018-06-01T12:58:14Z</time>
      </trkpt>
      <trkpt lat="47.95425" lon="-3.49612">
        <ele>150.27</ele>
        <time>2018-06-01T12:58:15Z</time>
      </trkpt>
      <trkpt lat="47.9542" lon="-3.49612">
        <ele>150.16</ele>
        <time>2018-06-01T12:58:16Z</time>
      </trkpt>
      <trkpt lat="47.95416" lon="-3.49611">
        <ele>150.07</ele>
        <time>2018-06-01T12:58:17Z</time>
      </trkpt>
      <trkpt lat="47.95412" lon="-3.49611">
        <ele>150</ele>
        <time>2018-06-01T12:58:18Z</time>
      </trkpt>
      <trkpt lat="47.95407" lon="-3.49611">
        <ele>149.95</ele>
        <time>2018-06-01T12:58:19Z</time>
      </trkpt>
      <trkpt lat="47.95403" lon="-3.49612">
        <ele>149.91</ele>
        <time>2018-06-01T12:58:20Z</time>
      </trkpt>
      <trkpt lat="47.95399" lon="-3.49614">
        <ele>149.93</ele>
        <time>2018-06-01T12:58:21Z</time>
      </trkpt>
      <trkpt lat="47.95394" lon="-3.49614">
        <ele>149.97</ele>
        <time>2018-06-01T12:58:22Z</time>
      </trkpt>
      <trkpt lat="47.9539" lon="-3.49615">
        <ele>150.01</ele>
        <time>2018-06-01T12:58:23Z</time>
      </trkpt>
      <trkpt lat="47.95385" lon="-3.49616">
        <ele>150.1</ele>
        <time>2018-06-01T12:58:24Z</time>
      </trkpt>
      <trkpt lat="47.9536" lon="-3.49624">
        <ele>150.39</ele>
        <time>2018-06-01T12:58:29Z</time>
      </trkpt>
      <trkpt lat="47.95342" lon="-3.49632">
        <ele>150.84</ele>
        <time>2018-06-01T12:58:33Z</time>
      </trkpt>
      <trkpt lat="47.95323" lon="-3.49637">
        <ele>151.65</ele>
        <time>2018-06-01T12:58:37Z</time>
      </trkpt>
      <trkpt lat="47.95267" lon="-3.49635">
        <ele>153.74</ele>
        <time>2018-06-01T12:58:49Z</time>
      </trkpt>
      <trkpt lat="47.95214" lon="-3.49638">
        <ele>153.46</ele>
        <time>2018-06-01T12:59:01Z</time>
      </trkpt>
      <trkpt lat="47.95173" lon="-3.49644">
        <ele>153.43</ele>
        <time>2018-06-01T12:59:11Z</time>
      </trkpt>
      <trkpt lat="47.95133" lon="-3.49644">
        <ele>154.02</ele>
        <time>2018-06-01T12:59:21Z</time>
      </trkpt>
      <trkpt lat="47.95087" lon="-3.4965">
        <ele>153.69</ele>
        <time>2018-06-01T12:59:32Z</time>
      </trkpt>
      <trkpt lat="47.9505" lon="-3.49665">
        <ele>153.32</ele>
        <time>2018-06-01T12:59:42Z</time>
      </trkpt>
      <trkpt lat="47.95003" lon="-3.49677">
        <ele>153.33</ele>
        <time>2018-06-01T12:59:54Z</time>
      </trkpt>
      <trkpt lat="47.94956" lon="-3.49682">
        <ele>152.79</ele>
        <time>2018-06-01T13:00:08Z</time>
      </trkpt>
      <trkpt lat="47.94925" lon="-3.49672">
        <ele>152.23</ele>
        <time>2018-06-01T13:00:17Z</time>
      </trkpt>
      <trkpt lat="47.94879" lon="-3.4965">
        <ele>151.39</ele>
        <time>2018-06-01T13:00:30Z</time>
      </trkpt>
      <trkpt lat="47.94863" lon="-3.49649">
        <ele>151.25</ele>
        <time>2018-06-01T13:00:34Z</time>
      </trkpt>
      <trkpt lat="47.94812" lon="-3.49647">
        <ele>149.37</ele>
        <time>2018-06-01T13:00:48Z</time>
      </trkpt>
      <trkpt lat="47.94803" lon="-3.49636">
        <ele>148.7</ele>
        <time>2018-06-01T13:00:52Z</time>
      </trkpt>
      <trkpt lat="47.94805" lon="-3.49605">
        <ele>146.05</ele>
        <time>2018-06-01T13:01:03Z</time>
      </trkpt>
      <trkpt lat="47.94808" lon="-3.49583">
        <ele>145.1</ele>
        <time>2018-06-01T13:01:17Z</time>
      </trkpt>
      <trkpt lat="47.94808" lon="-3.49569">
        <ele>144.57</ele>
        <time>2018-06-01T13:01:22Z</time>
      </trkpt>
      <trkpt lat="47.94805" lon="-3.4956">
        <ele>144.1</ele>
        <time>2018-06-01T13:01:26Z</time>
      </trkpt>
      <trkpt lat="47.94793" lon="-3.49529">
        <ele>142.47</ele>
        <time>2018-06-01T13:01:40Z</time>
      </trkpt>
      <trkpt lat="47.94782" lon="-3.49497">
        <ele>141.2</ele>
        <time>2018-06-01T13:01:55Z</time>
      </trkpt>
      <trkpt lat="47.94765" lon="-3.49465">
        <ele>140.21</ele>
        <time>2018-06-01T13:02:12Z</time>
      </trkpt>
      <trkpt lat="47.94739" lon="-3.49452">
        <ele>138.23</ele>
        <time>2018-06-01T13:02:31Z</time>
      </trkpt>
      <trkpt lat="47.94736" lon="-3.49451">
        <ele>137.79</ele>
        <time>2018-06-01T13:02:36Z</time>
      </trkpt>
      <trkpt lat="47.9473" lon="-3.49448">
        <ele>137.17</ele>
        <time>2018-06-01T13:02:41Z</time>
      </trkpt>
      <trkpt lat="47.9471" lon="-3.49424">
        <ele>135.99</ele>
        <time>2018-06-01T13:02:58Z</time>
      </trkpt>
      <trkpt lat="47.94684" lon="-3.49404">
        <ele>134.06</ele>
        <time>2018-06-01T13:03:17Z</time>
      </trkpt>
      <trkpt lat="47.9466" lon="-3.49383">
        <ele>132.44</ele>
        <time>2018-06-01T13:03:35Z</time>
      </trkpt>
      <trkpt lat="47.94645" lon="-3.49365">
        <ele>130.67</ele>
        <time>2018-06-01T13:03:48Z</time>
      </trkpt>
      <trkpt lat="47.94632" lon="-3.49346">
        <ele>129.08</ele>
        <time>2018-06-01T13:04:03Z</time>
      </trkpt>
      <trkpt lat="47.94626" lon="-3.49336">
        <ele>127.97</ele>
        <time>2018-06-01T13:04:10Z</time>
      </trkpt>
      <trkpt lat="47.9461" lon="-3.49318">
        <ele>125.29</ele>
        <time>2018-06-01T13:04:22Z</time>
      </trkpt>
      <trkpt lat="47.94599" lon="-3.49296">
        <ele>122.55</ele>
        <time>2018-06-01T13:04:35Z</time>
      </trkpt>
      <trkpt lat="47.94597" lon="-3.49289">
        <ele>120.89</ele>
        <time>2018-06-01T13:04:40Z</time>
      </trkpt>
      <trkpt lat="47.94583" lon="-3.49263">
        <ele>117.44</ele>
        <time>2018-06-01T13:04:55Z</time>
      </trkpt>
      <trkpt lat="47.9457" lon="-3.49247">
        <ele>114.37</ele>
        <time>2018-06-01T13:05:05Z</time>
      </trkpt>
      <trkpt lat="47.94564" lon="-3.4924">
        <ele>112.52</ele>
        <time>2018-06-01T13:05:11Z</time>
      </trkpt>
      <trkpt lat="47.94553" lon="-3.49221">
        <ele>109.01</ele>
        <time>2018-06-01T13:05:21Z</time>
      </trkpt>
      <trkpt lat="47.94553" lon="-3.49213">
        <ele>107.64</ele>
        <time>2018-06-01T13:05:26Z</time>
      </trkpt>
      <trkpt lat="47.94561" lon="-3.4919">
        <ele>108.03</ele>
        <time>2018-06-01T13:05:41Z</time>
      </trkpt>
      <trkpt lat="47.94565" lon="-3.49187">
        <ele>108.59</ele>
        <time>2018-06-01T13:05:45Z</time>
      </trkpt>
      <trkpt lat="47.94585" lon="-3.49174">
        <ele>111.1</ele>
        <time>2018-06-01T13:06:06Z</time>
      </trkpt>
      <trkpt lat="47.94607" lon="-3.49158">
        <ele>112.01</ele>
        <time>2018-06-01T13:06:22Z</time>
      </trkpt>
      <trkpt lat="47.94633" lon="-3.49133">
        <ele>113.34</ele>
        <time>2018-06-01T13:06:42Z</time>
      </trkpt>
      <trkpt lat="47.94647" lon="-3.4912">
        <ele>114.68</ele>
        <time>2018-06-01T13:06:53Z</time>
      </trkpt>
      <trkpt lat="47.9465" lon="-3.49114">
        <ele>114.91</ele>
        <time>2018-06-01T13:06:56Z</time>
      </trkpt>
      <trkpt lat="47.94671" lon="-3.49081">
        <ele>117.62</ele>
        <time>2018-06-01T13:07:16Z</time>
      </trkpt>
      <trkpt lat="47.94675" lon="-3.49071">
        <ele>117.96</ele>
        <time>2018-06-01T13:07:21Z</time>
      </trkpt>
      <trkpt lat="47.94675" lon="-3.49061">
        <ele>118.17</ele>
        <time>2018-06-01T13:07:25Z</time>
      </trkpt>
      <trkpt lat="47.94679" lon="-3.4905">
        <ele>118.26</ele>
        <time>2018-06-01T13:07:29Z</time>
      </trkpt>
      <trkpt lat="47.94684" lon="-3.4904">
        <ele>118.51</ele>
        <time>2018-06-01T13:07:36Z</time>
      </trkpt>
      <trkpt lat="47.94687" lon="-3.4903">
        <ele>118.79</ele>
        <time>2018-06-01T13:07:41Z</time>
      </trkpt>
      <trkpt lat="47.94694" lon="-3.48996">
        <ele>119.51</ele>
        <time>2018-06-01T13:07:57Z</time>
      </trkpt>
      <trkpt lat="47.94696" lon="-3.48988">
        <ele>119.68</ele>
        <time>2018-06-01T13:08:02Z</time>
      </trkpt>
      <trkpt lat="47.94717" lon="-3.4897">
        <ele>120.4</ele>
        <time>2018-06-01T13:08:19Z</time>
      </trkpt>
      <trkpt lat="47.94722" lon="-3.48967">
        <ele>120.57</ele>
        <time>2018-06-01T13:08:24Z</time>
      </trkpt>
      <trkpt lat="47.94749" lon="-3.48952">
        <ele>121.14</ele>
        <time>2018-06-01T13:08:45Z</time>
      </trkpt>
      <trkpt lat="47.94763" lon="-3.48945">
        <ele>121.69</ele>
        <time>2018-06-01T13:09:00Z</time>
      </trkpt>
      <trkpt lat="47.94794" lon="-3.48926">
        <ele>122.2</ele>
        <time>2018-06-01T13:09:18Z</time>
      </trkpt>
      <trkpt lat="47.94816" lon="-3.48907">
        <ele>123.82</ele>
        <time>2018-06-01T13:09:33Z</time>
      </trkpt>
      <trkpt lat="47.94831" lon="-3.4888">
        <ele>124.98</ele>
        <time>2018-06-01T13:09:52Z</time>
      </trkpt>
      <trkpt lat="47.9484" lon="-3.48864">
        <ele>125.7</ele>
        <time>2018-06-01T13:10:02Z</time>
      </trkpt>
      <trkpt lat="47.94848" lon="-3.48845">
        <ele>126.13</ele>
        <time>2018-06-01T13:10:11Z</time>
      </trkpt>
      <trkpt lat="47.94854" lon="-3.48835">
        <ele>126.08</ele>
        <time>2018-06-01T13:10:17Z</time>
      </trkpt>
      <trkpt lat="47.94866" lon="-3.48813">
        <ele>126.47</ele>
        <time>2018-06-01T13:10:30Z</time>
      </trkpt>
      <trkpt lat="47.94875" lon="-3.48793">
        <ele>126.93</ele>
        <time>2018-06-01T13:10:43Z</time>
      </trkpt>
      <trkpt lat="47.94876" lon="-3.48791">
        <ele>127</ele>
        <time>2018-06-01T13:10:44Z</time>
      </trkpt>
      <trkpt lat="47.94878" lon="-3.48778">
        <ele>127.87</ele>
        <time>2018-06-01T13:10:50Z</time>
      </trkpt>
      <trkpt lat="47.94883" lon="-3.48753">
        <ele>130.44</ele>
        <time>2018-06-01T13:11:06Z</time>
      </trkpt>
      <trkpt lat="47.94887" lon="-3.48725">
        <ele>132.78</ele>
        <time>2018-06-01T13:11:18Z</time>
      </trkpt>
      <trkpt lat="47.94887" lon="-3.48708">
        <ele>134.67</ele>
        <time>2018-06-01T13:11:29Z</time>
      </trkpt>
      <trkpt lat="47.9488" lon="-3.48666">
        <ele>135.3</ele>
        <time>2018-06-01T13:11:45Z</time>
      </trkpt>
      <trkpt lat="47.94866" lon="-3.4862">
        <ele>135.36</ele>
        <time>2018-06-01T13:12:02Z</time>
      </trkpt>
      <trkpt lat="47.94857" lon="-3.48588">
        <ele>136.11</ele>
        <time>2018-06-01T13:12:16Z</time>
      </trkpt>
      <trkpt lat="47.94849" lon="-3.48566">
        <ele>137.64</ele>
        <time>2018-06-01T13:12:28Z</time>
      </trkpt>
      <trkpt lat="47.94845" lon="-3.48544">
        <ele>139.34</ele>
        <time>2018-06-01T13:12:39Z</time>
      </trkpt>
      <trkpt lat="47.94827" lon="-3.48536">
        <ele>140.05</ele>
        <time>2018-06-01T13:12:52Z</time>
      </trkpt>
      <trkpt lat="47.94798" lon="-3.48541">
        <ele>139.62</ele>
        <time>2018-06-01T13:13:10Z</time>
      </trkpt>
      <trkpt lat="47.94768" lon="-3.48553">
        <ele>139.09</ele>
        <time>2018-06-01T13:13:28Z</time>
      </trkpt>
      <trkpt lat="47.94731" lon="-3.48566">
        <ele>139.41</ele>
        <time>2018-06-01T13:13:50Z</time>
      </trkpt>
      <trkpt lat="47.94715" lon="-3.48573">
        <ele>139.92</ele>
        <time>2018-06-01T13:14:05Z</time>
      </trkpt>
      <trkpt lat="47.94708" lon="-3.48576">
        <ele>139.76</ele>
        <time>2018-06-01T13:14:10Z</time>
      </trkpt>
      <trkpt lat="47.94674" lon="-3.48594">
        <ele>140.41</ele>
        <time>2018-06-01T13:14:31Z</time>
      </trkpt>
      <trkpt lat="47.9465" lon="-3.48607">
        <ele>140.36</ele>
        <time>2018-06-01T13:14:49Z</time>
      </trkpt>
      <trkpt lat="47.94649" lon="-3.48608">
        <ele>140.36</ele>
        <time>2018-06-01T13:14:51Z</time>
      </trkpt>
      <trkpt lat="47.94645" lon="-3.4861">
        <ele>140.37</ele>
        <time>2018-06-01T13:14:54Z</time>
      </trkpt>
      <trkpt lat="47.94628" lon="-3.48615">
        <ele>139.97</ele>
        <time>2018-06-01T13:15:10Z</time>
      </trkpt>
      <trkpt lat="47.94624" lon="-3.48618">
        <ele>140.38</ele>
        <time>2018-06-01T13:15:27Z</time>
      </trkpt>
      <trkpt lat="47.94622" lon="-3.48623">
        <ele>140.53</ele>
        <time>2018-06-01T13:15:51Z</time>
      </trkpt>
      <trkpt lat="47.94621" lon="-3.48624">
        <ele>140.58</ele>
        <time>2018-06-01T13:15:58Z</time>
      </trkpt>
      <trkpt lat="47.94608" lon="-3.4863">
        <ele>140.39</ele>
        <time>2018-06-01T13:16:08Z</time>
      </trkpt>
      <trkpt lat="47.9458" lon="-3.4866">
        <ele>140.38</ele>
        <time>2018-06-01T13:16:29Z</time>
      </trkpt>
      <trkpt lat="47.9456" lon="-3.48678">
        <ele>140.1</ele>
        <time>2018-06-01T13:16:44Z</time>
      </trkpt>
      <trkpt lat="47.94539" lon="-3.48703">
        <ele>139.2</ele>
        <time>2018-06-01T13:17:00Z</time>
      </trkpt>
      <trkpt lat="47.94509" lon="-3.48721">
        <ele>137.14</ele>
        <time>2018-06-01T13:17:17Z</time>
      </trkpt>
      <trkpt lat="47.94485" lon="-3.48729">
        <ele>134.38</ele>
        <time>2018-06-01T13:17:33Z</time>
      </trkpt>
      <trkpt lat="47.94467" lon="-3.48728">
        <ele>132.12</ele>
        <time>2018-06-01T13:17:45Z</time>
      </trkpt>
      <trkpt lat="47.94442" lon="-3.48717">
        <ele>129.24</ele>
        <time>2018-06-01T13:18:00Z</time>
      </trkpt>
      <trkpt lat="47.94428" lon="-3.4871">
        <ele>126.21</ele>
        <time>2018-06-01T13:18:09Z</time>
      </trkpt>
      <trkpt lat="47.94413" lon="-3.48704">
        <ele>123.19</ele>
        <time>2018-06-01T13:18:17Z</time>
      </trkpt>
      <trkpt lat="47.94398" lon="-3.487">
        <ele>119.92</ele>
        <time>2018-06-01T13:18:25Z</time>
      </trkpt>
      <trkpt lat="47.94379" lon="-3.48694">
        <ele>116.77</ele>
        <time>2018-06-01T13:18:36Z</time>
      </trkpt>
      <trkpt lat="47.94357" lon="-3.4869">
        <ele>113.73</ele>
        <time>2018-06-01T13:18:49Z</time>
      </trkpt>
      <trkpt lat="47.94337" lon="-3.48684">
        <ele>110.55</ele>
        <time>2018-06-01T13:19:02Z</time>
      </trkpt>
      <trkpt lat="47.94315" lon="-3.4868">
        <ele>107.43</ele>
        <time>2018-06-01T13:19:16Z</time>
      </trkpt>
      <trkpt lat="47.94298" lon="-3.48678">
        <ele>104.32</ele>
        <time>2018-06-01T13:19:29Z</time>
      </trkpt>
      <trkpt lat="47.94292" lon="-3.48643">
        <ele>102.2</ele>
        <time>2018-06-01T13:19:44Z</time>
      </trkpt>
      <trkpt lat="47.94292" lon="-3.48641">
        <ele>102.17</ele>
        <time>2018-06-01T13:19:45Z</time>
      </trkpt>
      <trkpt lat="47.94292" lon="-3.48639">
        <ele>102.14</ele>
        <time>2018-06-01T13:19:46Z</time>
      </trkpt>
      <trkpt lat="47.94292" lon="-3.48637">
        <ele>102.11</ele>
        <time>2018-06-01T13:19:47Z</time>
      </trkpt>
      <trkpt lat="47.94291" lon="-3.48634">
        <ele>102.06</ele>
        <time>2018-06-01T13:19:48Z</time>
      </trkpt>
      <trkpt lat="47.94291" lon="-3.48632">
        <ele>101.97</ele>
        <time>2018-06-01T13:19:49Z</time>
      </trkpt>
      <trkpt lat="47.94291" lon="-3.48629">
        <ele>101.93</ele>
        <time>2018-06-01T13:19:50Z</time>
      </trkpt>
      <trkpt lat="47.94293" lon="-3.48601">
        <ele>101.23</ele>
        <time>2018-06-01T13:20:02Z</time>
      </trkpt>
      <trkpt lat="47.94292" lon="-3.486">
        <ele>101.13</ele>
        <time>2018-06-01T13:20:03Z</time>
      </trkpt>
      <trkpt lat="47.94281" lon="-3.4859">
        <ele>97.88</ele>
        <time>2018-06-01T13:20:16Z</time>
      </trkpt>
      <trkpt lat="47.94276" lon="-3.48591">
        <ele>96.13</ele>
        <time>2018-06-01T13:20:21Z</time>
      </trkpt>
      <trkpt lat="47.94263" lon="-3.48589">
        <ele>92.83</ele>
        <time>2018-06-01T13:20:30Z</time>
      </trkpt>
      <trkpt lat="47.9425" lon="-3.48584">
        <ele>90.19</ele>
        <time>2018-06-01T13:20:38Z</time>
      </trkpt>
      <trkpt lat="47.94249" lon="-3.48583">
        <ele>89.64</ele>
        <time>2018-06-01T13:20:39Z</time>
      </trkpt>
      <trkpt lat="47.94246" lon="-3.48582">
        <ele>89.37</ele>
        <time>2018-06-01T13:20:40Z</time>
      </trkpt>
      <trkpt lat="47.94244" lon="-3.48581">
        <ele>89.1</ele>
        <time>2018-06-01T13:20:41Z</time>
      </trkpt>
      <trkpt lat="47.94242" lon="-3.48581">
        <ele>88.85</ele>
        <time>2018-06-01T13:20:42Z</time>
      </trkpt>
      <trkpt lat="47.9424" lon="-3.4858">
        <ele>88.63</ele>
        <time>2018-06-01T13:20:43Z</time>
      </trkpt>
      <trkpt lat="47.94238" lon="-3.4858">
        <ele>88.41</ele>
        <time>2018-06-01T13:20:44Z</time>
      </trkpt>
      <trkpt lat="47.94236" lon="-3.48579">
        <ele>88.18</ele>
        <time>2018-06-01T13:20:45Z</time>
      </trkpt>
      <trkpt lat="47.94235" lon="-3.48579">
        <ele>87.96</ele>
        <time>2018-06-01T13:20:46Z</time>
      </trkpt>
      <trkpt lat="47.9423" lon="-3.48582">
        <ele>87.6</ele>
        <time>2018-06-01T13:20:48Z</time>
      </trkpt>
      <trkpt lat="47.94216" lon="-3.48587">
        <ele>86.5</ele>
        <time>2018-06-01T13:20:57Z</time>
      </trkpt>
      <trkpt lat="47.94214" lon="-3.48587">
        <ele>86.44</ele>
        <time>2018-06-01T13:20:58Z</time>
      </trkpt>
      <trkpt lat="47.94213" lon="-3.48586">
        <ele>86.42</ele>
        <time>2018-06-01T13:20:59Z</time>
      </trkpt>
      <trkpt lat="47.94211" lon="-3.48586">
        <ele>86.47</ele>
        <time>2018-06-01T13:21:00Z</time>
      </trkpt>
      <trkpt lat="47.94209" lon="-3.48586">
        <ele>86.51</ele>
        <time>2018-06-01T13:21:01Z</time>
      </trkpt>
      <trkpt lat="47.94183" lon="-3.48604">
        <ele>88.75</ele>
        <time>2018-06-01T13:21:11Z</time>
      </trkpt>
      <trkpt lat="47.94169" lon="-3.48618">
        <ele>92.1</ele>
        <time>2018-06-01T13:21:17Z</time>
      </trkpt>
      <trkpt lat="47.94166" lon="-3.48623">
        <ele>92.73</ele>
        <time>2018-06-01T13:21:18Z</time>
      </trkpt>
      <trkpt lat="47.94154" lon="-3.48641">
        <ele>94.65</ele>
        <time>2018-06-01T13:21:21Z</time>
      </trkpt>
      <trkpt lat="47.94136" lon="-3.48668">
        <ele>98.31</ele>
        <time>2018-06-01T13:21:26Z</time>
      </trkpt>
      <trkpt lat="47.94129" lon="-3.48679">
        <ele>101.34</ele>
        <time>2018-06-01T13:21:29Z</time>
      </trkpt>
      <trkpt lat="47.94123" lon="-3.48689">
        <ele>104.58</ele>
        <time>2018-06-01T13:21:35Z</time>
      </trkpt>
      <trkpt lat="47.94117" lon="-3.48698">
        <ele>107.65</ele>
        <time>2018-06-01T13:21:47Z</time>
      </trkpt>
      <trkpt lat="47.94111" lon="-3.48714">
        <ele>108.82</ele>
        <time>2018-06-01T13:22:08Z</time>
      </trkpt>
      <trkpt lat="47.94107" lon="-3.48716">
        <ele>109.33</ele>
        <time>2018-06-01T13:22:38Z</time>
      </trkpt>
      <trkpt lat="47.94105" lon="-3.48715">
        <ele>109.49</ele>
        <time>2018-06-01T13:23:03Z</time>
      </trkpt>
      <trkpt lat="47.94109" lon="-3.48697">
        <ele>107.77</ele>
        <time>2018-06-01T13:23:19Z</time>
      </trkpt>
      <trkpt lat="47.94112" lon="-3.48675">
        <ele>106.23</ele>
        <time>2018-06-01T13:23:32Z</time>
      </trkpt>
      <trkpt lat="47.94113" lon="-3.48672">
        <ele>106.08</ele>
        <time>2018-06-01T13:23:33Z</time>
      </trkpt>
      <trkpt lat="47.94116" lon="-3.48659">
        <ele>105.19</ele>
        <time>2018-06-01T13:23:40Z</time>
      </trkpt>
      <trkpt lat="47.94126" lon="-3.48627">
        <ele>104.1</ele>
        <time>2018-06-01T13:23:53Z</time>
      </trkpt>
      <trkpt lat="47.94133" lon="-3.486">
        <ele>102.43</ele>
        <time>2018-06-01T13:24:05Z</time>
      </trkpt>
      <trkpt lat="47.94138" lon="-3.48588">
        <ele>101.72</ele>
        <time>2018-06-01T13:24:10Z</time>
      </trkpt>
      <trkpt lat="47.94141" lon="-3.48576">
        <ele>100.99</ele>
        <time>2018-06-01T13:24:16Z</time>
      </trkpt>
      <trkpt lat="47.94149" lon="-3.48544">
        <ele>99.19</ele>
        <time>2018-06-01T13:24:33Z</time>
      </trkpt>
      <trkpt lat="47.94151" lon="-3.4854">
        <ele>99.14</ele>
        <time>2018-06-01T13:24:35Z</time>
      </trkpt>
      <trkpt lat="47.94154" lon="-3.48525">
        <ele>98.87</ele>
        <time>2018-06-01T13:24:41Z</time>
      </trkpt>
      <trkpt lat="47.94154" lon="-3.48521">
        <ele>98.71</ele>
        <time>2018-06-01T13:24:43Z</time>
      </trkpt>
      <trkpt lat="47.94156" lon="-3.48515">
        <ele>98.6</ele>
        <time>2018-06-01T13:24:46Z</time>
      </trkpt>
      <trkpt lat="47.94159" lon="-3.48507">
        <ele>98.29</ele>
        <time>2018-06-01T13:24:51Z</time>
      </trkpt>
      <trkpt lat="47.94161" lon="-3.48474">
        <ele>97.37</ele>
        <time>2018-06-01T13:25:05Z</time>
      </trkpt>
      <trkpt lat="47.94156" lon="-3.48446">
        <ele>96.7</ele>
        <time>2018-06-01T13:25:17Z</time>
      </trkpt>
      <trkpt lat="47.9416" lon="-3.48404">
        <ele>95.63</ele>
        <time>2018-06-01T13:25:37Z</time>
      </trkpt>
      <trkpt lat="47.9416" lon="-3.4836">
        <ele>95.05</ele>
        <time>2018-06-01T13:25:55Z</time>
      </trkpt>
      <trkpt lat="47.9416" lon="-3.48316">
        <ele>94.89</ele>
        <time>2018-06-01T13:26:10Z</time>
      </trkpt>
      <trkpt lat="47.94164" lon="-3.483">
        <ele>94.18</ele>
        <time>2018-06-01T13:26:16Z</time>
      </trkpt>
      <trkpt lat="47.94172" lon="-3.48275">
        <ele>92.9</ele>
        <time>2018-06-01T13:26:27Z</time>
      </trkpt>
      <trkpt lat="47.94172" lon="-3.4823">
        <ele>91.48</ele>
        <time>2018-06-01T13:26:45Z</time>
      </trkpt>
      <trkpt lat="47.94172" lon="-3.48224">
        <ele>91.44</ele>
        <time>2018-06-01T13:26:47Z</time>
      </trkpt>
      <trkpt lat="47.94176" lon="-3.4818">
        <ele>90.69</ele>
        <time>2018-06-01T13:27:07Z</time>
      </trkpt>
      <trkpt lat="47.9417" lon="-3.48139">
        <ele>90.49</ele>
        <time>2018-06-01T13:27:25Z</time>
      </trkpt>
      <trkpt lat="47.94169" lon="-3.48106">
        <ele>92.01</ele>
        <time>2018-06-01T13:27:47Z</time>
      </trkpt>
      <trkpt lat="47.94164" lon="-3.48055">
        <ele>91.52</ele>
        <time>2018-06-01T13:28:10Z</time>
      </trkpt>
      <trkpt lat="47.94161" lon="-3.48019">
        <ele>90.44</ele>
        <time>2018-06-01T13:28:30Z</time>
      </trkpt>
      <trkpt lat="47.94146" lon="-3.47979">
        <ele>88.25</ele>
        <time>2018-06-01T13:28:49Z</time>
      </trkpt>
      <trkpt lat="47.94133" lon="-3.47956">
        <ele>88.68</ele>
        <time>2018-06-01T13:29:07Z</time>
      </trkpt>
      <trkpt lat="47.94127" lon="-3.47957">
        <ele>89.29</ele>
        <time>2018-06-01T13:29:11Z</time>
      </trkpt>
      <trkpt lat="47.94112" lon="-3.47961">
        <ele>91.4</ele>
        <time>2018-06-01T13:29:26Z</time>
      </trkpt>
      <trkpt lat="47.94089" lon="-3.47958">
        <ele>94.12</ele>
        <time>2018-06-01T13:29:44Z</time>
      </trkpt>
      <trkpt lat="47.94083" lon="-3.47957">
        <ele>94.83</ele>
        <time>2018-06-01T13:29:48Z</time>
      </trkpt>
      <trkpt lat="47.94075" lon="-3.47956">
        <ele>95.68</ele>
        <time>2018-06-01T13:29:53Z</time>
      </trkpt>
      <trkpt lat="47.94057" lon="-3.4796">
        <ele>97.47</ele>
        <time>2018-06-01T13:30:07Z</time>
      </trkpt>
      <trkpt lat="47.94029" lon="-3.47962">
        <ele>99.39</ele>
        <time>2018-06-01T13:30:23Z</time>
      </trkpt>
      <trkpt lat="47.93994" lon="-3.47965">
        <ele>102.34</ele>
        <time>2018-06-01T13:30:33Z</time>
      </trkpt>
      <trkpt lat="47.93968" lon="-3.47963">
        <ele>105.47</ele>
        <time>2018-06-01T13:30:41Z</time>
      </trkpt>
      <trkpt lat="47.93945" lon="-3.47965">
        <ele>108.72</ele>
        <time>2018-06-01T13:30:48Z</time>
      </trkpt>
      <trkpt lat="47.93929" lon="-3.47971">
        <ele>112.49</ele>
        <time>2018-06-01T13:30:55Z</time>
      </trkpt>
      <trkpt lat="47.93915" lon="-3.4797">
        <ele>115.58</ele>
        <time>2018-06-01T13:31:04Z</time>
      </trkpt>
      <trkpt lat="47.93895" lon="-3.47968">
        <ele>118.06</ele>
        <time>2018-06-01T13:31:14Z</time>
      </trkpt>
      <trkpt lat="47.93873" lon="-3.47963">
        <ele>120.33</ele>
        <time>2018-06-01T13:31:27Z</time>
      </trkpt>
      <trkpt lat="47.93871" lon="-3.47963">
        <ele>120.42</ele>
        <time>2018-06-01T13:31:28Z</time>
      </trkpt>
      <trkpt lat="47.9387" lon="-3.47963">
        <ele>120.48</ele>
        <time>2018-06-01T13:31:29Z</time>
      </trkpt>
      <trkpt lat="47.93869" lon="-3.47962">
        <ele>120.55</ele>
        <time>2018-06-01T13:31:30Z</time>
      </trkpt>
      <trkpt lat="47.93868" lon="-3.47962">
        <ele>120.6</ele>
        <time>2018-06-01T13:31:31Z</time>
      </trkpt>
      <trkpt lat="47.93855" lon="-3.47953">
        <ele>122.53</ele>
        <time>2018-06-01T13:31:45Z</time>
      </trkpt>
      <trkpt lat="47.93849" lon="-3.47948">
        <ele>123.08</ele>
        <time>2018-06-01T13:31:52Z</time>
      </trkpt>
      <trkpt lat="47.93847" lon="-3.47947">
        <ele>123.09</ele>
        <time>2018-06-01T13:31:53Z</time>
      </trkpt>
      <trkpt lat="47.93845" lon="-3.47946">
        <ele>123.09</ele>
        <time>2018-06-01T13:31:54Z</time>
      </trkpt>
      <trkpt lat="47.93844" lon="-3.47945">
        <ele>123.08</ele>
        <time>2018-06-01T13:31:55Z</time>
      </trkpt>
      <trkpt lat="47.93842" lon="-3.47945">
        <ele>123.07</ele>
        <time>2018-06-01T13:31:56Z</time>
      </trkpt>
      <trkpt lat="47.9384" lon="-3.47944">
        <ele>123.05</ele>
        <time>2018-06-01T13:31:57Z</time>
      </trkpt>
      <trkpt lat="47.93811" lon="-3.47932">
        <ele>123.29</ele>
        <time>2018-06-01T13:32:15Z</time>
      </trkpt>
      <trkpt lat="47.93784" lon="-3.47923">
        <ele>123.74</ele>
        <time>2018-06-01T13:32:33Z</time>
      </trkpt>
      <trkpt lat="47.93756" lon="-3.47921">
        <ele>123.94</ele>
        <time>2018-06-01T13:32:52Z</time>
      </trkpt>
      <trkpt lat="47.93747" lon="-3.47925">
        <ele>123.79</ele>
        <time>2018-06-01T13:33:03Z</time>
      </trkpt>
      <trkpt lat="47.93745" lon="-3.47924">
        <ele>123.64</ele>
        <time>2018-06-01T13:33:06Z</time>
      </trkpt>
      <trkpt lat="47.93744" lon="-3.47924">
        <ele>123.6</ele>
        <time>2018-06-01T13:33:07Z</time>
      </trkpt>
      <trkpt lat="47.93731" lon="-3.47901">
        <ele>124.25</ele>
        <time>2018-06-01T13:33:22Z</time>
      </trkpt>
      <trkpt lat="47.93729" lon="-3.47896">
        <ele>124.23</ele>
        <time>2018-06-01T13:33:25Z</time>
      </trkpt>
      <trkpt lat="47.93729" lon="-3.47894">
        <ele>124.24</ele>
        <time>2018-06-01T13:33:26Z</time>
      </trkpt>
      <trkpt lat="47.93723" lon="-3.47884">
        <ele>124.4</ele>
        <time>2018-06-01T13:33:32Z</time>
      </trkpt>
      <trkpt lat="47.93722" lon="-3.47883">
        <ele>124.4</ele>
        <time>2018-06-01T13:33:33Z</time>
      </trkpt>
      <trkpt lat="47.93721" lon="-3.47882">
        <ele>124.38</ele>
        <time>2018-06-01T13:33:34Z</time>
      </trkpt>
      <trkpt lat="47.93719" lon="-3.47881">
        <ele>124.35</ele>
        <time>2018-06-01T13:33:35Z</time>
      </trkpt>
      <trkpt lat="47.93718" lon="-3.4788">
        <ele>124.31</ele>
        <time>2018-06-01T13:33:36Z</time>
      </trkpt>
      <trkpt lat="47.93717" lon="-3.47877">
        <ele>124.28</ele>
        <time>2018-06-01T13:33:37Z</time>
      </trkpt>
      <trkpt lat="47.93716" lon="-3.47875">
        <ele>124.25</ele>
        <time>2018-06-01T13:33:38Z</time>
      </trkpt>
      <trkpt lat="47.93715" lon="-3.47873">
        <ele>124.21</ele>
        <time>2018-06-01T13:33:39Z</time>
      </trkpt>
      <trkpt lat="47.93713" lon="-3.47871">
        <ele>124.18</ele>
        <time>2018-06-01T13:33:40Z</time>
      </trkpt>
      <trkpt lat="47.93712" lon="-3.4787">
        <ele>124.15</ele>
        <time>2018-06-01T13:33:41Z</time>
      </trkpt>
      <trkpt lat="47.9371" lon="-3.47869">
        <ele>124.1</ele>
        <time>2018-06-01T13:33:42Z</time>
      </trkpt>
      <trkpt lat="47.93708" lon="-3.47867">
        <ele>124.03</ele>
        <time>2018-06-01T13:33:43Z</time>
      </trkpt>
      <trkpt lat="47.9369" lon="-3.47847">
        <ele>123.78</ele>
        <time>2018-06-01T13:33:58Z</time>
      </trkpt>
      <trkpt lat="47.93683" lon="-3.47844">
        <ele>123.62</ele>
        <time>2018-06-01T13:34:07Z</time>
      </trkpt>
      <trkpt lat="47.93682" lon="-3.47844">
        <ele>123.6</ele>
        <time>2018-06-01T13:34:08Z</time>
      </trkpt>
      <trkpt lat="47.93681" lon="-3.47844">
        <ele>123.55</ele>
        <time>2018-06-01T13:34:09Z</time>
      </trkpt>
      <trkpt lat="47.9368" lon="-3.47844">
        <ele>123.48</ele>
        <time>2018-06-01T13:34:10Z</time>
      </trkpt>
      <trkpt lat="47.93679" lon="-3.47844">
        <ele>123.39</ele>
        <time>2018-06-01T13:34:11Z</time>
      </trkpt>
      <trkpt lat="47.93677" lon="-3.47845">
        <ele>123.32</ele>
        <time>2018-06-01T13:34:12Z</time>
      </trkpt>
      <trkpt lat="47.93676" lon="-3.47846">
        <ele>123.24</ele>
        <time>2018-06-01T13:34:13Z</time>
      </trkpt>
      <trkpt lat="47.93674" lon="-3.47846">
        <ele>123.19</ele>
        <time>2018-06-01T13:34:14Z</time>
      </trkpt>
      <trkpt lat="47.93673" lon="-3.47847">
        <ele>123.15</ele>
        <time>2018-06-01T13:34:15Z</time>
      </trkpt>
      <trkpt lat="47.93647" lon="-3.47863">
        <ele>121.32</ele>
        <time>2018-06-01T13:34:33Z</time>
      </trkpt>
      <trkpt lat="47.93625" lon="-3.47868">
        <ele>119.97</ele>
        <time>2018-06-01T13:34:48Z</time>
      </trkpt>
      <trkpt lat="47.93618" lon="-3.47867">
        <ele>119.54</ele>
        <time>2018-06-01T13:35:06Z</time>
      </trkpt>
      <trkpt lat="47.93594" lon="-3.47876">
        <ele>118.19</ele>
        <time>2018-06-01T13:35:23Z</time>
      </trkpt>
      <trkpt lat="47.93591" lon="-3.47877">
        <ele>118.09</ele>
        <time>2018-06-01T13:35:25Z</time>
      </trkpt>
      <trkpt lat="47.9359" lon="-3.47877">
        <ele>118.06</ele>
        <time>2018-06-01T13:35:26Z</time>
      </trkpt>
      <trkpt lat="47.93589" lon="-3.47878">
        <ele>118.01</ele>
        <time>2018-06-01T13:35:27Z</time>
      </trkpt>
      <trkpt lat="47.9357" lon="-3.47886">
        <ele>116.76</ele>
        <time>2018-06-01T13:35:41Z</time>
      </trkpt>
      <trkpt lat="47.93562" lon="-3.47893">
        <ele>115.78</ele>
        <time>2018-06-01T13:35:48Z</time>
      </trkpt>
      <trkpt lat="47.93537" lon="-3.47905">
        <ele>114.31</ele>
        <time>2018-06-01T13:36:04Z</time>
      </trkpt>
      <trkpt lat="47.9351" lon="-3.47918">
        <ele>114.12</ele>
        <time>2018-06-01T13:36:22Z</time>
      </trkpt>
      <trkpt lat="47.93489" lon="-3.47928">
        <ele>114.65</ele>
        <time>2018-06-01T13:36:38Z</time>
      </trkpt>
      <trkpt lat="47.93465" lon="-3.47937">
        <ele>115.3</ele>
        <time>2018-06-01T13:36:54Z</time>
      </trkpt>
      <trkpt lat="47.93436" lon="-3.47947">
        <ele>115.24</ele>
        <time>2018-06-01T13:37:13Z</time>
      </trkpt>
      <trkpt lat="47.93413" lon="-3.47952">
        <ele>114.92</ele>
        <time>2018-06-01T13:37:29Z</time>
      </trkpt>
      <trkpt lat="47.93406" lon="-3.47955">
        <ele>114.66</ele>
        <time>2018-06-01T13:37:35Z</time>
      </trkpt>
      <trkpt lat="47.93401" lon="-3.47963">
        <ele>114.54</ele>
        <time>2018-06-01T13:37:40Z</time>
      </trkpt>
      <trkpt lat="47.93401" lon="-3.47965">
        <ele>114.53</ele>
        <time>2018-06-01T13:37:41Z</time>
      </trkpt>
      <trkpt lat="47.934" lon="-3.47967">
        <ele>114.51</ele>
        <time>2018-06-01T13:37:42Z</time>
      </trkpt>
      <trkpt lat="47.934" lon="-3.47969">
        <ele>114.51</ele>
        <time>2018-06-01T13:37:43Z</time>
      </trkpt>
      <trkpt lat="47.93401" lon="-3.47971">
        <ele>114.5</ele>
        <time>2018-06-01T13:37:44Z</time>
      </trkpt>
      <trkpt lat="47.93401" lon="-3.4799">
        <ele>115.15</ele>
        <time>2018-06-01T13:38:00Z</time>
      </trkpt>
      <trkpt lat="47.93402" lon="-3.47993">
        <ele>115.17</ele>
        <time>2018-06-01T13:38:03Z</time>
      </trkpt>
      <trkpt lat="47.93402" lon="-3.47995">
        <ele>115.12</ele>
        <time>2018-06-01T13:38:04Z</time>
      </trkpt>
      <trkpt lat="47.93402" lon="-3.47997">
        <ele>115.08</ele>
        <time>2018-06-01T13:38:05Z</time>
      </trkpt>
      <trkpt lat="47.93402" lon="-3.47999">
        <ele>115.05</ele>
        <time>2018-06-01T13:38:06Z</time>
      </trkpt>
      <trkpt lat="47.93402" lon="-3.48001">
        <ele>115.06</ele>
        <time>2018-06-01T13:38:07Z</time>
      </trkpt>
      <trkpt lat="47.93402" lon="-3.48003">
        <ele>115.16</ele>
        <time>2018-06-01T13:38:08Z</time>
      </trkpt>
      <trkpt lat="47.93403" lon="-3.48005">
        <ele>115.29</ele>
        <time>2018-06-01T13:38:09Z</time>
      </trkpt>
      <trkpt lat="47.93403" lon="-3.48008">
        <ele>115.38</ele>
        <time>2018-06-01T13:38:10Z</time>
      </trkpt>
      <trkpt lat="47.93403" lon="-3.4801">
        <ele>115.45</ele>
        <time>2018-06-01T13:38:11Z</time>
      </trkpt>
      <trkpt lat="47.93406" lon="-3.48047">
        <ele>116.13</ele>
        <time>2018-06-01T13:38:28Z</time>
      </trkpt>
      <trkpt lat="47.93395" lon="-3.4808">
        <ele>116.39</ele>
        <time>2018-06-01T13:38:46Z</time>
      </trkpt>
      <trkpt lat="47.93374" lon="-3.48116">
        <ele>115.83</ele>
        <time>2018-06-01T13:39:06Z</time>
      </trkpt>
      <trkpt lat="47.93347" lon="-3.48155">
        <ele>114.95</ele>
        <time>2018-06-01T13:39:29Z</time>
      </trkpt>
      <trkpt lat="47.93321" lon="-3.48181">
        <ele>114.76</ele>
        <time>2018-06-01T13:39:49Z</time>
      </trkpt>
      <trkpt lat="47.933" lon="-3.48205">
        <ele>115.07</ele>
        <time>2018-06-01T13:40:08Z</time>
      </trkpt>
      <trkpt lat="47.93292" lon="-3.48216">
        <ele>115.07</ele>
        <time>2018-06-01T13:40:16Z</time>
      </trkpt>
      <trkpt lat="47.93291" lon="-3.48218">
        <ele>115.08</ele>
        <time>2018-06-01T13:40:17Z</time>
      </trkpt>
      <trkpt lat="47.93275" lon="-3.48237">
        <ele>115.38</ele>
        <time>2018-06-01T13:40:30Z</time>
      </trkpt>
      <trkpt lat="47.93258" lon="-3.48257">
        <ele>115.51</ele>
        <time>2018-06-01T13:40:44Z</time>
      </trkpt>
      <trkpt lat="47.93235" lon="-3.48271">
        <ele>115.65</ele>
        <time>2018-06-01T13:41:00Z</time>
      </trkpt>
      <trkpt lat="47.9322" lon="-3.4828">
        <ele>115.58</ele>
        <time>2018-06-01T13:41:10Z</time>
      </trkpt>
      <trkpt lat="47.93217" lon="-3.48281">
        <ele>115.56</ele>
        <time>2018-06-01T13:41:12Z</time>
      </trkpt>
      <trkpt lat="47.93216" lon="-3.48282">
        <ele>115.47</ele>
        <time>2018-06-01T13:41:13Z</time>
      </trkpt>
      <trkpt lat="47.93214" lon="-3.48283">
        <ele>115.42</ele>
        <time>2018-06-01T13:41:14Z</time>
      </trkpt>
      <trkpt lat="47.93212" lon="-3.48284">
        <ele>115.38</ele>
        <time>2018-06-01T13:41:15Z</time>
      </trkpt>
      <trkpt lat="47.93204" lon="-3.48288">
        <ele>115</ele>
        <time>2018-06-01T13:41:21Z</time>
      </trkpt>
      <trkpt lat="47.93203" lon="-3.48288">
        <ele>114.91</ele>
        <time>2018-06-01T13:41:22Z</time>
      </trkpt>
      <trkpt lat="47.93202" lon="-3.48289">
        <ele>114.82</ele>
        <time>2018-06-01T13:41:23Z</time>
      </trkpt>
      <trkpt lat="47.932" lon="-3.4829">
        <ele>114.7</ele>
        <time>2018-06-01T13:41:24Z</time>
      </trkpt>
      <trkpt lat="47.93181" lon="-3.48302">
        <ele>113.16</ele>
        <time>2018-06-01T13:41:37Z</time>
      </trkpt>
      <trkpt lat="47.93152" lon="-3.48311">
        <ele>111.04</ele>
        <time>2018-06-01T13:41:52Z</time>
      </trkpt>
      <trkpt lat="47.93122" lon="-3.4831">
        <ele>107.9</ele>
        <time>2018-06-01T13:42:10Z</time>
      </trkpt>
      <trkpt lat="47.93093" lon="-3.48303">
        <ele>104.78</ele>
        <time>2018-06-01T13:42:29Z</time>
      </trkpt>
      <trkpt lat="47.93066" lon="-3.48294">
        <ele>101.87</ele>
        <time>2018-06-01T13:42:47Z</time>
      </trkpt>
      <trkpt lat="47.93046" lon="-3.48289">
        <ele>98.68</ele>
        <time>2018-06-01T13:43:01Z</time>
      </trkpt>
      <trkpt lat="47.93028" lon="-3.48283">
        <ele>95.98</ele>
        <time>2018-06-01T13:43:14Z</time>
      </trkpt>
      <trkpt lat="47.93013" lon="-3.48284">
        <ele>94.06</ele>
        <time>2018-06-01T13:43:26Z</time>
      </trkpt>
      <trkpt lat="47.92993" lon="-3.4828">
        <ele>92.67</ele>
        <time>2018-06-01T13:43:38Z</time>
      </trkpt>
      <trkpt lat="47.92972" lon="-3.48268">
        <ele>91.77</ele>
        <time>2018-06-01T13:43:54Z</time>
      </trkpt>
      <trkpt lat="47.92965" lon="-3.48242">
        <ele>91.92</ele>
        <time>2018-06-01T13:44:09Z</time>
      </trkpt>
      <trkpt lat="47.92968" lon="-3.48211">
        <ele>92.58</ele>
        <time>2018-06-01T13:44:25Z</time>
      </trkpt>
      <trkpt lat="47.92974" lon="-3.48174">
        <ele>92.86</ele>
        <time>2018-06-01T13:44:42Z</time>
      </trkpt>
      <trkpt lat="47.92979" lon="-3.48146">
        <ele>93.1</ele>
        <time>2018-06-01T13:44:57Z</time>
      </trkpt>
      <trkpt lat="47.92986" lon="-3.48102">
        <ele>92.98</ele>
        <time>2018-06-01T13:45:16Z</time>
      </trkpt>
      <trkpt lat="47.92991" lon="-3.48048">
        <ele>93.52</ele>
        <time>2018-06-01T13:45:39Z</time>
      </trkpt>
      <trkpt lat="47.92997" lon="-3.48009">
        <ele>94.37</ele>
        <time>2018-06-01T13:45:58Z</time>
      </trkpt>
      <trkpt lat="47.93007" lon="-3.47972">
        <ele>95.41</ele>
        <time>2018-06-01T13:46:16Z</time>
      </trkpt>
      <trkpt lat="47.93014" lon="-3.4794">
        <ele>96.26</ele>
        <time>2018-06-01T13:46:32Z</time>
      </trkpt>
      <trkpt lat="47.93015" lon="-3.47913">
        <ele>95.93</ele>
        <time>2018-06-01T13:46:45Z</time>
      </trkpt>
      <trkpt lat="47.93029" lon="-3.47869">
        <ele>94.26</ele>
        <time>2018-06-01T13:47:05Z</time>
      </trkpt>
      <trkpt lat="47.93045" lon="-3.47826">
        <ele>92.58</ele>
        <time>2018-06-01T13:47:25Z</time>
      </trkpt>
      <trkpt lat="47.93054" lon="-3.47794">
        <ele>91.28</ele>
        <time>2018-06-01T13:47:41Z</time>
      </trkpt>
      <trkpt lat="47.93057" lon="-3.47781">
        <ele>89.56</ele>
        <time>2018-06-01T13:47:58Z</time>
      </trkpt>
      <trkpt lat="47.93059" lon="-3.47775">
        <ele>89.53</ele>
        <time>2018-06-01T13:48:32Z</time>
      </trkpt>
      <trkpt lat="47.93064" lon="-3.47767">
        <ele>89.26</ele>
        <time>2018-06-01T13:48:39Z</time>
      </trkpt>
      <trkpt lat="47.93064" lon="-3.47766">
        <ele>89.19</ele>
        <time>2018-06-01T13:48:40Z</time>
      </trkpt>
      <trkpt lat="47.93077" lon="-3.47746">
        <ele>88.73</ele>
        <time>2018-06-01T13:48:56Z</time>
      </trkpt>
      <trkpt lat="47.9309" lon="-3.47729">
        <ele>88.27</ele>
        <time>2018-06-01T13:49:10Z</time>
      </trkpt>
      <trkpt lat="47.93092" lon="-3.47727">
        <ele>88.21</ele>
        <time>2018-06-01T13:49:12Z</time>
      </trkpt>
      <trkpt lat="47.93117" lon="-3.47715">
        <ele>88.44</ele>
        <time>2018-06-01T13:49:29Z</time>
      </trkpt>
      <trkpt lat="47.93129" lon="-3.47708">
        <ele>88.53</ele>
        <time>2018-06-01T13:49:39Z</time>
      </trkpt>
      <trkpt lat="47.9313" lon="-3.47707">
        <ele>88.54</ele>
        <time>2018-06-01T13:49:40Z</time>
      </trkpt>
      <trkpt lat="47.93134" lon="-3.47702">
        <ele>88.78</ele>
        <time>2018-06-01T13:52:01Z</time>
      </trkpt>
      <trkpt lat="47.93133" lon="-3.47704">
        <ele>88.97</ele>
        <time>2018-06-01T13:52:31Z</time>
      </trkpt>
      <trkpt lat="47.9313" lon="-3.47702">
        <ele>88.73</ele>
        <time>2018-06-01T13:53:10Z</time>
      </trkpt>
      <trkpt lat="47.9313" lon="-3.477">
        <ele>88.49</ele>
        <time>2018-06-01T13:53:48Z</time>
      </trkpt>
      <trkpt lat="47.93129" lon="-3.47696">
        <ele>88.53</ele>
        <time>2018-06-01T13:53:59Z</time>
      </trkpt>
      <trkpt lat="47.93127" lon="-3.47688">
        <ele>88.44</ele>
        <time>2018-06-01T13:54:04Z</time>
      </trkpt>
      <trkpt lat="47.93124" lon="-3.47659">
        <ele>87.51</ele>
        <time>2018-06-01T13:54:18Z</time>
      </trkpt>
      <trkpt lat="47.9312" lon="-3.47639">
        <ele>87.96</ele>
        <time>2018-06-01T13:54:32Z</time>
      </trkpt>
      <trkpt lat="47.93118" lon="-3.4763">
        <ele>88.1</ele>
        <time>2018-06-01T13:54:36Z</time>
      </trkpt>
      <trkpt lat="47.93107" lon="-3.47599">
        <ele>88.97</ele>
        <time>2018-06-01T13:54:52Z</time>
      </trkpt>
      <trkpt lat="47.93095" lon="-3.4757">
        <ele>90.19</ele>
        <time>2018-06-01T13:55:07Z</time>
      </trkpt>
      <trkpt lat="47.93085" lon="-3.47547">
        <ele>90.89</ele>
        <time>2018-06-01T13:55:17Z</time>
      </trkpt>
      <trkpt lat="47.93075" lon="-3.47511">
        <ele>92.14</ele>
        <time>2018-06-01T13:55:32Z</time>
      </trkpt>
      <trkpt lat="47.9308" lon="-3.47471">
        <ele>92.82</ele>
        <time>2018-06-01T13:55:49Z</time>
      </trkpt>
      <trkpt lat="47.93081" lon="-3.47431">
        <ele>93.54</ele>
        <time>2018-06-01T13:56:06Z</time>
      </trkpt>
      <trkpt lat="47.93088" lon="-3.4739">
        <ele>93.83</ele>
        <time>2018-06-01T13:56:22Z</time>
      </trkpt>
      <trkpt lat="47.93096" lon="-3.47351">
        <ele>95.76</ele>
        <time>2018-06-01T13:56:39Z</time>
      </trkpt>
      <trkpt lat="47.93106" lon="-3.47304">
        <ele>95.88</ele>
        <time>2018-06-01T13:56:59Z</time>
      </trkpt>
      <trkpt lat="47.93117" lon="-3.47257">
        <ele>95.88</ele>
        <time>2018-06-01T13:57:19Z</time>
      </trkpt>
      <trkpt lat="47.93127" lon="-3.4721">
        <ele>95.6</ele>
        <time>2018-06-01T13:57:38Z</time>
      </trkpt>
      <trkpt lat="47.93131" lon="-3.47162">
        <ele>94.74</ele>
        <time>2018-06-01T13:57:58Z</time>
      </trkpt>
      <trkpt lat="47.93133" lon="-3.4712">
        <ele>93.51</ele>
        <time>2018-06-01T13:58:14Z</time>
      </trkpt>
      <trkpt lat="47.93135" lon="-3.47077">
        <ele>91.41</ele>
        <time>2018-06-01T13:58:32Z</time>
      </trkpt>
      <trkpt lat="47.93134" lon="-3.47031">
        <ele>89.23</ele>
        <time>2018-06-01T13:58:52Z</time>
      </trkpt>
      <trkpt lat="47.93134" lon="-3.4699">
        <ele>87.36</ele>
        <time>2018-06-01T13:59:07Z</time>
      </trkpt>
      <trkpt lat="47.93134" lon="-3.46958">
        <ele>85.19</ele>
        <time>2018-06-01T13:59:19Z</time>
      </trkpt>
      <trkpt lat="47.93135" lon="-3.46922">
        <ele>82.78</ele>
        <time>2018-06-01T13:59:35Z</time>
      </trkpt>
      <trkpt lat="47.93135" lon="-3.46911">
        <ele>81.82</ele>
        <time>2018-06-01T13:59:40Z</time>
      </trkpt>
      <trkpt lat="47.93134" lon="-3.46909">
        <ele>81.64</ele>
        <time>2018-06-01T13:59:41Z</time>
      </trkpt>
      <trkpt lat="47.93134" lon="-3.46907">
        <ele>81.47</ele>
        <time>2018-06-01T13:59:42Z</time>
      </trkpt>
      <trkpt lat="47.93132" lon="-3.46869">
        <ele>79.14</ele>
        <time>2018-06-01T13:59:57Z</time>
      </trkpt>
      <trkpt lat="47.93125" lon="-3.46831">
        <ele>76.65</ele>
        <time>2018-06-01T14:00:12Z</time>
      </trkpt>
      <trkpt lat="47.93113" lon="-3.46782">
        <ele>73.73</ele>
        <time>2018-06-01T14:00:31Z</time>
      </trkpt>
      <trkpt lat="47.93121" lon="-3.46746">
        <ele>71.68</ele>
        <time>2018-06-01T14:00:47Z</time>
      </trkpt>
      <trkpt lat="47.93133" lon="-3.46711">
        <ele>71.23</ele>
        <time>2018-06-01T14:01:04Z</time>
      </trkpt>
      <trkpt lat="47.93139" lon="-3.4667">
        <ele>71.27</ele>
        <time>2018-06-01T14:01:22Z</time>
      </trkpt>
      <trkpt lat="47.93145" lon="-3.46632">
        <ele>71.02</ele>
        <time>2018-06-01T14:01:40Z</time>
      </trkpt>
      <trkpt lat="47.93151" lon="-3.46591">
        <ele>70.67</ele>
        <time>2018-06-01T14:01:58Z</time>
      </trkpt>
      <trkpt lat="47.9316" lon="-3.46553">
        <ele>70.44</ele>
        <time>2018-06-01T14:02:14Z</time>
      </trkpt>
      <trkpt lat="47.93171" lon="-3.46513">
        <ele>70.41</ele>
        <time>2018-06-01T14:02:31Z</time>
      </trkpt>
      <trkpt lat="47.93184" lon="-3.46471">
        <ele>70.04</ele>
        <time>2018-06-01T14:02:50Z</time>
      </trkpt>
      <trkpt lat="47.9319" lon="-3.46432">
        <ele>69.72</ele>
        <time>2018-06-01T14:03:07Z</time>
      </trkpt>
      <trkpt lat="47.93197" lon="-3.46392">
        <ele>68.99</ele>
        <time>2018-06-01T14:03:24Z</time>
      </trkpt>
      <trkpt lat="47.93211" lon="-3.46363">
        <ele>67.5</ele>
        <time>2018-06-01T14:03:40Z</time>
      </trkpt>
      <trkpt lat="47.93226" lon="-3.46338">
        <ele>65.36</ele>
        <time>2018-06-01T14:03:56Z</time>
      </trkpt>
      <trkpt lat="47.93222" lon="-3.46317">
        <ele>64.84</ele>
        <time>2018-06-01T14:04:08Z</time>
      </trkpt>
      <trkpt lat="47.93217" lon="-3.46303">
        <ele>65.19</ele>
        <time>2018-06-01T14:04:20Z</time>
      </trkpt>
      <trkpt lat="47.93216" lon="-3.46301">
        <ele>65.25</ele>
        <time>2018-06-01T14:04:21Z</time>
      </trkpt>
      <trkpt lat="47.93216" lon="-3.46299">
        <ele>65.33</ele>
        <time>2018-06-01T14:04:22Z</time>
      </trkpt>
      <trkpt lat="47.93216" lon="-3.46298">
        <ele>65.4</ele>
        <time>2018-06-01T14:04:23Z</time>
      </trkpt>
      <trkpt lat="47.93215" lon="-3.46291">
        <ele>66.25</ele>
        <time>2018-06-01T14:04:40Z</time>
      </trkpt>
      <trkpt lat="47.93216" lon="-3.46287">
        <ele>66.56</ele>
        <time>2018-06-01T14:04:43Z</time>
      </trkpt>
      <trkpt lat="47.93218" lon="-3.46281">
        <ele>66.84</ele>
        <time>2018-06-01T14:04:46Z</time>
      </trkpt>
      <trkpt lat="47.93219" lon="-3.4628">
        <ele>66.98</ele>
        <time>2018-06-01T14:04:47Z</time>
      </trkpt>
      <trkpt lat="47.93228" lon="-3.46255">
        <ele>68.21</ele>
        <time>2018-06-01T14:04:59Z</time>
      </trkpt>
      <trkpt lat="47.93243" lon="-3.46228">
        <ele>69.14</ele>
        <time>2018-06-01T14:05:08Z</time>
      </trkpt>
      <trkpt lat="47.93262" lon="-3.46207">
        <ele>70.81</ele>
        <time>2018-06-01T14:05:24Z</time>
      </trkpt>
      <trkpt lat="47.93287" lon="-3.46189">
        <ele>71.96</ele>
        <time>2018-06-01T14:05:41Z</time>
      </trkpt>
      <trkpt lat="47.9331" lon="-3.46174">
        <ele>72.63</ele>
        <time>2018-06-01T14:05:56Z</time>
      </trkpt>
      <trkpt lat="47.93337" lon="-3.46161">
        <ele>73.1</ele>
        <time>2018-06-01T14:06:13Z</time>
      </trkpt>
      <trkpt lat="47.93356" lon="-3.46163">
        <ele>74.79</ele>
        <time>2018-06-01T14:06:27Z</time>
      </trkpt>
      <trkpt lat="47.93364" lon="-3.46165">
        <ele>75.7</ele>
        <time>2018-06-01T14:06:32Z</time>
      </trkpt>
      <trkpt lat="47.93379" lon="-3.46163">
        <ele>78.2</ele>
        <time>2018-06-01T14:06:45Z</time>
      </trkpt>
      <trkpt lat="47.93388" lon="-3.46158">
        <ele>79.71</ele>
        <time>2018-06-01T14:07:03Z</time>
      </trkpt>
      <trkpt lat="47.93393" lon="-3.4616">
        <ele>80.84</ele>
        <time>2018-06-01T14:07:20Z</time>
      </trkpt>
      <trkpt lat="47.93398" lon="-3.46159">
        <ele>80.57</ele>
        <time>2018-06-01T14:07:35Z</time>
      </trkpt>
      <trkpt lat="47.93403" lon="-3.4616">
        <ele>81.13</ele>
        <time>2018-06-01T14:07:51Z</time>
      </trkpt>
      <trkpt lat="47.93404" lon="-3.4616">
        <ele>81.13</ele>
        <time>2018-06-01T14:07:52Z</time>
      </trkpt>
      <trkpt lat="47.9341" lon="-3.4616">
        <ele>81.79</ele>
        <time>2018-06-01T14:07:57Z</time>
      </trkpt>
      <trkpt lat="47.93416" lon="-3.4616">
        <ele>82.67</ele>
        <time>2018-06-01T14:08:02Z</time>
      </trkpt>
      <trkpt lat="47.93432" lon="-3.46161">
        <ele>85.34</ele>
        <time>2018-06-01T14:08:16Z</time>
      </trkpt>
      <trkpt lat="47.93447" lon="-3.46165">
        <ele>87.71</ele>
        <time>2018-06-01T14:08:31Z</time>
      </trkpt>
      <trkpt lat="47.93449" lon="-3.46166">
        <ele>87.95</ele>
        <time>2018-06-01T14:08:33Z</time>
      </trkpt>
      <trkpt lat="47.93452" lon="-3.46166">
        <ele>88.16</ele>
        <time>2018-06-01T14:08:35Z</time>
      </trkpt>
      <trkpt lat="47.9347" lon="-3.46163">
        <ele>89.31</ele>
        <time>2018-06-01T14:08:52Z</time>
      </trkpt>
      <trkpt lat="47.93488" lon="-3.46165">
        <ele>88.18</ele>
        <time>2018-06-01T14:09:05Z</time>
      </trkpt>
      <trkpt lat="47.93492" lon="-3.46166">
        <ele>87.89</ele>
        <time>2018-06-01T14:09:09Z</time>
      </trkpt>
      <trkpt lat="47.93501" lon="-3.46167">
        <ele>87.61</ele>
        <time>2018-06-01T14:09:15Z</time>
      </trkpt>
      <trkpt lat="47.93509" lon="-3.46175">
        <ele>87.54</ele>
        <time>2018-06-01T14:09:24Z</time>
      </trkpt>
      <trkpt lat="47.93512" lon="-3.46188">
        <ele>88.02</ele>
        <time>2018-06-01T14:09:28Z</time>
      </trkpt>
      <trkpt lat="47.93518" lon="-3.46213">
        <ele>91.38</ele>
        <time>2018-06-01T14:09:34Z</time>
      </trkpt>
      <trkpt lat="47.93522" lon="-3.46221">
        <ele>94.15</ele>
        <time>2018-06-01T14:09:37Z</time>
      </trkpt>
      <trkpt lat="47.93526" lon="-3.46235">
        <ele>98.04</ele>
        <time>2018-06-01T14:09:44Z</time>
      </trkpt>
      <trkpt lat="47.93541" lon="-3.46259">
        <ele>97.06</ele>
        <time>2018-06-01T14:10:03Z</time>
      </trkpt>
      <trkpt lat="47.93564" lon="-3.46279">
        <ele>94.83</ele>
        <time>2018-06-01T14:10:24Z</time>
      </trkpt>
      <trkpt lat="47.93582" lon="-3.46277">
        <ele>95.53</ele>
        <time>2018-06-01T14:10:30Z</time>
      </trkpt>
      <trkpt lat="47.93583" lon="-3.46268">
        <ele>93.33</ele>
        <time>2018-06-01T14:10:51Z</time>
      </trkpt>
      <trkpt lat="47.93608" lon="-3.46262">
        <ele>90.24</ele>
        <time>2018-06-01T14:11:12Z</time>
      </trkpt>
      <trkpt lat="47.9363" lon="-3.46257">
        <ele>88.01</ele>
        <time>2018-06-01T14:11:26Z</time>
      </trkpt>
      <trkpt lat="47.93653" lon="-3.46253">
        <ele>86.01</ele>
        <time>2018-06-01T14:11:38Z</time>
      </trkpt>
      <trkpt lat="47.93678" lon="-3.46249">
        <ele>83.9</ele>
        <time>2018-06-01T14:11:51Z</time>
      </trkpt>
      <trkpt lat="47.93695" lon="-3.46246">
        <ele>81.6</ele>
        <time>2018-06-01T14:12:05Z</time>
      </trkpt>
      <trkpt lat="47.93711" lon="-3.46256">
        <ele>80.32</ele>
        <time>2018-06-01T14:12:21Z</time>
      </trkpt>
      <trkpt lat="47.93732" lon="-3.46272">
        <ele>80.02</ele>
        <time>2018-06-01T14:12:38Z</time>
      </trkpt>
      <trkpt lat="47.93756" lon="-3.46287">
        <ele>78.29</ele>
        <time>2018-06-01T14:13:00Z</time>
      </trkpt>
      <trkpt lat="47.93773" lon="-3.46311">
        <ele>78.09</ele>
        <time>2018-06-01T14:13:16Z</time>
      </trkpt>
      <trkpt lat="47.93791" lon="-3.4634">
        <ele>81.41</ele>
        <time>2018-06-01T14:13:33Z</time>
      </trkpt>
      <trkpt lat="47.93809" lon="-3.46353">
        <ele>83.27</ele>
        <time>2018-06-01T14:13:52Z</time>
      </trkpt>
      <trkpt lat="47.93815" lon="-3.46354">
        <ele>82.99</ele>
        <time>2018-06-01T14:14:10Z</time>
      </trkpt>
      <trkpt lat="47.93818" lon="-3.46354">
        <ele>82.8</ele>
        <time>2018-06-01T14:14:20Z</time>
      </trkpt>
      <trkpt lat="47.93828" lon="-3.46358">
        <ele>82.66</ele>
        <time>2018-06-01T14:14:35Z</time>
      </trkpt>
      <trkpt lat="47.93835" lon="-3.46358">
        <ele>83.2</ele>
        <time>2018-06-01T14:14:57Z</time>
      </trkpt>
      <trkpt lat="47.93836" lon="-3.46355">
        <ele>83.14</ele>
        <time>2018-06-01T14:15:18Z</time>
      </trkpt>
      <trkpt lat="47.93848" lon="-3.46372">
        <ele>83.13</ele>
        <time>2018-06-01T14:15:38Z</time>
      </trkpt>
      <trkpt lat="47.9386" lon="-3.46405">
        <ele>86.23</ele>
        <time>2018-06-01T14:15:57Z</time>
      </trkpt>
      <trkpt lat="47.93869" lon="-3.46433">
        <ele>88.46</ele>
        <time>2018-06-01T14:16:16Z</time>
      </trkpt>
      <trkpt lat="47.93893" lon="-3.46459">
        <ele>89.72</ele>
        <time>2018-06-01T14:16:36Z</time>
      </trkpt>
      <trkpt lat="47.93906" lon="-3.46495">
        <ele>88.94</ele>
        <time>2018-06-01T14:16:57Z</time>
      </trkpt>
      <trkpt lat="47.93918" lon="-3.46529">
        <ele>90.04</ele>
        <time>2018-06-01T14:17:17Z</time>
      </trkpt>
      <trkpt lat="47.93922" lon="-3.46559">
        <ele>91.6</ele>
        <time>2018-06-01T14:17:31Z</time>
      </trkpt>
      <trkpt lat="47.93927" lon="-3.46586">
        <ele>94.63</ele>
        <time>2018-06-01T14:17:49Z</time>
      </trkpt>
      <trkpt lat="47.93931" lon="-3.46614">
        <ele>97.46</ele>
        <time>2018-06-01T14:18:10Z</time>
      </trkpt>
      <trkpt lat="47.9393" lon="-3.46637">
        <ele>97.14</ele>
        <time>2018-06-01T14:18:23Z</time>
      </trkpt>
      <trkpt lat="47.93928" lon="-3.46651">
        <ele>97.49</ele>
        <time>2018-06-01T14:18:31Z</time>
      </trkpt>
      <trkpt lat="47.9393" lon="-3.46656">
        <ele>97.34</ele>
        <time>2018-06-01T14:18:55Z</time>
      </trkpt>
      <trkpt lat="47.93927" lon="-3.46663">
        <ele>97.4</ele>
        <time>2018-06-01T14:19:18Z</time>
      </trkpt>
      <trkpt lat="47.93926" lon="-3.46676">
        <ele>97.51</ele>
        <time>2018-06-01T14:19:34Z</time>
      </trkpt>
      <trkpt lat="47.93929" lon="-3.46689">
        <ele>98.14</ele>
        <time>2018-06-01T14:19:47Z</time>
      </trkpt>
      <trkpt lat="47.93934" lon="-3.46706">
        <ele>98.19</ele>
        <time>2018-06-01T14:20:05Z</time>
      </trkpt>
      <trkpt lat="47.93934" lon="-3.46729">
        <ele>98.55</ele>
        <time>2018-06-01T14:20:20Z</time>
      </trkpt>
      <trkpt lat="47.93934" lon="-3.46731">
        <ele>98.6</ele>
        <time>2018-06-01T14:20:21Z</time>
      </trkpt>
      <trkpt lat="47.93934" lon="-3.46737">
        <ele>98.77</ele>
        <time>2018-06-01T14:20:24Z</time>
      </trkpt>
      <trkpt lat="47.93936" lon="-3.46751">
        <ele>98.93</ele>
        <time>2018-06-01T14:20:30Z</time>
      </trkpt>
      <trkpt lat="47.93935" lon="-3.46774">
        <ele>99.09</ele>
        <time>2018-06-01T14:20:39Z</time>
      </trkpt>
      <trkpt lat="47.93933" lon="-3.468">
        <ele>99.31</ele>
        <time>2018-06-01T14:20:52Z</time>
      </trkpt>
      <trkpt lat="47.93934" lon="-3.46822">
        <ele>99.96</ele>
        <time>2018-06-01T14:21:02Z</time>
      </trkpt>
      <trkpt lat="47.93932" lon="-3.46837">
        <ele>100.37</ele>
        <time>2018-06-01T14:21:09Z</time>
      </trkpt>
      <trkpt lat="47.93931" lon="-3.46845">
        <ele>100.76</ele>
        <time>2018-06-01T14:21:13Z</time>
      </trkpt>
      <trkpt lat="47.9394" lon="-3.46868">
        <ele>102.62</ele>
        <time>2018-06-01T14:21:25Z</time>
      </trkpt>
      <trkpt lat="47.9394" lon="-3.46876">
        <ele>103.08</ele>
        <time>2018-06-01T14:21:28Z</time>
      </trkpt>
      <trkpt lat="47.93937" lon="-3.46886">
        <ele>103.67</ele>
        <time>2018-06-01T14:21:33Z</time>
      </trkpt>
      <trkpt lat="47.93934" lon="-3.46907">
        <ele>105.62</ele>
        <time>2018-06-01T14:21:48Z</time>
      </trkpt>
      <trkpt lat="47.9394" lon="-3.46948">
        <ele>107.06</ele>
        <time>2018-06-01T14:22:12Z</time>
      </trkpt>
      <trkpt lat="47.93936" lon="-3.46973">
        <ele>110.12</ele>
        <time>2018-06-01T14:22:35Z</time>
      </trkpt>
      <trkpt lat="47.93925" lon="-3.46992">
        <ele>112.14</ele>
        <time>2018-06-01T14:22:54Z</time>
      </trkpt>
      <trkpt lat="47.93915" lon="-3.47035">
        <ele>110.34</ele>
        <time>2018-06-01T14:23:14Z</time>
      </trkpt>
      <trkpt lat="47.93909" lon="-3.4706">
        <ele>108.49</ele>
        <time>2018-06-01T14:23:25Z</time>
      </trkpt>
      <trkpt lat="47.93902" lon="-3.47088">
        <ele>106.67</ele>
        <time>2018-06-01T14:23:37Z</time>
      </trkpt>
      <trkpt lat="47.93891" lon="-3.47117">
        <ele>105.58</ele>
        <time>2018-06-01T14:23:54Z</time>
      </trkpt>
      <trkpt lat="47.93881" lon="-3.47128">
        <ele>106.08</ele>
        <time>2018-06-01T14:24:02Z</time>
      </trkpt>
      <trkpt lat="47.9387" lon="-3.47135">
        <ele>106.54</ele>
        <time>2018-06-01T14:24:09Z</time>
      </trkpt>
      <trkpt lat="47.93858" lon="-3.47143">
        <ele>107.62</ele>
        <time>2018-06-01T14:24:18Z</time>
      </trkpt>
      <trkpt lat="47.93856" lon="-3.47147">
        <ele>107.99</ele>
        <time>2018-06-01T14:24:20Z</time>
      </trkpt>
      <trkpt lat="47.93835" lon="-3.47168">
        <ele>110.42</ele>
        <time>2018-06-01T14:24:35Z</time>
      </trkpt>
      <trkpt lat="47.93799" lon="-3.4722">
        <ele>113.54</ele>
        <time>2018-06-01T14:24:55Z</time>
      </trkpt>
      <trkpt lat="47.93774" lon="-3.47256">
        <ele>116.63</ele>
        <time>2018-06-01T14:25:14Z</time>
      </trkpt>
      <trkpt lat="47.93756" lon="-3.47285">
        <ele>118.77</ele>
        <time>2018-06-01T14:25:31Z</time>
      </trkpt>
      <trkpt lat="47.93734" lon="-3.47317">
        <ele>120.24</ele>
        <time>2018-06-01T14:25:49Z</time>
      </trkpt>
      <trkpt lat="47.9372" lon="-3.47338">
        <ele>121.94</ele>
        <time>2018-06-01T14:26:04Z</time>
      </trkpt>
      <trkpt lat="47.93718" lon="-3.47341">
        <ele>122.14</ele>
        <time>2018-06-01T14:26:07Z</time>
      </trkpt>
      <trkpt lat="47.93702" lon="-3.47365">
        <ele>122.97</ele>
        <time>2018-06-01T14:26:23Z</time>
      </trkpt>
      <trkpt lat="47.9369" lon="-3.47386">
        <ele>123.61</ele>
        <time>2018-06-01T14:26:37Z</time>
      </trkpt>
      <trkpt lat="47.93675" lon="-3.47414">
        <ele>124.63</ele>
        <time>2018-06-01T14:26:55Z</time>
      </trkpt>
      <trkpt lat="47.93661" lon="-3.47439">
        <ele>124.32</ele>
        <time>2018-06-01T14:27:11Z</time>
      </trkpt>
      <trkpt lat="47.93661" lon="-3.47453">
        <ele>123.93</ele>
        <time>2018-06-01T14:27:27Z</time>
      </trkpt>
      <trkpt lat="47.9366" lon="-3.47455">
        <ele>123.5</ele>
        <time>2018-06-01T14:27:53Z</time>
      </trkpt>
      <trkpt lat="47.93661" lon="-3.47457">
        <ele>123.37</ele>
        <time>2018-06-01T14:28:12Z</time>
      </trkpt>
      <trkpt lat="47.93664" lon="-3.47462">
        <ele>123.43</ele>
        <time>2018-06-01T14:28:31Z</time>
      </trkpt>
      <trkpt lat="47.93664" lon="-3.4746">
        <ele>123.55</ele>
        <time>2018-06-01T14:28:51Z</time>
      </trkpt>
      <trkpt lat="47.93664" lon="-3.47458">
        <ele>123.42</ele>
        <time>2018-06-01T14:29:12Z</time>
      </trkpt>
      <trkpt lat="47.93667" lon="-3.47461">
        <ele>123.31</ele>
        <time>2018-06-01T14:29:29Z</time>
      </trkpt>
    </trkseg>
  </trk>
</gpx>